GFSMA_sfc_rhum_000.txt.gz
RH
97 97 98 98 99 98 99 98 96 93 90 89 92 95 94 96 97 98 98 86 81 69 64 67 76 74 70 79 84 85 83 83 82 82 82 85 87 88 90 90 89 88 89
97 98 98 98 98 98 97 94 89 86 87 88 87 80 79 84 91 90 87 84 78 71 68 66 64 70 78 74 77 83 85 86 84 84 83 85 86 87 90 90 90 89 88
97 96 98 99 98 97 88 91 85 86 80 78 72 76 77 77 86 77 70 72 75 75 75 77 75 72 73 75 79 80 81 85 86 86 84 85 85 86 87 90 90 89 89
89 88 94 96 96 92 92 93 67 66 71 72 74 71 69 66 64 60 64 67 75 77 84 88 86 83 81 78 75 72 76 79 80 83 87 87 86 85 86 86 89 89 89
84 81 82 84 86 79 80 83 68 71 68 65 62 63 65 64 62 55 58 61 67 74 88 83 82 92 87 76 70 68 68 74 78 79 82 85 90 89 85 85 86 87 90
82 82 81 81 80 77 76 75 70 75 71 66 55 58 66 66 68 64 61 58 68 72 74 77 90 88 80 73 69 71 69 68 73 74 78 82 87 91 93 86 83 86 87
80 80 76 79 84 76 66 72 73 71 73 76 69 66 69 70 67 63 64 73 70 75 74 82 86 83 86 76 70 75 72 63 59 70 83 90 86 90 93 93 87 83 86
70 75 73 68 74 75 77 74 74 76 74 79 68 78 65 63 64 67 69 60 75 76 75 71 77 78 85 82 81 63 55 66 68 62 66 74 82 83 87 94 96 91 83
58 70 68 68 66 72 68 67 70 72 65 82 79 66 82 74 79 68 58 61 64 72 77 71 73 73 73 80 78 75 76 81 79 54 55 59 70 80 84 87 92 92 94
63 61 69 73 68 65 68 72 66 73 74 78 82 76 72 73 57 53 61 66 58 56 68 78 74 71 75 80 75 78 84 88 87 71 58 59 65 75 79 83 86 93 96
70 67 66 66 74 74 76 73 76 77 64 68 59 67 68 79 78 65 62 56 54 60 65 76 81 85 70 69 83 76 80 83 87 85 72 68 66 72 74 76 84 88 90
80 78 78 80 78 75 70 68 64 60 65 64 65 67 68 60 59 67 76 66 60 60 64 64 73 76 80 82 68 75 82 88 92 92 84 68 63 67 73 73 80 84 87
80 82 78 78 80 82 81 77 79 77 79 83 76 76 72 75 75 76 75 74 76 66 66 72 69 70 65 79 82 80 83 83 87 90 84 84 81 78 77 73 79 83 88
83 90 91 88 87 88 89 87 89 90 93 95 93 91 91 85 83 75 68 76 70 69 72 72 67 68 70 74 77 79 79 85 80 96 100 94 85 84 82 78 72 78 82
84 91 89 87 86 86 90 88 90 90 92 92 91 89 87 81 80 79 78 78 80 80 67 64 68 68 68 72 77 80 79 76 86 94 100 98 97 95 86 85 83 84 79
88 89 86 80 80 77 78 83 90 91 92 88 82 80 78 76 75 78 80 84 89 84 79 66 67 68 64 59 71 70 74 81 85 86 98 98 97 99 92 90 91 85 82
78 69 68 71 73 76 78 82 82 78 75 75 71 70 71 70 74 77 82 84 82 84 85 70 72 68 71 72 65 70 78 80 84 83 83 87 93 93 97 98 99 93 88
62 63 62 63 64 67 70 71 71 68 69 69 69 72 72 56 73 75 80 84 86 84 83 82 84 77 76 74 76 79 72 71 81 77 78 80 82 86 96 98 98 98 98
70 67 62 58 63 68 66 64 66 68 71 73 75 76 76 76 78 79 79 82 84 72 84 91 81 85 83 83 81 81 82 85 76 68 71 74 78 82 93 96 96 97 95
72 70 69 70 73 64 59 61 65 72 70 67 71 72 73 74 72 72 70 72 72 79 76 79 75 77 85 80 82 78 82 86 76 59 66 74 84 87 94 96 95 95 96
84 87 83 67 65 59 53 74 69 68 71 74 74 70 70 71 65 66 67 74 81 87 83 82 78 74 72 77 78 70 76 76 80 81 76 78 91 93 93 95 96 96 98
89 94 79 68 68 57 76 67 73 80 78 75 77 72 73 74 77 74 72 72 73 81 83 81 77 77 72 75 72 73 79 81 80 83 82 86 94 91 92 95 93 93 95
71 66 65 70 74 75 72 71 70 79 83 83 82 82 77 68 73 75 78 76 76 76 80 82 87 84 76 68 72 84 84 82 78 76 93 90 98 97 93 90 91 92 94
61 64 70 79 80 69 70 68 69 81 86 86 83 82 84 84 80 77 76 78 81 80 74 71 81 80 78 74 74 70 74 78 80 78 90 88 92 98 93 92 85 87 91
66 75 80 80 78 78 72 71 72 91 92 91 82 82 85 82 82 80 86 95 89 81 72 73 77 80 77 78 77 84 91 92 93 82 86 85 83 96 93 92 94 84 87
74 76 74 78 78 90 80 75 75 90 96 94 90 80 77 78 80 83 91 96 95 83 78 84 81 74 76 83 84 83 92 94 91 93 84 90 83 89 93 91 91 93 95

GFSMA_sfc_rhum_003.txt.gz
RH
75 71 71 71 74 75 74 76 69 56 53 52 57 54 50 51 54 39 38 73 73 64 60 61 61 65 72 77 80 81 80 82 82 83 83 82 84 83 87 89 90 88 88
75 70 70 69 70 71 71 73 59 50 50 53 54 48 46 45 48 46 33 36 69 69 74 72 70 68 68 72 78 83 82 82 84 85 85 85 83 83 84 86 88 89 89
71 74 71 72 69 71 78 65 57 54 50 50 49 48 48 46 44 42 37 34 38 66 78 78 72 78 73 71 75 76 77 84 84 81 85 88 88 85 84 86 85 89 89
67 70 67 69 66 74 72 64 56 48 41 42 42 38 38 39 41 40 36 38 35 35 55 71 75 72 69 67 65 66 68 73 80 82 87 88 89 88 88 88 85 86 89
66 67 62 62 68 64 69 63 55 52 39 41 38 38 39 35 39 31 37 39 45 43 38 65 77 75 69 68 62 62 64 66 68 71 79 87 88 90 89 90 86 85 86
62 64 60 65 63 57 59 59 58 48 42 40 31 32 39 37 37 38 35 28 38 41 41 49 48 47 74 64 56 57 59 65 63 60 73 83 87 90 91 90 94 88 86
53 59 56 59 62 60 58 58 56 58 48 49 46 41 40 44 44 37 38 35 36 41 48 48 37 34 34 60 52 56 56 54 59 61 64 72 76 83 88 90 93 90 96
45 47 56 54 55 56 63 64 63 53 49 50 43 41 41 37 40 42 38 42 45 41 41 35 36 35 32 34 52 62 64 63 60 58 56 57 70 77 82 83 85 91 90
45 48 51 53 56 57 59 61 63 62 51 49 53 42 44 42 34 42 48 37 50 40 36 31 34 31 36 43 47 52 69 78 79 64 64 55 61 70 79 84 84 89 92
49 48 52 55 57 57 60 60 54 62 60 52 53 49 54 48 43 40 40 40 41 36 38 36 34 33 36 28 54 68 79 84 82 69 60 59 59 67 75 76 82 84 80
51 53 54 58 60 56 59 62 63 64 56 58 52 53 54 45 47 37 38 35 37 36 38 39 35 40 33 36 41 51 76 86 89 86 73 65 65 64 69 71 76 81 84
52 56 54 58 58 58 60 58 60 62 60 56 52 51 45 44 38 43 46 46 50 46 38 36 39 36 37 34 43 71 80 86 84 84 85 77 68 63 65 69 68 68 73
51 57 58 60 58 60 61 61 66 69 68 69 75 79 76 80 78 78 78 70 59 45 39 38 38 39 33 35 44 66 66 78 74 86 96 85 79 74 72 66 66 68 64
57 64 59 55 60 62 64 65 67 71 73 78 87 90 91 91 93 92 90 85 74 52 43 48 36 37 34 34 41 74 46 70 72 91 96 99 89 89 86 69 61 60 63
60 65 67 64 62 60 62 61 64 64 73 77 80 82 83 79 86 81 78 70 72 75 56 43 39 37 36 33 41 40 49 64 79 88 88 88 85 84 82 81 84 76 62
67 62 55 53 52 54 55 59 61 62 64 66 62 66 65 64 64 62 58 56 52 49 48 34 31 36 37 28 36 41 39 67 77 78 76 80 82 77 78 82 89 95 86
55 52 52 55 60 65 68 66 64 57 51 52 55 56 56 52 46 45 45 44 43 43 47 40 35 39 43 41 36 38 41 40 42 80 71 74 77 77 80 84 90 93 98
59 54 54 63 66 60 59 55 53 48 45 44 44 48 47 38 50 52 52 55 51 49 50 52 43 44 47 44 45 48 40 38 44 56 78 78 78 79 81 89 94 97 97
64 66 71 69 61 54 50 46 47 48 48 50 52 55 54 54 53 50 51 50 48 42 46 47 47 42 44 43 44 44 47 48 41 56 77 79 76 77 78 89 94 95 95
63 68 65 70 65 48 42 42 43 51 52 49 53 51 50 49 49 48 45 46 44 46 46 47 46 44 42 42 45 48 51 52 52 36 46 56 61 66 82 89 92 95 96
65 70 75 68 52 46 36 50 51 52 53 53 54 51 53 55 62 60 52 52 52 52 52 54 55 54 53 54 58 50 53 54 55 54 56 54 51 51 52 85 75 94 93
49 50 50 50 52 44 79 67 69 57 57 55 55 52 51 58 58 67 72 72 68 61 60 60 58 56 50 48 47 49 52 56 59 53 62 67 56 58 53 51 63 89 94
48 47 48 51 56 57 70 69 69 53 55 56 55 52 48 45 58 55 62 69 71 73 77 71 74 66 63 56 52 58 60 58 56 50 59 68 66 71 62 50 84 92 92
48 48 54 57 54 47 66 68 68 62 66 63 57 55 55 56 58 65 64 64 63 63 62 60 62 59 55 53 56 56 54 54 54 50 55 79 73 86 75 69 81 88 90
49 52 50 52 52 54 66 68 70 74 74 71 61 58 59 61 67 74 76 84 72 60 58 72 75 76 77 76 72 64 79 74 82 55 51 65 72 81 74 86 86 77 84
49 52 54 54 63 72 70 73 71 72 81 73 69 65 70 70 79 85 93 89 87 66 67 81 77 67 72 76 84 78 78 80 71 67 50 60 55 55 76 80 80 87 88

GFSMA_sfc_rhum_006.txt.gz
RH
51 46 45 41 41 41 42 46 44 40 35 32 33 35 32 34 35 26 26 61 62 62 62 60 61 63 66 70 76 81 85 88 80 82 84 85 86 85 85 88 90 91 90
49 43 40 36 35 34 38 41 41 38 32 31 31 35 33 31 31 33 23 31 62 68 67 64 67 69 68 70 74 77 76 83 87 83 85 87 87 85 85 86 88 90 90
44 46 38 37 35 36 45 46 47 42 36 28 31 32 32 34 30 32 28 25 37 73 68 66 67 66 64 63 65 67 71 75 80 87 82 86 88 88 86 84 87 88 90
47 47 39 38 37 41 38 40 40 38 36 31 30 27 28 28 30 32 28 28 24 21 62 71 66 63 63 63 60 60 62 67 68 72 82 87 88 89 89 86 86 87 87
42 45 39 38 43 40 40 39 40 40 39 32 28 28 29 27 28 22 27 32 33 27 23 68 68 67 62 56 51 54 58 63 67 68 69 81 89 91 90 91 92 93 93
38 40 38 44 44 43 42 39 45 40 38 37 24 23 28 29 28 27 28 25 26 33 31 32 33 38 61 49 46 45 52 55 57 66 60 78 82 92 94 93 91 91 91
35 40 36 39 41 41 44 50 48 49 46 40 40 34 32 33 37 30 28 26 26 30 33 33 27 24 28 47 40 51 51 55 56 54 59 64 71 79 88 95 94 95 92
32 32 37 37 38 38 44 46 51 50 47 44 45 40 39 31 30 33 30 29 35 27 31 34 31 30 28 24 39 53 53 57 60 63 58 62 60 69 72 77 87 89 89
32 34 37 39 42 41 38 43 45 49 46 44 48 47 44 41 32 27 39 32 36 35 32 31 30 29 29 29 37 44 68 73 66 66 59 64 60 64 64 73 81 83 87
32 32 36 41 44 41 44 42 35 44 47 47 42 39 49 46 47 43 35 38 35 38 40 32 29 31 31 27 40 56 75 80 80 80 65 57 60 62 65 69 74 78 83
32 33 39 45 46 43 45 52 54 54 50 51 48 47 57 48 48 51 44 42 35 33 30 34 36 33 33 31 28 49 77 83 80 73 81 64 57 60 64 66 70 72 76
31 36 40 46 48 48 49 49 55 59 58 58 56 57 56 69 60 51 48 44 42 35 32 34 37 36 35 32 36 63 66 80 71 75 83 78 71 67 60 59 64 68 68
36 41 48 48 44 48 48 49 53 57 64 68 73 79 85 90 88 88 79 66 61 40 39 36 35 35 31 35 34 60 59 66 69 78 85 95 76 74 70 66 65 66 66
44 50 50 48 48 49 50 54 63 66 61 64 66 74 79 77 81 93 94 96 97 90 64 58 36 35 34 34 42 63 34 59 66 80 84 92 80 82 76 74 74 67 58
44 51 53 49 44 47 49 52 59 67 66 67 63 60 62 70 77 75 76 68 81 80 62 48 45 37 33 34 39 35 37 57 58 76 82 79 72 67 66 66 74 78 80
52 48 46 45 47 51 60 64 66 68 68 65 60 55 42 38 41 45 45 48 46 46 45 31 28 28 28 23 34 34 34 56 68 76 80 77 74 69 66 66 68 73 78
47 44 45 49 54 68 79 82 73 61 48 45 43 41 39 36 35 33 34 34 35 35 38 32 27 28 33 35 34 34 34 34 34 72 77 69 70 70 71 72 72 76 82
54 54 62 71 70 69 60 54 55 45 41 39 40 40 38 25 38 38 36 40 38 37 38 42 34 32 34 34 36 39 30 25 29 44 77 75 74 72 74 73 72 80 86
67 70 64 62 64 62 55 47 40 39 40 41 40 39 38 40 43 40 41 41 38 31 37 38 38 33 33 32 34 36 37 38 29 46 67 79 79 79 77 76 76 78 86
50 48 46 46 48 42 38 36 35 39 41 38 43 45 44 45 45 44 40 41 36 37 37 36 35 34 33 33 34 36 39 36 36 27 38 48 56 64 73 76 76 78 84
34 34 35 36 38 36 30 48 39 42 43 44 46 43 45 48 58 59 49 46 43 41 38 38 38 38 39 39 40 38 42 43 43 40 42 40 39 38 40 58 55 72 75
34 36 37 38 41 31 72 70 64 48 43 41 42 41 40 51 50 62 62 65 65 58 52 49 50 53 49 46 44 49 56 58 58 48 52 54 51 48 41 39 52 70 74
40 41 41 42 45 44 63 65 68 48 45 46 46 44 39 32 50 43 56 68 69 71 74 66 68 63 61 57 56 62 62 62 57 46 52 67 62 75 69 43 67 74 80
40 41 43 44 45 39 61 66 67 56 54 52 48 46 44 43 46 57 56 59 59 57 59 58 61 55 53 51 53 52 56 62 64 53 54 78 76 80 69 73 71 75 81
41 42 44 46 47 47 63 66 67 66 63 59 49 46 52 62 65 69 72 85 69 61 58 68 70 70 72 75 71 64 85 74 87 59 50 61 74 78 70 79 80 73 79
41 45 54 55 60 63 64 68 67 68 81 76 72 65 70 66 74 77 92 88 82 61 57 64 61 79 81 64 78 72 72 78 74 71 52 61 55 58 80 76 71 79 81

GFSMA_sfc_rhum_009.txt.gz
RH
46 40 40 35 34 32 33 36 36 36 36 34 30 32 31 31 32 28 25 64 56 60 58 55 58 62 64 68 73 77 79 87 84 84 84 85 86 85 84 84 85 86 89
45 39 37 34 32 30 31 35 38 40 37 32 32 31 33 30 28 31 24 38 64 66 63 59 63 64 65 67 72 74 74 78 86 89 87 88 87 87 86 84 85 88 89
42 44 38 37 34 35 42 37 37 36 36 33 32 29 30 34 32 32 29 25 40 72 67 63 62 61 60 60 61 63 65 70 74 86 91 90 91 88 87 88 86 87 88
38 43 37 38 38 42 37 37 35 36 35 34 35 30 28 27 29 31 30 29 25 26 63 72 65 62 61 57 55 55 59 62 68 69 79 91 93 90 90 90 89 87 87
35 39 37 40 47 42 44 42 40 42 39 38 34 33 31 29 31 23 28 32 36 28 26 73 72 68 62 55 47 46 51 55 63 67 68 76 89 94 91 89 91 89 86
37 38 36 42 42 38 40 41 50 43 46 44 34 33 37 32 30 33 30 26 29 36 33 35 46 47 69 55 47 42 45 51 54 58 66 69 76 86 92 93 92 91 92
32 35 31 33 37 36 42 48 47 50 47 46 47 46 43 43 41 32 33 30 30 30 37 36 33 27 41 60 46 45 45 47 53 57 58 61 69 74 82 91 94 91 93
32 31 36 34 35 35 46 49 52 48 46 47 50 49 53 45 38 37 34 36 41 30 31 36 38 36 30 28 43 52 45 47 52 55 61 60 67 67 66 69 75 89 94
29 30 32 36 42 42 40 48 47 50 47 46 50 50 55 51 43 36 42 39 42 38 35 33 40 34 34 31 43 45 66 62 53 59 62 63 63 65 65 62 67 77 82
28 27 30 36 44 43 47 45 36 52 53 50 45 37 47 51 57 61 44 45 43 43 46 38 36 35 33 32 44 55 66 70 69 68 69 62 58 65 65 64 66 74 77
32 29 32 39 45 42 46 52 52 52 49 48 47 49 55 55 58 75 77 57 47 42 47 54 40 35 34 34 33 48 73 72 73 61 71 73 58 57 63 63 67 70 72
31 34 33 42 46 46 47 47 49 54 62 60 57 60 67 73 73 76 78 66 62 76 65 52 55 44 39 36 39 67 65 73 66 62 73 82 73 60 60 64 64 63 68
36 42 45 48 44 45 46 55 68 69 71 83 78 65 64 72 73 78 93 94 92 74 88 86 80 61 40 44 39 54 65 67 62 66 71 85 76 71 70 65 61 61 65
42 44 47 47 47 55 57 56 56 60 63 66 74 79 78 71 75 80 86 95 92 88 88 85 67 77 71 50 59 48 41 70 64 64 76 84 77 79 76 77 73 69 62
40 44 46 46 53 53 62 63 67 71 68 70 72 69 66 72 82 64 58 68 80 84 62 60 76 68 75 67 48 40 40 58 64 60 75 76 74 67 61 60 64 63 66
46 46 52 54 59 67 66 70 65 62 66 65 57 54 54 48 45 50 49 63 66 71 67 45 40 41 41 30 39 38 39 61 68 65 70 73 67 65 64 64 62 62 63
51 56 60 62 63 64 69 75 67 62 64 63 55 49 45 43 40 36 40 39 37 37 44 38 30 33 38 41 34 38 37 40 40 71 67 74 76 72 68 68 66 65 69
55 56 58 60 62 66 69 67 67 59 50 49 48 48 46 35 42 39 36 38 36 36 39 44 36 36 39 39 41 44 30 25 32 42 74 71 74 71 72 76 74 72 73
45 45 44 46 43 42 38 37 35 38 41 42 42 42 40 41 42 41 41 42 38 31 38 38 38 35 35 35 37 38 39 41 28 46 78 78 81 77 75 76 78 75 74
35 32 32 32 34 32 31 31 33 39 38 35 38 40 39 41 43 44 43 44 39 41 39 40 39 37 36 34 36 38 42 39 38 24 36 45 58 68 70 72 78 78 76
31 30 32 33 34 33 30 46 44 46 45 43 44 37 41 46 60 56 42 47 48 48 45 42 42 42 40 40 40 39 43 44 46 43 44 44 44 43 45 67 54 73 75
32 34 35 36 38 28 70 64 61 49 45 43 43 41 38 49 50 66 69 71 61 51 52 51 49 50 48 47 45 48 52 54 58 51 54 59 51 52 47 48 60 67 62
35 37 37 36 39 41 60 62 67 52 51 48 47 46 41 33 49 39 51 66 70 74 75 63 67 61 59 53 54 60 64 65 64 51 57 69 69 75 64 43 67 75 74
36 37 39 41 44 40 69 69 68 56 54 52 48 48 50 46 45 53 56 56 56 55 56 56 64 58 57 53 55 55 60 63 64 59 60 79 76 80 73 69 70 73 77
37 38 40 48 54 55 66 70 66 63 65 61 51 51 54 54 59 64 67 75 66 60 56 68 71 73 74 74 70 67 84 92 88 62 55 68 76 79 75 79 79 73 78
36 43 51 54 63 62 70 62 66 70 79 71 64 57 65 63 74 77 83 89 88 65 59 64 65 61 88 84 81 72 68 77 77 77 54 65 61 61 80 77 75 77 80

GFSMA_sfc_rhum_012.txt.gz
RH
72 68 66 63 62 59 59 61 59 59 60 54 52 46 45 49 48 48 60 63 62 54 52 54 58 62 65 69 73 77 80 82 84 83 88 95 87 86 86 84 83 83 85
69 68 66 64 62 60 62 61 59 62 62 57 54 52 47 46 46 49 48 65 64 67 64 60 60 62 64 68 74 78 76 81 82 86 87 89 88 89 89 87 86 86 86
62 65 67 66 64 66 64 63 62 59 61 54 55 54 53 50 52 49 51 51 62 74 73 69 66 67 65 64 66 67 69 72 77 84 85 89 95 91 89 89 87 87 87
53 64 66 68 68 70 68 68 67 65 64 62 62 60 52 48 48 52 51 50 49 44 72 76 74 68 65 62 60 59 60 64 69 71 80 88 91 94 92 90 93 91 89
59 64 65 69 70 68 70 67 62 69 69 66 57 52 58 57 51 34 44 48 52 46 53 72 78 76 74 66 58 55 55 56 62 66 71 74 86 90 95 96 92 90 90
54 60 59 65 67 63 64 67 72 65 67 64 49 48 55 55 51 55 52 43 48 48 47 59 76 74 78 70 59 52 50 52 54 57 60 67 79 86 90 90 94 94 90
52 57 58 58 60 61 66 65 66 66 64 66 64 58 57 56 63 54 48 52 48 45 48 48 61 56 62 74 65 50 46 48 51 55 59 61 71 79 82 90 92 93 94
51 45 56 57 58 64 66 69 73 69 66 66 67 62 63 55 52 53 48 46 44 41 40 43 45 49 54 62 66 59 51 49 51 53 55 61 64 76 73 71 76 85 91
47 49 54 59 63 65 67 68 70 71 71 67 68 70 68 66 59 54 50 48 67 57 70 55 45 43 50 51 58 66 70 66 55 51 53 58 63 65 70 66 63 70 76
53 47 50 60 65 69 69 72 56 74 75 73 72 61 73 77 88 81 67 65 59 67 72 65 54 46 48 57 64 68 75 76 68 57 59 58 58 60 66 67 63 65 73
54 49 53 62 69 65 68 73 73 77 79 83 79 78 74 73 73 91 84 80 71 73 82 92 89 88 80 54 53 70 71 75 71 64 63 68 62 58 62 67 66 65 68
54 57 54 66 68 70 70 76 79 82 85 84 83 85 84 80 78 77 81 82 88 85 81 88 95 96 94 87 67 77 77 76 62 61 64 72 77 66 59 59 64 64 67
60 58 62 67 67 68 66 67 76 76 76 82 83 87 88 86 77 76 83 88 91 80 92 88 88 92 88 97 89 78 74 75 62 60 69 71 80 78 73 64 66 66 62
64 63 64 64 68 74 74 73 75 76 76 79 83 81 90 90 88 91 94 95 94 92 91 92 87 92 92 93 90 70 66 76 68 61 65 72 82 79 80 80 76 71 65
53 62 67 68 73 77 75 74 77 76 76 83 86 89 87 85 88 86 82 88 98 95 81 67 96 90 91 91 91 88 63 68 72 73 69 72 77 74 72 74 76 72 69
61 63 68 71 72 75 77 77 86 83 80 79 76 78 78 73 65 66 71 84 87 88 93 70 55 56 76 62 75 76 64 71 75 70 72 70 70 70 69 65 66 67 62
64 59 61 58 59 65 80 86 84 82 74 72 70 68 66 59 60 58 59 55 59 62 68 53 52 49 52 58 49 61 58 47 62 72 70 71 76 77 74 70 66 63 64
63 58 56 55 56 58 63 70 72 66 66 66 63 63 62 43 56 56 54 56 58 56 60 58 54 53 53 51 51 53 40 31 48 58 74 69 69 76 78 74 71 73 74
56 52 46 48 46 49 47 48 47 54 56 53 52 54 52 56 60 62 62 61 58 47 57 58 58 56 54 54 52 52 52 56 42 52 67 80 79 78 82 80 76 75 74
49 47 47 48 50 43 39 48 48 56 58 53 56 55 53 53 58 62 60 67 56 63 58 59 57 54 54 50 56 54 60 60 59 33 43 51 74 78 78 76 77 79 78
45 46 46 49 50 44 40 61 57 59 60 58 57 51 51 56 61 63 48 59 64 68 68 65 64 61 58 60 64 62 66 69 68 66 68 70 66 68 74 80 69 74 77
47 49 51 52 55 35 70 66 70 71 62 62 63 58 55 59 58 65 66 70 68 66 63 66 65 68 65 63 65 70 82 83 87 78 77 82 74 74 69 68 68 70 75
53 56 56 54 58 61 70 70 72 68 67 64 64 62 56 46 61 57 70 72 73 82 85 76 77 77 74 66 65 70 78 86 89 82 80 94 94 90 85 59 72 78 73
55 56 59 60 64 53 69 71 75 75 72 69 67 62 62 64 65 65 64 74 73 70 71 68 76 81 73 68 73 77 87 82 84 85 80 89 96 90 95 92 76 74 74
57 59 59 67 71 70 71 74 83 83 80 75 65 68 68 66 65 67 76 81 83 77 62 68 86 94 83 78 80 83 88 86 90 89 85 84 90 92 94 93 93 78 77
53 70 75 76 74 77 74 73 79 90 89 80 77 72 69 72 96 85 96 97 97 88 75 78 79 70 66 65 80 91 96 94 83 85 70 79 82 92 93 93 90 91 96

GFSMA_sfc_rhum_018.txt.gz
RH
74 78 75 78 76 78 76 75 74 70 72 70 68 67 62 58 56 57 68 78 77 68 56 50 49 51 55 66 74 78 77 80 81 82 88 86 81 82 81 83 89 87 84
76 76 78 77 79 83 82 80 79 80 79 76 74 72 69 66 60 56 59 67 78 73 68 58 53 52 53 58 70 76 76 79 81 83 86 90 86 88 89 88 88 89 86
75 74 74 69 75 79 77 78 79 78 76 69 71 71 71 69 68 62 59 58 66 79 75 71 68 65 59 57 66 74 75 80 81 81 85 90 90 96 94 90 90 90 88
66 67 62 65 74 71 73 74 76 74 74 76 78 71 75 72 68 66 66 64 62 55 69 76 74 71 71 65 58 62 64 70 74 77 82 89 90 90 92 88 90 90 90
61 63 62 68 69 70 74 74 72 80 78 76 62 66 72 76 76 64 70 68 70 66 60 65 76 76 75 73 66 59 58 62 64 69 74 82 88 90 91 93 92 93 91
60 63 68 69 72 70 73 75 74 74 79 80 61 63 79 78 77 80 78 67 69 70 70 64 68 74 80 75 74 63 58 57 58 61 66 72 80 85 91 93 94 94 95
58 59 65 70 74 77 78 75 79 78 80 83 84 68 78 71 75 74 77 78 73 73 68 70 76 67 71 79 78 66 59 57 55 55 59 69 76 83 90 93 93 92 92
57 53 70 73 77 77 74 76 79 88 89 83 89 93 85 69 84 65 72 75 87 78 67 67 76 75 81 69 74 76 66 59 56 56 62 66 73 80 86 85 88 90 90
60 65 68 73 76 78 84 87 90 90 94 90 89 90 94 96 87 74 65 71 81 78 85 84 73 80 79 95 88 78 81 84 73 65 63 65 70 70 75 78 75 76 80
65 63 69 74 80 88 88 90 82 93 92 95 88 77 77 80 84 85 77 67 79 73 84 92 82 93 94 94 91 93 94 91 85 72 67 64 60 60 66 70 75 70 67
67 68 73 80 85 88 89 94 93 92 95 94 95 95 84 83 80 91 84 81 80 79 86 90 92 96 96 98 96 94 94 94 89 76 65 58 57 60 59 62 67 72 68
78 76 74 83 85 87 88 91 91 89 92 92 93 93 95 95 87 94 86 87 87 87 86 89 94 97 97 98 84 89 93 93 91 84 78 65 64 69 71 71 61 67 69
80 77 80 86 88 87 85 86 87 81 82 80 90 92 95 96 92 95 92 91 92 83 88 90 92 96 89 97 95 82 88 95 94 89 84 78 70 74 76 77 76 64 68
76 74 79 81 83 82 85 88 92 93 91 95 95 95 95 93 96 94 97 98 96 93 94 88 84 91 94 94 93 86 94 92 93 95 87 81 80 76 74 76 81 76 73
65 72 79 80 81 80 84 88 93 92 93 94 94 93 89 87 86 94 92 96 99 98 88 83 91 82 87 92 93 94 95 88 87 90 94 91 89 77 69 74 76 76 77
72 74 70 73 73 73 76 82 89 88 93 92 81 82 78 76 79 76 84 88 95 97 95 76 76 76 61 53 60 79 92 82 86 92 92 95 91 78 70 70 70 73 71
71 64 69 63 59 59 63 69 71 75 72 73 74 73 73 71 73 73 76 75 80 78 74 69 71 63 57 60 57 60 76 90 92 87 92 89 92 87 77 72 69 63 61
64 67 60 53 57 58 61 63 69 70 71 72 73 75 72 53 69 70 71 71 78 74 81 80 74 67 61 58 60 63 46 34 57 65 83 85 86 86 82 82 77 74 70
67 62 55 54 54 59 61 65 67 71 72 72 74 76 75 73 72 71 74 76 71 65 77 76 78 75 72 66 67 66 64 68 52 56 63 76 82 86 86 83 81 80 75
82 67 55 55 60 60 62 63 65 73 74 71 77 78 77 74 74 76 74 79 75 85 82 78 78 76 77 71 74 78 82 84 76 51 65 73 79 81 82 87 87 85 82
82 61 54 59 63 62 57 74 72 75 77 78 77 75 68 66 60 58 62 74 94 97 92 83 79 80 77 77 77 80 85 84 73 78 86 81 80 78 74 77 79 83 84
59 51 59 66 68 53 74 71 75 84 79 78 82 74 73 67 65 64 69 70 69 95 93 93 89 82 80 81 82 83 86 91 91 84 90 88 84 82 78 76 75 74 76
66 64 67 66 75 73 74 76 82 84 88 89 86 82 74 58 70 74 77 74 73 72 80 81 87 94 93 85 84 88 92 93 94 80 91 97 97 91 85 67 77 79 78
65 67 77 81 78 70 80 80 78 93 94 91 86 83 80 75 75 72 83 95 84 85 83 76 82 89 90 85 86 84 87 90 88 87 93 98 97 96 93 93 78 78 77
72 83 82 80 89 89 68 67 89 96 89 87 77 76 71 77 81 85 83 93 93 82 67 67 73 88 82 86 89 92 94 95 95 79 94 97 91 97 97 96 93 78 82
80 80 80 86 74 83 67 62 68 98 96 87 82 72 73 76 84 91 96 97 90 82 83 86 91 82 75 76 71 81 86 89 88 96 87 93 85 95 96 97 93 94 97

GFSMA_sfc_rhum_021.txt.gz
RH
80 82 82 80 80 83 84 81 80 79 77 74 71 73 71 71 68 64 67 70 74 71 65 57 54 53 58 65 72 76 72 74 76 79 85 89 91 87 81 80 85 88 87
83 80 76 72 73 80 79 79 80 77 74 74 68 68 67 71 72 69 67 68 72 72 70 65 60 55 54 60 68 74 75 76 76 78 82 88 91 88 83 81 81 81 88
77 73 68 67 76 74 74 74 72 72 72 68 71 71 71 71 70 71 72 70 71 71 73 69 67 64 63 62 65 70 75 80 78 77 78 86 90 92 90 83 89 80 78
66 67 67 74 76 74 76 74 76 73 74 76 79 75 75 73 72 72 75 78 78 70 71 70 68 67 69 68 64 64 66 72 74 73 76 83 87 91 92 89 91 86 78
66 71 75 78 75 76 80 77 75 80 75 74 73 72 78 78 80 70 74 76 83 78 70 69 71 76 74 71 68 60 56 63 68 66 70 76 82 86 90 90 88 87 85
65 63 69 76 78 76 74 74 76 76 78 83 67 67 76 76 82 80 81 72 77 78 69 68 70 69 74 78 72 69 64 58 59 61 63 67 74 81 85 89 91 86 88
60 69 73 74 78 76 79 78 84 84 87 89 91 76 81 79 74 72 76 85 78 74 71 69 67 69 66 79 80 76 70 64 58 60 65 68 72 80 84 88 89 90 88
61 62 72 75 78 81 84 87 92 94 95 93 96 96 90 76 83 70 72 73 81 79 69 61 75 64 71 84 90 86 82 80 75 64 66 68 72 78 79 84 84 85 87
66 72 75 79 85 89 92 94 94 92 96 94 92 94 97 97 76 79 64 77 83 81 84 76 75 70 84 90 92 94 91 89 81 74 74 70 71 74 74 72 79 80 76
73 71 76 79 89 91 93 95 88 95 95 96 96 84 89 92 91 80 82 67 82 73 85 88 86 84 89 97 92 92 92 92 88 81 71 69 66 70 66 66 70 76 76
73 68 72 77 83 86 89 90 93 93 95 96 96 97 94 93 91 98 88 81 72 81 88 91 92 94 93 96 97 92 90 94 89 84 80 71 62 63 59 60 62 68 73
78 74 78 84 85 86 86 89 90 88 91 93 92 95 91 92 92 94 83 74 75 72 86 90 92 94 94 96 87 83 86 94 92 86 82 82 74 64 65 66 63 62 64
83 75 83 86 87 86 86 89 90 91 92 95 94 97 97 97 91 88 96 95 98 92 90 88 90 92 85 93 92 84 85 93 90 90 88 76 81 79 76 74 75 73 64
78 76 80 86 86 86 88 90 93 94 93 95 93 95 97 96 95 91 93 99 97 94 94 86 78 91 90 91 89 86 94 91 89 87 90 88 82 78 75 74 80 78 76
70 73 79 81 77 82 79 84 93 91 93 94 94 89 85 83 85 92 90 94 98 97 96 88 89 76 80 80 75 77 95 89 86 87 87 89 90 85 82 71 73 78 79
74 72 70 75 73 66 67 73 77 79 86 81 77 78 77 81 83 84 85 86 91 95 91 89 74 75 63 51 56 70 72 77 87 86 86 87 89 90 90 80 78 75 80
72 70 71 74 61 63 63 67 68 75 71 74 76 75 77 76 81 79 80 77 80 87 89 77 80 72 61 59 57 62 60 62 88 89 88 86 88 93 92 90 84 83 76
75 73 69 65 61 61 62 65 68 70 72 73 75 77 77 58 76 79 78 76 79 79 84 82 82 77 68 60 61 65 50 45 70 59 74 85 84 89 92 91 90 88 87
82 80 80 72 63 63 63 66 69 70 72 75 76 78 78 78 80 78 77 79 81 72 80 86 81 80 78 75 71 68 70 75 55 54 59 70 86 84 82 87 86 86 76
86 83 86 67 67 64 63 64 66 72 76 74 77 79 78 78 76 77 71 73 82 85 86 90 89 82 78 75 79 76 80 81 76 51 53 69 73 76 84 82 82 82 84
87 90 75 64 67 62 58 70 72 76 79 81 80 77 75 73 68 64 60 73 82 84 82 96 91 88 84 78 79 78 83 85 82 80 77 83 79 78 78 75 81 85 86
74 82 63 69 69 55 73 74 84 91 83 83 91 82 78 73 71 64 68 70 71 82 86 89 87 88 91 85 82 84 86 91 91 85 90 89 82 78 76 75 74 79 81
90 75 72 74 77 78 78 80 77 88 91 94 87 85 73 59 70 72 75 73 78 79 87 97 95 90 86 82 85 88 93 93 95 86 90 98 98 92 83 64 71 72 76
81 79 84 78 83 79 70 65 82 91 90 86 75 77 78 77 78 74 88 93 78 82 78 78 94 95 85 85 86 80 87 89 90 90 93 93 98 97 96 90 76 75 78
80 87 81 86 84 77 66 63 71 94 88 83 75 74 71 76 81 89 94 95 89 81 70 70 69 70 77 91 90 96 92 94 95 88 97 98 97 97 97 95 92 76 81
82 80 76 83 71 83 68 63 67 97 97 89 83 76 76 75 80 79 94 95 95 80 75 82 87 86 81 79 74 80 91 96 95 96 86 96 86 93 96 97 98 95 96

GFSMA_sfc_rhum_024.txt.gz
RH
86 85 84 80 82 80 82 80 76 71 71 69 67 68 69 73 74 72 75 72 73 69 65 64 63 61 60 65 71 74 74 68 67 70 79 85 90 92 89 88 85 84 82
86 79 73 74 78 78 80 79 75 73 71 70 65 67 70 72 72 72 73 77 74 73 72 72 72 71 70 67 69 72 74 76 74 68 77 83 88 92 93 89 88 86 82
73 70 74 78 79 78 74 73 71 70 68 65 67 71 72 73 72 75 79 80 82 76 73 70 68 71 75 75 72 70 71 77 79 73 77 81 85 89 92 92 90 86 84
70 75 76 79 78 76 76 75 75 74 73 74 78 78 76 75 75 78 77 82 83 69 67 63 63 62 64 68 77 73 71 70 76 78 79 81 83 86 90 92 92 89 86
70 72 71 76 71 75 78 75 74 78 75 79 77 75 77 77 81 65 76 78 79 75 67 63 62 61 61 61 66 74 75 70 67 69 75 78 80 82 86 90 91 90 88
65 65 66 75 77 75 80 82 81 82 82 88 73 71 80 81 82 77 77 70 74 75 72 72 69 65 61 59 64 67 74 76 72 66 68 71 76 79 82 86 88 90 89
65 72 76 78 82 83 86 87 90 91 90 94 91 81 86 81 80 76 76 79 72 72 74 69 64 72 62 69 73 72 74 78 81 77 75 70 70 77 81 84 87 86 87
70 69 77 81 85 83 84 91 92 93 93 95 94 96 90 82 79 62 77 71 79 75 71 64 70 71 70 82 84 80 81 86 82 82 77 73 78 73 75 81 79 82 83
71 72 76 82 86 87 88 94 94 94 97 94 94 93 93 95 84 76 65 77 78 78 81 73 73 72 74 84 89 88 77 86 84 81 79 77 71 73 74 76 76 72 78
72 70 76 78 83 87 90 93 89 95 94 97 94 84 90 91 85 75 76 71 73 73 76 85 82 81 82 90 87 86 85 88 86 80 78 78 75 69 67 71 72 69 71
69 72 76 79 82 86 88 88 91 91 95 95 94 95 95 94 93 90 84 76 65 60 77 84 91 91 85 85 91 91 81 89 88 81 80 78 80 77 66 65 68 64 66
86 77 78 84 85 86 86 89 89 89 92 94 94 94 97 96 97 98 93 82 87 89 79 86 90 90 89 90 74 78 82 91 87 82 80 82 78 79 78 68 65 63 61
89 79 85 87 88 86 86 89 91 91 92 94 94 94 96 96 96 96 85 85 90 82 92 85 89 84 78 88 88 70 82 89 89 83 81 81 83 79 78 76 74 74 69
85 77 81 87 86 85 87 89 92 93 90 93 91 93 96 90 84 90 94 94 91 91 83 90 81 85 84 80 78 64 77 90 90 85 82 81 86 84 82 78 76 78 77
75 75 74 76 76 78 87 84 93 88 85 89 92 88 80 81 84 87 86 88 94 90 71 64 90 79 79 78 74 74 76 68 84 88 85 82 80 83 85 85 80 76 80
78 72 73 77 80 82 75 75 76 76 84 88 80 78 76 81 84 84 84 84 89 87 88 71 64 78 70 58 62 67 68 55 65 80 88 85 81 84 85 87 88 82 77
76 80 80 82 81 68 69 71 71 72 81 76 76 75 77 76 80 79 77 78 76 80 83 72 67 65 72 70 58 61 60 65 71 69 77 90 83 85 86 88 90 88 82
83 84 76 75 75 77 70 66 72 70 74 72 74 76 75 60 76 76 76 75 76 74 82 83 75 73 74 66 65 65 50 40 65 58 64 70 83 84 86 88 92 90 90
85 85 81 81 81 72 68 70 71 70 70 75 77 78 77 78 79 77 73 74 76 67 76 90 84 78 76 72 67 67 64 70 58 53 55 62 72 81 85 83 83 87 92
92 88 86 87 72 66 66 66 66 73 77 76 78 79 81 81 80 78 74 78 67 73 75 77 75 76 83 73 74 69 68 71 65 50 52 62 71 72 81 84 80 81 86
93 82 72 65 69 64 59 71 76 86 88 86 84 81 81 77 71 67 62 69 72 79 83 83 81 75 76 82 81 72 77 71 71 69 66 70 73 70 71 76 83 83 79
80 86 74 75 78 62 78 80 84 92 87 85 86 77 74 68 67 67 69 69 70 85 90 92 82 83 77 72 84 90 88 80 77 72 81 76 74 71 71 68 70 72 81
89 87 80 80 81 88 75 67 75 80 80 80 76 74 69 57 72 72 77 74 76 76 88 87 95 82 88 76 75 76 84 85 81 73 78 84 87 86 76 60 70 70 71
89 84 85 82 85 73 65 64 66 86 87 80 74 75 74 76 76 73 89 87 76 75 76 74 82 82 81 82 92 77 80 80 82 80 81 92 88 89 86 80 74 71 76
88 84 80 83 77 73 65 64 69 85 85 82 73 73 70 73 76 80 89 91 82 76 71 74 73 71 70 72 74 94 95 92 92 77 89 92 90 90 86 85 84 72 75
84 80 74 80 71 80 67 64 69 93 96 89 84 74 75 71 74 77 94 95 94 79 78 83 82 80 78 81 80 80 86 93 93 92 79 91 81 83 86 85 85 86 87

GFSMA_sfc_rhum_027.txt.gz
RH
66 58 56 50 50 48 47 46 44 42 42 40 39 40 38 41 42 37 39 69 75 73 70 69 69 71 71 73 74 73 72 74 70 68 74 80 86 89 90 90 88 87 84
65 54 54 50 48 46 46 44 44 41 40 40 37 42 42 41 43 48 39 43 72 69 68 66 65 64 66 67 72 74 73 71 76 73 74 79 85 88 91 92 90 88 88
59 58 52 50 50 51 52 46 44 41 38 36 39 41 40 45 44 50 48 48 46 59 62 62 60 59 59 58 61 67 73 73 72 75 78 80 83 86 90 92 92 89 87
56 59 66 56 55 58 55 45 44 41 42 44 44 38 41 40 50 51 47 46 43 38 47 60 62 59 59 57 56 58 63 70 72 72 74 79 82 84 87 89 92 90 88
61 60 67 54 54 51 52 49 47 52 46 45 37 38 37 36 50 41 48 49 50 45 42 50 57 54 58 58 58 59 59 60 70 75 73 74 76 80 83 86 89 89 89
54 50 51 56 50 49 52 52 54 46 50 53 39 39 39 44 47 46 44 42 44 48 45 46 43 38 54 58 61 62 63 63 66 70 76 76 80 76 78 81 84 86 84
51 53 48 51 53 52 57 57 51 54 44 55 44 40 38 55 55 46 41 44 44 43 46 45 40 40 38 54 56 68 71 68 70 71 71 76 76 78 81 78 82 84 83
49 48 54 54 56 47 56 60 63 53 51 60 56 46 39 34 45 42 41 40 49 46 41 45 48 49 48 45 51 73 75 72 76 72 72 73 75 76 76 78 79 80 79
50 54 56 55 56 53 53 60 63 65 54 55 67 55 51 46 51 40 42 42 47 44 44 40 45 46 51 51 54 59 68 79 76 73 71 70 72 74 73 73 75 79 75
54 52 54 57 59 55 56 54 54 61 58 52 50 48 55 54 52 50 40 41 43 42 46 47 49 54 54 55 59 64 76 81 83 75 70 72 70 71 78 72 70 75 73
55 55 56 59 58 53 58 57 59 58 54 55 52 52 50 48 50 58 55 43 38 38 44 44 53 56 60 54 53 56 79 84 85 78 72 70 72 74 79 82 69 71 73
56 60 57 60 60 59 60 57 62 65 60 59 54 52 47 50 51 58 53 47 45 44 38 43 48 57 57 56 51 62 62 82 84 80 75 71 72 77 77 81 84 70 68
55 61 62 65 60 62 61 59 63 64 62 54 55 49 54 54 55 49 52 50 61 44 41 38 41 45 37 55 51 62 58 72 80 84 79 76 73 77 79 78 82 85 79
59 62 61 61 62 62 61 63 62 61 64 57 57 54 55 50 55 55 58 67 67 55 44 46 36 39 44 43 51 64 48 68 71 74 82 78 75 74 78 82 80 81 85
59 64 61 59 59 62 62 64 60 60 57 55 56 58 57 52 59 59 60 61 70 77 52 40 41 38 39 44 48 49 52 59 70 66 70 80 78 74 77 81 83 81 80
62 62 60 60 60 64 62 58 53 50 56 53 52 58 52 52 55 53 51 54 55 60 59 38 36 38 39 34 43 45 45 61 62 68 71 73 83 78 77 82 84 84 83
52 58 61 62 62 60 56 62 57 52 54 54 56 55 54 54 52 50 50 48 47 46 52 45 38 39 43 46 44 44 43 48 44 63 73 72 76 87 82 84 85 86 85
58 62 63 60 61 63 61 62 53 52 54 55 52 54 55 47 55 53 51 51 50 49 53 54 44 42 49 47 49 51 46 40 40 48 61 63 61 73 87 86 86 88 87
65 67 65 68 72 72 53 52 54 54 52 54 57 58 58 58 56 50 50 51 52 54 58 58 52 43 42 42 47 49 46 48 39 48 61 64 58 60 73 86 85 82 84
71 72 73 63 65 51 51 52 52 56 60 60 61 59 57 55 53 51 54 58 57 64 60 60 53 50 48 48 69 57 51 45 43 34 44 56 60 56 68 76 87 82 86
71 68 66 60 56 52 48 59 61 60 58 54 52 48 49 55 66 62 55 56 59 61 62 65 60 53 49 45 48 46 57 60 70 52 45 42 42 42 48 64 70 86 84
67 67 69 64 60 54 80 70 65 55 52 48 47 46 45 54 53 65 67 69 68 76 81 65 58 71 49 74 50 54 57 69 66 49 52 49 46 44 46 49 70 73 76
71 67 63 60 62 62 66 64 65 53 50 49 48 48 47 45 58 52 59 67 76 69 74 81 81 65 61 50 53 66 65 67 66 63 57 59 56 60 50 43 67 71 75
68 69 64 61 60 52 64 63 65 52 53 51 49 51 50 53 52 61 78 65 60 50 53 68 79 70 60 57 57 61 82 76 56 49 53 81 62 69 63 59 65 68 71
70 65 61 60 54 51 62 62 62 63 63 59 55 52 53 53 67 75 71 76 61 52 53 60 67 72 74 76 73 72 79 85 78 50 50 68 64 72 65 70 66 65 69
63 59 58 58 63 61 63 63 64 69 80 68 61 52 59 65 76 71 71 76 80 65 58 58 57 57 63 68 79 72 62 69 66 74 52 67 52 53 64 60 61 66 65

GFSMA_sfc_rhum_030.txt.gz
RH
53 44 44 37 37 34 34 35 34 32 33 32 32 33 31 32 32 26 26 74 69 66 64 62 62 62 62 62 65 70 74 73 72 72 74 76 81 85 85 87 89 88 87
54 45 42 36 36 35 35 35 36 34 32 33 32 34 36 33 33 34 26 29 66 61 62 62 61 60 59 58 58 59 63 70 73 73 73 79 80 84 87 88 89 89 88
52 46 41 41 45 44 46 39 37 34 33 31 33 30 29 30 29 34 31 29 33 64 56 59 61 59 58 58 56 56 57 59 64 72 74 76 80 82 85 88 89 88 86
50 53 48 49 46 40 37 38 38 38 34 33 32 26 26 24 26 34 31 36 32 28 44 54 52 54 51 55 56 56 56 57 57 63 73 79 79 79 82 85 87 88 86
58 48 42 44 43 39 43 40 36 36 33 32 30 24 25 24 22 23 34 38 37 35 32 46 52 53 47 49 54 56 56 58 59 60 65 68 76 80 82 80 83 87 85
45 42 42 47 41 38 36 38 41 35 33 32 28 24 28 26 25 32 34 27 31 37 34 36 33 31 52 47 51 52 61 62 62 61 64 66 67 75 78 82 80 82 85
41 43 38 40 38 39 43 43 39 39 34 37 41 29 27 28 40 35 30 30 32 30 36 32 32 30 31 48 47 52 63 64 66 64 65 65 68 68 73 77 81 79 82
40 41 43 38 39 35 42 44 45 40 34 35 46 43 32 27 24 32 30 31 35 34 32 33 35 36 36 34 42 56 57 68 69 67 66 64 65 66 68 72 75 80 77
39 43 42 38 39 38 36 45 44 44 42 37 41 45 45 38 36 30 32 29 37 32 33 32 35 35 38 38 43 46 60 69 72 69 66 64 63 63 65 71 75 75 78
41 36 37 42 45 42 46 42 35 46 43 43 36 32 42 42 44 43 33 32 30 29 34 31 33 33 35 40 52 60 68 74 80 72 67 64 64 63 67 73 76 79 75
41 39 41 45 48 44 45 48 47 49 42 42 40 39 40 35 35 38 39 32 26 25 26 30 30 32 34 38 39 48 60 65 62 73 70 67 66 66 69 71 75 82 79
34 38 43 49 49 48 49 47 48 49 48 45 40 41 40 38 37 37 35 33 31 28 27 28 31 30 30 31 34 59 64 70 62 56 65 70 70 68 69 74 73 82 86
35 37 43 50 48 48 51 49 48 52 48 47 45 41 39 39 36 36 37 36 40 31 30 29 28 28 25 31 32 51 55 64 65 59 54 64 71 70 69 70 77 77 80
35 43 48 46 45 46 46 47 49 51 53 52 50 45 38 38 35 38 41 50 53 42 35 37 27 27 27 27 38 55 37 62 66 67 59 55 63 69 71 69 71 79 79
33 36 41 42 42 43 45 50 50 53 52 52 51 48 44 40 42 42 40 42 60 73 48 35 32 30 28 30 35 36 38 48 59 67 67 58 57 61 70 67 70 74 77
34 35 36 36 40 43 45 53 52 48 54 51 40 44 44 42 41 37 35 37 39 45 51 33 30 32 32 26 34 36 37 52 54 59 71 64 64 65 74 74 72 76 80
36 36 39 42 42 43 46 49 53 52 47 48 45 47 47 44 40 38 38 38 38 38 43 39 33 34 37 38 35 40 40 40 36 56 71 68 69 66 68 80 81 80 82
40 41 45 45 44 46 51 58 54 44 48 47 45 45 45 34 43 41 37 39 38 40 46 49 41 42 41 40 39 40 32 28 34 42 60 61 62 65 67 74 84 85 86
42 46 45 52 55 54 54 46 45 50 48 46 48 49 47 46 44 39 40 40 40 42 50 54 52 44 41 38 41 42 52 53 34 48 61 63 65 60 58 66 73 82 86
47 46 47 51 53 46 46 44 44 46 48 45 47 46 44 42 42 44 43 43 42 47 48 50 48 47 46 44 42 40 42 45 49 35 45 49 57 55 57 64 76 77 86
48 46 50 55 56 49 40 51 47 47 45 44 42 37 38 46 56 56 48 50 52 55 57 56 55 50 46 43 53 42 47 40 38 41 51 49 44 38 38 65 62 75 82
46 47 52 50 52 40 75 65 62 44 43 39 38 36 37 44 46 57 62 62 60 65 77 68 64 62 55 45 48 61 51 62 59 47 65 64 46 48 37 34 70 68 72
50 52 53 53 53 53 63 61 63 43 41 40 40 39 37 33 46 43 54 61 71 67 84 71 69 61 66 58 54 56 49 53 61 53 55 61 53 58 46 33 64 64 68
49 52 52 52 53 48 62 61 63 46 46 45 44 43 43 41 42 57 61 63 52 47 44 45 56 56 54 55 65 66 61 57 52 44 49 66 57 62 54 54 63 63 67
48 51 50 52 53 48 62 60 61 53 53 52 45 44 44 42 56 69 63 62 49 43 46 54 58 61 64 66 70 68 70 68 76 55 55 53 57 63 64 64 62 68 70
45 45 49 53 60 54 64 61 60 62 77 61 50 45 50 51 65 65 70 69 73 58 49 51 53 49 52 50 68 66 64 72 64 62 42 72 51 54 67 55 53 58 61

GFSMA_sfc_rhum_033.txt.gz
RH
63 46 43 36 38 35 34 37 36 38 40 35 34 34 34 35 34 29 29 70 65 60 58 59 60 60 59 59 59 60 61 64 68 72 73 75 81 81 83 86 87 88 88
72 47 46 38 36 41 40 39 42 37 35 34 34 34 33 29 28 31 27 30 67 61 57 56 58 59 58 59 58 58 59 59 60 62 70 77 78 82 83 85 86 88 88
69 63 58 63 51 50 46 40 40 37 36 31 32 29 27 26 24 24 28 29 35 66 58 54 51 52 51 51 53 56 57 57 59 59 62 67 75 79 83 83 84 86 86
75 72 74 60 47 44 42 44 39 36 34 33 32 29 24 22 25 26 21 28 30 27 45 51 46 46 46 47 49 52 54 55 58 60 61 64 66 71 77 82 85 83 85
57 53 46 45 45 40 42 40 39 39 36 32 25 25 29 23 26 20 24 31 34 30 30 42 55 55 43 44 47 52 52 58 60 59 59 61 64 66 68 74 79 83 83
45 42 43 48 43 38 39 42 45 36 33 30 23 29 32 27 25 30 30 28 29 32 31 34 33 32 55 43 45 47 53 59 58 60 60 61 62 64 67 68 72 78 82
41 43 38 41 42 37 43 44 40 40 35 34 34 32 32 35 32 28 27 30 30 29 33 32 31 30 31 50 42 46 52 55 61 62 62 60 60 60 63 65 66 71 76
39 38 44 39 39 38 39 39 45 42 37 36 40 37 40 32 26 29 29 29 34 28 29 29 33 33 34 32 41 48 65 67 66 64 62 60 60 59 60 61 63 64 72
37 38 39 40 39 36 34 41 42 44 42 39 39 39 42 41 36 30 33 27 37 29 29 27 28 29 32 32 38 46 62 60 58 65 64 61 60 59 59 60 62 64 70
38 35 34 38 41 40 43 41 34 44 44 43 37 30 37 37 40 40 29 30 28 27 34 27 27 28 29 31 41 56 59 59 55 54 60 63 64 61 60 60 64 65 68
39 34 35 40 43 40 42 45 47 46 41 42 40 37 37 34 36 39 45 36 28 23 24 27 28 30 28 28 30 40 60 63 60 57 56 56 61 63 61 61 65 70 68
28 31 31 37 41 41 43 43 45 47 46 50 48 46 43 42 44 48 47 41 36 31 28 30 33 31 31 30 31 51 54 66 60 54 52 55 55 55 58 62 62 63 68
30 32 36 41 38 40 40 41 52 54 50 54 59 55 42 47 44 41 44 46 48 37 36 33 33 32 25 34 32 51 47 57 61 59 52 55 55 55 55 54 60 61 65
32 36 36 36 38 38 38 41 48 53 54 58 61 54 46 53 48 45 45 61 61 47 38 40 33 34 32 31 39 52 33 55 55 60 58 56 58 56 54 54 55 58 61
27 30 34 34 34 35 37 40 45 54 54 57 59 54 56 50 49 47 47 42 60 73 51 38 36 33 33 35 38 41 42 47 56 60 59 57 53 58 55 54 55 60 62
32 34 35 34 37 38 38 40 42 49 55 63 55 52 50 51 50 50 40 40 37 46 50 34 32 35 36 29 36 42 41 53 54 61 63 62 64 61 59 60 63 65 66
34 33 34 37 38 37 37 46 49 54 52 51 47 52 55 51 50 47 40 38 38 37 41 38 34 37 42 43 41 40 40 42 40 52 57 62 65 69 65 63 65 66 70
35 34 36 37 37 40 48 53 51 46 50 51 52 52 49 38 41 39 37 38 38 37 39 43 42 44 46 44 45 44 35 29 38 46 58 60 67 71 71 69 67 69 75
35 36 38 39 41 44 47 48 47 49 50 50 49 49 40 40 42 39 40 41 40 33 41 52 54 49 45 42 42 42 41 42 33 46 56 61 71 70 68 69 65 64 74
38 39 40 40 44 42 42 44 45 45 49 45 40 40 40 40 40 46 43 45 41 44 46 51 52 47 47 48 52 47 54 48 45 28 40 50 66 68 71 68 69 66 71
39 40 39 42 48 48 40 50 46 45 41 39 39 35 36 42 48 51 46 48 50 54 56 57 57 64 62 54 55 49 51 50 53 47 53 47 51 63 55 65 60 67 66
38 40 41 44 46 40 76 65 60 47 43 38 39 38 37 46 47 54 57 58 60 61 71 76 61 68 57 50 63 70 69 66 58 49 64 88 66 84 55 49 69 68 66
42 43 44 46 53 51 67 62 61 47 44 42 42 42 38 30 47 42 53 57 58 63 69 67 72 72 75 61 57 62 60 70 68 52 57 66 69 76 58 44 64 67 64
44 44 47 49 54 49 68 62 62 51 45 45 45 44 42 42 46 57 55 54 46 42 40 37 51 53 51 50 53 54 60 60 56 50 50 74 69 67 62 53 61 67 67
45 45 43 51 51 54 68 63 60 52 51 50 46 43 44 44 56 64 58 62 52 46 43 54 52 58 64 68 66 68 80 72 80 57 56 68 74 73 69 70 67 68 72
42 40 42 46 57 52 68 64 60 61 68 60 50 45 58 51 60 62 68 68 71 53 45 46 53 53 53 56 71 67 73 89 77 77 49 66 69 66 71 67 66 69 77

GFSMA_sfc_rhum_036.txt.gz
RH
84 73 68 65 63 62 62 60 60 55 57 51 52 51 46 46 42 46 54 71 68 55 54 55 56 57 56 58 58 60 60 60 61 61 62 68 78 82 84 86 86 86 87
83 77 70 69 66 64 63 59 61 63 58 54 46 46 47 44 38 43 43 58 70 63 57 55 52 50 49 49 50 53 56 57 58 60 61 62 66 73 79 84 88 87 86
79 78 76 76 69 65 65 63 61 58 55 47 48 45 46 37 38 43 40 38 68 70 62 49 44 45 45 47 47 50 54 54 57 59 59 62 64 67 68 72 80 84 86
76 80 76 74 68 69 64 66 63 60 58 56 53 48 48 40 36 41 38 45 49 44 64 55 50 44 45 44 45 47 50 52 56 58 56 59 61 63 66 68 69 76 81
70 71 70 72 69 66 65 61 65 65 58 53 39 40 52 49 45 32 41 43 46 47 49 50 60 55 47 44 45 47 48 52 53 56 63 58 57 59 62 64 67 68 72
63 65 68 69 66 62 65 67 68 62 61 59 37 41 50 54 44 48 46 44 41 42 47 49 50 49 54 45 46 46 55 55 55 59 57 59 58 58 58 60 62 64 66
55 58 64 62 60 64 63 60 62 64 65 62 59 54 55 48 44 48 46 47 42 38 48 50 46 48 45 44 44 46 52 60 59 60 58 57 57 57 56 57 60 61 61
54 56 60 60 61 61 60 63 65 69 65 65 66 64 62 53 50 41 51 45 52 46 40 36 43 43 47 48 44 43 51 59 57 56 56 57 58 64 58 56 56 60 60
51 51 54 56 60 61 64 67 66 65 68 65 64 66 64 65 53 53 48 50 54 53 52 44 36 40 42 47 43 47 52 56 52 52 53 53 54 59 64 63 58 57 61
52 47 48 53 60 64 66 68 53 69 67 70 65 50 62 63 62 58 51 51 51 40 47 52 46 43 42 46 46 55 62 61 51 50 52 53 53 53 57 65 64 56 61
58 52 52 57 61 65 67 69 70 71 69 72 68 70 68 65 59 67 65 59 50 47 47 49 54 52 44 47 51 52 64 65 63 56 52 52 52 53 54 57 58 59 56
51 52 51 62 63 64 66 68 67 67 71 74 73 76 74 72 69 66 70 66 62 54 53 51 53 52 53 52 40 55 59 61 58 44 45 48 51 52 53 56 57 55 57
53 58 58 59 60 59 61 64 67 71 73 75 78 83 80 72 62 63 70 69 73 59 57 57 54 53 39 51 52 57 54 62 62 53 46 47 51 53 57 57 58 58 56
55 52 51 54 54 55 58 61 68 70 71 77 76 82 81 73 68 67 72 82 81 69 60 59 54 52 52 44 53 57 52 61 64 61 58 52 50 50 50 54 57 56 56
39 52 54 54 54 56 60 62 65 68 71 78 82 83 80 75 77 74 74 71 81 83 69 54 52 47 56 52 53 51 53 55 60 62 60 59 54 53 53 53 53 56 54
46 50 53 52 54 57 58 62 68 67 75 82 74 76 74 73 74 75 71 72 63 62 64 49 46 49 53 39 46 50 50 51 56 59 61 59 61 60 56 59 56 59 56
47 48 48 51 52 54 60 66 69 67 67 69 68 69 71 68 70 72 68 62 59 58 59 52 45 50 53 59 52 53 51 48 47 56 60 59 64 64 65 69 67 63 58
49 48 49 49 51 53 58 60 68 63 64 66 66 68 66 46 61 60 62 62 60 55 56 58 54 56 61 57 55 57 45 37 44 47 56 61 61 63 72 77 75 71 67
49 50 48 54 54 56 55 57 60 62 63 63 65 65 62 57 61 64 66 61 60 49 60 63 62 60 60 57 58 60 57 59 45 50 51 57 62 62 72 72 71 72 70
50 51 53 54 57 55 54 54 53 60 63 57 59 56 55 56 61 61 55 64 55 63 63 67 66 64 61 63 68 64 67 64 61 42 50 56 66 68 67 76 80 74 70
50 52 54 57 56 54 48 62 58 61 63 60 59 50 50 54 53 58 52 65 70 75 71 70 72 74 69 64 64 72 82 81 68 68 67 70 74 74 73 84 80 73 72
51 53 55 57 58 44 77 70 64 64 61 60 62 58 55 56 57 64 62 59 63 80 80 84 82 79 74 77 85 78 76 76 76 70 76 75 79 78 75 87 98 95 72
57 59 61 60 61 68 76 68 64 60 66 68 63 63 54 37 69 65 60 60 60 60 70 75 78 84 92 74 69 71 73 76 77 67 69 72 79 87 75 50 84 72 76
59 62 63 63 64 62 78 70 65 65 69 66 65 63 63 61 75 67 72 68 63 59 55 47 67 66 64 66 71 70 77 77 75 71 67 83 89 89 85 82 70 73 76
60 62 57 62 67 76 79 74 66 71 74 73 64 64 60 61 67 62 71 77 71 63 51 54 55 57 61 69 69 77 94 93 91 79 72 85 86 89 82 87 90 72 71
55 57 59 65 69 80 78 71 68 90 87 88 77 66 66 64 60 61 84 88 86 74 66 61 65 67 66 67 73 73 88 90 91 91 78 90 83 92 96 99 98 96 94

GFSMA_sfc_rhum_039.txt.gz
RH
87 79 80 76 71 67 64 63 64 65 62 55 50 48 49 46 39 43 74 74 70 58 54 54 51 49 48 51 50 53 56 57 58 61 62 64 65 69 70 73 78 83 85
84 80 77 73 68 65 68 68 67 63 60 55 51 49 48 43 40 41 48 71 74 65 57 50 46 45 46 47 47 49 51 53 55 57 58 59 62 65 68 67 70 72 78
85 82 81 72 70 70 68 68 64 63 63 54 53 47 50 45 45 45 46 48 78 72 65 48 45 45 45 45 45 46 48 48 52 53 56 58 59 60 62 65 66 68 70
79 80 79 74 72 76 74 71 70 66 62 60 56 52 57 49 49 46 43 47 68 64 71 63 46 46 46 43 47 47 46 49 47 52 65 63 59 58 59 61 63 64 67
74 74 78 77 74 74 74 66 70 67 64 64 48 52 57 58 53 45 42 50 51 53 54 58 57 52 44 43 44 45 45 46 57 58 59 59 59 56 56 57 59 61 63
70 77 77 70 70 72 72 70 68 68 66 69 44 49 60 56 58 59 53 42 48 48 52 47 54 49 52 41 42 42 42 48 56 54 52 55 55 52 60 60 56 57 60
64 75 78 74 69 69 66 67 69 66 69 73 66 68 61 59 47 56 55 53 54 46 45 43 47 52 52 42 38 39 40 46 48 48 50 51 53 54 55 61 60 58 57
66 62 66 67 64 64 68 68 69 74 72 70 68 76 73 62 61 48 59 51 58 54 47 40 40 44 54 51 46 35 36 42 42 45 45 48 50 50 51 53 64 62 58
59 60 61 62 62 66 66 69 69 71 72 71 70 68 76 78 72 60 49 55 59 58 55 53 47 45 45 49 48 49 53 47 45 45 43 45 46 48 49 49 58 65 63
56 53 57 61 66 70 68 73 64 74 75 75 75 59 70 74 77 75 64 58 57 50 57 59 56 50 51 56 53 56 66 67 51 48 46 46 47 47 48 48 52 60 59
60 57 64 69 68 73 74 75 76 81 80 79 77 78 79 77 73 76 83 72 64 59 61 62 60 64 51 54 57 51 62 64 63 50 44 43 45 46 47 48 51 55 63
67 62 59 64 66 65 66 70 71 74 76 79 81 84 83 83 81 84 87 79 76 70 63 62 63 61 61 60 46 59 65 65 62 48 45 46 47 48 49 49 49 57 57
61 60 53 59 62 63 64 66 70 74 80 83 82 85 87 83 80 79 77 85 84 78 73 66 65 64 51 58 62 56 56 63 61 51 49 49 49 50 50 50 50 52 52
56 51 56 56 57 58 62 64 70 72 76 88 80 79 85 86 75 76 86 89 96 89 78 70 65 69 62 63 57 56 59 66 64 62 54 51 50 50 50 50 50 50 52
46 54 54 52 54 58 60 62 76 78 81 84 85 83 85 85 83 79 78 77 88 98 87 71 70 58 62 61 58 60 63 57 63 64 60 56 50 48 50 50 51 52 55
49 52 51 53 55 58 63 71 75 75 79 84 80 80 80 78 76 74 76 77 76 77 84 65 62 60 60 46 50 58 61 53 59 63 63 64 61 52 51 53 55 54 54
48 51 49 52 53 58 62 66 70 69 74 75 74 75 72 68 71 77 72 72 73 72 74 68 63 65 65 67 57 60 61 57 57 59 61 62 63 63 64 62 63 61 61
51 48 51 52 56 60 58 63 68 68 68 71 71 70 70 55 63 68 74 68 69 70 74 71 70 66 70 69 64 68 53 48 54 55 62 63 61 62 65 68 67 71 70
54 50 51 57 60 61 58 61 60 67 68 67 70 70 67 58 67 72 67 68 70 55 74 79 72 68 69 69 67 69 70 66 55 55 58 61 62 64 66 70 70 71 73
53 51 55 59 65 61 56 58 58 69 67 63 64 64 61 62 60 60 58 63 61 73 76 81 74 70 70 69 78 73 79 75 74 55 57 62 67 64 60 67 72 74 76
50 53 57 62 64 61 54 67 61 65 64 64 66 59 58 61 62 59 56 69 76 81 85 84 78 78 77 75 77 92 80 70 66 67 72 74 68 70 72 72 73 80 84
55 57 58 61 64 50 78 72 67 66 62 64 68 68 62 59 66 65 59 58 65 80 88 94 82 83 74 84 91 86 78 81 82 75 87 78 76 75 72 77 74 83 100
56 59 61 65 67 72 80 75 70 63 64 68 73 71 62 54 69 64 61 61 62 58 75 84 83 80 78 74 78 78 80 85 86 75 81 87 81 86 76 58 70 76 88
60 66 66 65 68 73 82 78 73 68 69 74 74 71 71 72 72 69 73 73 71 71 66 58 74 70 71 71 79 77 81 86 84 80 77 96 84 89 82 85 76 71 76
63 66 64 64 70 78 84 80 71 71 74 76 74 72 73 72 66 61 72 77 78 72 57 59 60 66 68 68 70 86 95 91 91 82 86 90 95 94 96 97 94 75 82
60 64 64 71 71 85 84 79 73 90 87 89 82 76 66 70 63 63 88 89 92 74 73 71 70 71 73 77 76 82 91 95 94 90 74 97 91 96 96 98 97 91 92

GFSMA_sfc_rhum_042.txt.gz
RH
90 87 84 76 72 69 69 71 65 61 61 53 52 50 51 46 44 50 64 71 69 56 54 50 47 45 51 49 50 51 51 53 55 56 56 58 61 63 62 64 66 68 72
88 76 75 71 70 73 73 68 65 64 63 56 52 51 51 49 48 50 53 56 74 67 54 47 44 44 46 45 47 47 47 48 49 52 60 63 60 60 60 62 64 65 66
84 80 77 74 76 74 69 68 67 63 60 51 51 52 54 52 54 51 53 56 86 75 64 48 45 45 45 44 47 46 45 48 50 63 62 61 59 58 58 59 60 62 63
80 80 77 76 80 80 75 73 69 64 63 62 60 58 56 56 53 50 50 54 72 72 72 52 49 43 42 42 43 43 44 44 47 47 55 56 60 58 56 57 60 59 60
77 77 78 81 79 76 76 68 73 66 66 66 52 57 60 59 59 46 47 51 53 57 56 52 49 48 38 37 38 39 40 41 44 50 50 53 54 56 55 52 60 60 59
75 81 78 78 78 77 75 76 69 71 70 70 45 53 64 61 62 60 56 48 52 50 52 49 57 56 51 41 38 37 39 41 43 45 45 42 52 49 51 53 51 59 61
77 80 81 76 73 69 71 71 70 67 72 74 67 73 71 63 59 59 57 58 52 48 51 50 54 56 52 40 36 38 38 38 41 41 42 43 45 47 48 49 50 50 59
73 69 73 69 67 70 69 69 69 76 77 75 70 79 75 70 66 54 58 56 58 54 52 46 48 47 53 54 56 50 46 39 38 38 40 41 42 44 46 47 47 49 52
67 67 68 70 68 69 70 71 72 74 74 76 77 70 78 79 80 66 56 61 61 60 61 54 49 47 50 53 55 58 54 54 47 42 41 42 42 44 46 47 46 47 49
65 62 64 68 72 76 74 79 73 80 82 82 81 66 74 75 81 88 68 62 62 53 62 65 61 55 54 56 54 53 61 57 47 43 42 45 44 44 45 46 46 47 55
67 66 70 74 75 77 74 66 66 76 85 83 82 81 83 84 81 83 92 75 71 66 66 67 65 65 58 59 63 55 67 62 53 45 44 45 45 46 47 47 47 47 48
71 67 62 66 66 66 66 71 74 73 80 86 87 89 87 86 85 87 93 94 85 75 68 67 66 69 67 68 54 58 61 62 52 48 48 48 49 49 49 50 50 50 50
67 61 60 61 61 60 63 64 66 70 76 87 89 91 91 88 78 81 90 96 98 85 78 74 69 67 59 72 67 55 54 66 56 52 51 51 51 51 51 51 51 51 51
62 58 59 56 56 60 62 68 72 80 86 88 82 86 90 90 91 86 88 98 96 96 88 77 74 73 66 68 60 53 64 58 54 54 53 52 52 51 51 51 51 51 51
54 59 55 56 56 57 64 72 78 80 83 86 89 90 92 91 89 85 80 86 100 99 94 85 69 62 67 65 62 64 64 56 54 56 55 54 54 53 52 51 52 53 54
57 55 52 52 52 57 70 71 74 73 76 85 82 80 81 82 75 74 80 82 80 81 89 73 70 69 65 51 54 59 64 55 59 59 63 57 58 56 55 55 55 54 53
55 56 58 52 52 60 66 67 71 72 74 75 75 75 73 72 79 75 74 73 71 70 73 72 70 72 73 72 64 67 66 65 66 59 59 60 62 63 60 58 57 56 58
58 60 56 54 56 62 63 64 70 70 70 72 72 71 72 56 62 70 71 67 68 70 74 74 76 74 72 70 71 75 62 53 63 60 58 58 57 58 64 67 68 64 65
59 56 55 55 59 66 63 66 67 69 72 70 70 63 64 62 63 71 66 67 70 57 74 79 77 76 76 74 72 73 76 73 64 55 52 54 54 57 64 62 61 62 65
59 55 56 60 65 67 64 63 60 71 72 63 64 62 62 62 61 61 60 65 64 73 78 82 77 75 76 72 80 80 80 75 65 49 56 59 60 63 61 62 63 62 64
56 57 60 61 65 66 60 67 66 71 68 66 66 60 62 62 62 66 61 71 76 81 84 83 80 81 78 75 81 84 92 71 69 69 71 72 81 71 74 72 68 66 66
57 56 55 65 66 59 70 77 74 71 64 65 65 66 67 63 65 68 63 66 70 80 83 93 88 85 77 85 87 85 82 85 86 79 86 86 83 80 78 82 73 70 71
53 56 66 67 70 71 77 81 77 68 66 68 68 71 66 56 71 66 62 60 62 60 76 90 90 85 84 72 73 82 84 90 91 81 85 86 83 90 79 67 71 71 72
63 66 68 71 73 68 83 82 79 69 71 69 73 73 74 73 74 69 72 71 70 68 67 61 78 79 74 76 79 86 94 94 91 82 88 93 82 89 86 88 76 74 80
67 70 70 74 75 75 85 85 80 73 72 74 71 74 75 76 72 68 73 77 75 71 52 58 61 65 65 67 72 83 92 95 90 81 78 91 91 92 88 88 88 76 76
70 68 68 73 77 79 86 86 80 83 83 85 83 79 72 70 73 68 87 88 90 71 68 74 73 70 72 75 75 84 92 96 93 90 80 94 84 93 98 96 99 94 92

GFSMA_sfc_rhum_048.txt.gz
RH
82 84 86 76 77 75 70 69 64 56 56 57 56 55 56 58 57 62 67 66 70 56 55 47 46 51 49 50 48 48 50 49 51 54 54 55 56 57 56 58 59 60 62
90 86 83 78 78 73 71 66 54 58 58 57 57 57 59 56 55 63 74 90 78 69 54 48 45 47 46 47 47 46 46 47 48 47 49 53 53 53 55 54 56 58 58
91 82 82 83 82 74 69 64 57 62 60 54 56 57 60 56 56 58 68 81 80 72 61 50 49 46 42 44 42 42 43 44 44 45 46 47 47 46 50 50 53 55 55
89 81 83 81 79 75 72 68 67 67 66 60 58 62 63 61 56 56 54 65 75 60 63 53 47 39 34 36 38 39 40 42 43 43 46 48 46 46 46 47 50 52 52
79 77 74 79 78 78 77 69 72 68 67 64 57 64 66 64 60 47 52 53 58 58 52 54 57 47 41 38 37 37 39 40 41 42 42 42 42 44 46 46 48 50 50
78 82 87 85 80 80 78 73 72 76 72 68 49 60 73 66 64 62 57 46 52 57 54 58 62 57 44 38 40 40 41 43 44 42 42 42 42 42 44 43 44 47 48
80 83 86 82 81 79 78 71 74 73 77 77 70 74 72 71 66 64 62 59 55 54 56 57 57 53 50 48 47 43 43 43 43 42 42 42 42 43 44 44 45 45 45
82 80 82 81 76 77 77 74 74 81 81 79 77 79 78 71 67 65 65 60 62 58 53 51 53 53 55 53 58 48 45 42 42 42 42 42 43 44 45 45 45 45 46
82 79 79 78 77 77 77 77 77 75 78 81 80 77 80 79 78 73 67 65 64 64 62 58 56 55 58 58 58 62 60 55 46 45 43 42 43 44 45 46 46 46 46
82 79 76 76 78 82 82 82 79 83 79 77 83 74 75 73 80 85 76 68 66 64 68 66 64 63 62 64 62 64 62 63 57 47 46 46 46 46 46 47 47 48 48
79 75 78 82 84 82 75 72 73 79 81 83 79 78 84 88 85 87 91 82 74 70 71 75 72 69 66 66 69 67 60 61 57 54 54 54 53 51 50 50 50 50 50
85 82 79 76 74 71 71 68 73 70 71 77 79 89 88 87 87 93 95 92 90 84 75 74 74 71 66 66 51 57 57 62 58 57 57 58 58 58 56 54 53 53 52
84 78 70 70 69 69 83 79 66 66 69 78 84 90 93 91 87 86 91 94 94 81 76 77 73 65 52 65 64 54 54 58 57 59 58 58 56 56 56 56 55 55 54
72 67 78 73 85 78 68 72 71 78 83 84 86 90 88 91 92 91 91 92 83 80 84 79 74 63 62 63 58 54 60 60 59 57 58 58 59 58 57 57 56 56 55
69 74 91 86 70 67 75 68 74 77 83 86 86 87 90 91 93 93 90 89 93 89 89 80 79 64 62 62 60 63 63 63 61 60 61 60 60 58 58 58 59 58 57
75 87 84 70 71 77 68 71 76 77 82 86 86 87 89 88 86 87 87 93 89 91 96 79 69 62 60 51 59 61 63 63 64 65 63 61 61 60 60 58 58 58 58
84 82 68 75 76 68 68 76 80 75 81 82 83 85 83 82 85 86 83 78 84 84 77 63 64 63 63 62 62 65 68 67 69 66 64 63 60 58 58 58 59 59 59
70 73 85 74 65 61 71 78 73 72 80 81 81 81 82 69 81 77 74 72 70 68 67 66 65 66 68 66 67 68 60 55 63 64 66 60 58 61 62 64 64 61 61
77 71 69 65 63 68 69 75 75 75 79 79 79 82 80 81 82 74 74 74 70 59 69 73 70 72 72 69 64 67 69 67 62 60 58 60 62 66 66 66 68 66 63
70 72 69 64 69 76 70 74 72 78 81 80 83 84 80 73 72 68 68 72 67 68 70 74 77 72 69 65 74 76 73 60 61 54 61 65 66 68 68 68 70 70 71
66 63 71 86 80 71 64 75 75 79 81 83 86 79 75 71 67 69 62 65 67 71 75 79 76 71 65 68 64 72 73 70 70 68 66 66 66 66 68 70 71 73 74
69 86 90 90 84 68 73 79 82 85 83 85 84 79 73 68 75 76 77 71 65 77 82 81 75 73 68 69 80 82 81 83 74 69 80 78 69 70 66 72 71 72 72
94 94 93 86 78 77 78 80 84 90 88 84 81 77 70 60 71 72 72 80 76 73 82 79 83 76 80 74 73 79 78 84 83 72 77 80 70 78 66 60 70 74 76
96 95 85 80 80 75 81 84 85 88 90 86 82 77 73 72 73 73 73 81 72 66 68 68 73 70 72 72 75 76 85 85 75 69 70 89 73 82 70 68 72 76 77
90 84 80 82 84 82 81 82 86 92 92 85 76 75 72 80 75 75 80 79 71 66 62 67 64 66 68 66 66 79 83 86 90 69 65 82 82 80 76 80 80 74 68
83 83 81 81 82 85 81 82 86 96 95 89 83 77 78 78 79 85 90 88 89 74 71 60 60 65 66 67 72 74 80 90 88 84 69 84 75 82 85 83 81 78 81

GFSMA_sfc_rhum_051.txt.gz
RH
74 69 64 60 57 51 47 44 42 38 41 40 38 37 37 40 42 36 36 78 72 55 54 46 55 48 49 48 47 46 46 48 49 48 48 52 50 51 51 52 55 57 57
74 66 63 60 53 49 44 41 39 37 36 36 40 40 38 36 42 51 48 51 77 69 54 48 46 46 45 46 44 44 45 45 45 46 46 48 48 47 49 50 52 53 55
78 73 61 57 52 52 51 46 46 42 37 34 40 39 35 38 37 50 50 46 48 70 63 52 50 43 42 42 39 39 41 42 44 45 44 49 48 45 47 46 49 51 52
78 76 62 59 62 66 56 56 44 42 40 37 39 38 37 34 39 41 50 47 40 38 48 48 44 38 34 35 36 37 38 41 42 42 43 43 42 43 44 46 46 48 49
78 72 64 64 70 63 59 48 48 45 43 40 35 40 40 35 36 28 35 39 40 35 30 51 54 45 40 37 37 36 38 42 43 44 44 43 43 43 42 43 43 44 46
71 65 64 66 62 54 54 51 52 50 45 43 32 39 45 39 36 37 34 29 35 37 33 35 33 35 49 44 42 40 39 44 45 45 44 43 44 44 44 44 44 44 45
62 65 61 62 59 55 55 58 54 55 50 51 45 45 46 49 46 38 37 34 38 35 38 35 32 29 29 42 41 43 45 46 45 45 43 44 44 44 44 45 46 46 46
62 64 65 61 60 56 60 58 56 53 52 53 50 50 45 43 43 43 41 39 47 34 33 35 36 36 34 31 40 50 49 50 48 48 45 45 45 44 45 46 46 46 46
66 63 66 62 62 57 55 58 57 56 53 56 60 57 45 39 44 44 50 43 48 40 38 41 40 39 42 39 43 44 54 59 56 52 48 46 46 46 47 47 48 48 47
74 69 61 62 61 56 59 58 56 59 61 50 57 56 58 51 40 38 45 47 46 44 48 45 43 46 46 42 48 57 62 63 61 56 54 52 52 52 51 50 50 49 49
77 65 62 62 62 57 63 63 64 61 57 52 48 48 55 53 57 55 42 39 46 45 46 50 53 50 48 43 43 50 57 59 61 58 58 58 58 57 56 54 53 52 52
68 66 59 61 63 62 60 68 83 75 67 72 49 53 48 44 41 48 49 49 55 50 50 46 50 52 45 41 38 51 53 56 56 55 56 57 57 57 57 56 56 55 54
67 67 64 66 65 67 72 86 64 65 69 54 58 53 54 51 49 50 53 51 58 46 47 48 48 49 40 43 42 51 47 55 56 56 56 57 57 58 59 60 59 58 56
70 68 64 69 71 71 72 71 68 65 71 66 63 63 50 50 52 54 56 62 60 46 45 56 47 49 44 42 44 50 39 52 55 56 59 60 60 60 60 59 58 57 56
68 71 68 65 78 71 68 81 77 63 68 72 65 62 55 50 57 57 59 57 67 74 44 39 47 47 47 43 40 44 43 48 54 59 60 61 62 61 60 60 58 58 58
75 72 66 74 69 73 81 76 69 67 69 64 57 61 58 53 54 55 54 55 56 56 55 38 40 43 42 33 38 46 42 52 51 57 62 64 64 64 62 60 59 59 59
74 74 77 66 76 92 80 67 70 70 62 60 60 60 58 57 55 55 58 57 54 54 60 43 38 39 43 42 39 41 40 37 36 51 60 63 62 64 60 60 61 61 62
73 78 76 75 84 71 68 74 70 54 57 59 59 60 60 50 61 58 55 55 51 47 48 45 37 38 44 43 45 45 34 30 38 44 56 62 62 61 62 65 66 65 65
75 75 79 81 66 65 66 62 58 58 61 60 58 59 58 58 60 55 56 52 48 43 44 46 41 38 43 43 43 40 35 40 34 46 50 54 58 64 66 65 66 66 67
66 67 66 80 76 66 58 58 58 60 60 58 59 60 58 59 58 55 54 52 47 46 43 43 43 41 43 42 43 38 37 34 36 34 44 53 61 62 63 62 66 69 70
65 69 65 78 76 71 68 68 61 61 59 59 61 59 61 64 69 62 47 50 49 49 44 49 47 45 44 42 41 36 41 38 41 40 43 41 40 41 43 51 55 60 65
65 82 86 82 87 84 82 84 76 60 56 58 57 56 58 71 73 78 79 73 62 51 57 57 49 49 46 46 43 44 47 50 51 39 46 46 40 41 42 43 54 65 69
88 92 95 96 91 79 82 82 83 59 61 59 59 57 55 52 66 55 73 81 81 78 74 60 63 54 57 49 39 44 47 50 51 43 47 53 47 48 45 40 54 62 71
93 93 82 77 71 60 79 84 87 60 57 57 59 59 60 57 57 57 58 63 52 56 60 54 52 50 49 44 44 52 58 59 49 42 42 66 50 56 49 48 57 62 75
74 70 65 64 64 61 80 83 78 60 60 59 56 57 59 58 66 75 66 79 59 61 60 67 64 65 68 66 67 59 66 64 71 48 43 59 55 57 54 56 54 60 64
60 58 58 61 67 63 73 82 76 70 75 69 60 59 78 66 74 83 83 88 92 66 52 50 52 56 58 53 67 56 56 70 65 63 38 63 53 55 66 53 57 58 60

GFSMA_sfc_rhum_054.txt.gz
RH
49 44 47 41 40 41 40 41 41 35 36 34 30 28 28 30 29 22 28 75 64 56 52 50 51 50 49 47 46 45 44 45 45 46 47 47 48 48 48 50 52 53 54
58 50 48 44 44 41 38 37 36 34 31 30 32 30 30 26 30 33 26 42 77 68 52 47 47 46 45 45 43 42 41 43 43 44 45 47 50 46 47 47 48 50 52
55 54 52 53 46 43 44 41 39 36 32 27 31 28 24 28 28 32 28 30 44 70 64 54 50 43 42 42 39 40 40 40 42 42 43 44 43 43 45 45 47 47 49
58 60 51 50 46 46 43 50 40 36 33 30 31 26 25 25 30 30 32 31 30 28 56 48 43 38 35 35 37 38 38 40 42 44 44 44 43 44 44 44 44 44 45
68 58 50 51 58 53 51 49 42 40 38 32 27 29 31 26 28 20 29 34 35 27 22 52 49 45 41 38 38 38 39 42 45 46 46 46 46 45 45 45 44 45 46
70 64 54 56 51 44 51 50 49 40 36 32 22 28 36 31 28 29 28 23 26 32 29 27 27 32 49 44 44 41 40 45 48 48 47 46 45 46 46 46 46 46 46
68 65 54 56 51 50 56 63 49 49 40 39 37 37 38 40 39 30 30 27 28 30 31 28 28 24 26 44 38 41 45 49 50 49 48 48 46 47 47 46 46 47 47
60 59 57 55 52 50 61 62 50 44 40 42 41 42 45 38 38 36 32 31 36 31 28 31 33 33 32 27 37 45 47 52 53 53 51 50 49 48 47 47 47 48 49
61 56 56 54 54 58 64 56 50 48 43 44 47 45 46 43 35 31 38 36 37 36 32 30 35 36 36 36 41 41 57 59 58 56 54 53 53 52 51 51 50 49 50
67 53 54 57 61 58 55 51 45 47 46 47 48 41 45 40 40 40 31 37 38 38 38 35 36 37 38 38 43 53 60 60 61 58 57 56 57 56 55 54 54 53 53
64 57 60 66 68 51 52 52 53 54 61 75 55 63 49 41 44 44 38 28 25 29 32 37 37 38 38 39 38 50 54 56 57 57 54 55 55 56 56 55 54 54 54
66 63 61 68 62 52 53 54 64 76 78 72 58 55 43 39 33 31 34 35 33 31 32 36 38 36 37 38 39 50 46 51 57 55 53 53 54 55 56 56 57 56 56
75 75 70 61 55 53 66 77 60 62 61 71 60 43 42 35 33 34 37 37 36 31 32 32 34 34 32 37 38 51 48 54 52 54 56 54 56 58 59 60 60 59 58
90 74 73 62 73 66 63 55 66 66 62 74 58 58 39 36 37 37 35 41 47 39 33 36 30 33 34 34 43 50 39 57 52 53 56 57 58 58 59 60 61 60 59
89 88 83 84 66 57 63 76 82 85 77 62 60 54 44 40 40 38 39 39 49 65 40 30 30 32 33 35 40 38 39 48 52 55 55 57 59 60 61 62 61 60 60
87 87 93 83 65 73 76 78 76 80 78 86 58 50 47 40 40 39 37 40 39 42 45 31 29 31 33 28 35 35 37 47 53 54 50 54 62 62 62 62 61 60 60
82 85 77 77 77 81 87 88 82 71 78 67 51 48 48 44 42 40 41 40 40 39 41 35 30 31 36 39 36 35 35 35 31 48 50 51 56 60 64 63 62 62 62
82 72 75 76 72 84 87 74 80 76 68 51 48 47 46 36 46 47 42 44 42 40 40 44 36 33 34 36 38 40 32 24 28 38 49 50 57 58 61 63 64 65 65
74 77 76 69 76 84 70 86 83 70 55 50 50 46 44 46 47 44 44 43 40 34 39 41 40 35 33 33 37 37 35 33 23 36 50 54 48 53 59 62 63 65 65
77 77 76 78 75 80 87 82 70 62 58 51 50 50 46 45 46 46 42 43 43 45 42 43 43 39 36 36 37 36 34 26 26 21 36 48 52 51 58 62 61 59 62
69 66 74 79 85 82 68 71 72 74 65 54 51 45 46 50 64 60 40 42 44 50 47 51 52 45 43 42 40 32 34 28 31 31 32 31 32 33 35 46 50 54 58
62 65 78 86 83 73 87 92 86 62 52 48 47 44 42 56 64 80 79 77 59 51 60 66 52 55 51 45 35 37 37 34 39 32 36 38 33 34 34 33 56 58 59
78 83 86 86 85 85 91 90 86 52 47 47 47 45 40 32 50 44 68 82 78 75 82 67 60 58 57 41 39 40 36 37 40 36 39 42 39 42 36 29 58 58 58
86 86 82 66 60 50 77 80 85 54 48 45 44 43 44 44 42 46 49 51 53 56 66 58 53 50 43 41 41 41 43 48 44 38 36 54 42 46 42 40 54 54 58
56 52 48 49 48 46 74 81 75 50 46 46 41 41 41 43 52 72 56 60 56 58 61 71 72 70 62 62 61 50 57 57 66 41 37 44 45 47 45 46 44 56 62
43 40 41 43 52 48 65 79 72 64 66 62 55 49 60 56 66 79 67 68 74 63 62 60 52 60 66 59 75 55 49 60 56 56 37 50 43 44 58 47 46 50 57

GFSMA_sfc_rhum_057.txt.gz
RH
61 52 50 43 42 39 41 41 41 38 38 34 30 28 27 29 28 22 34 71 61 58 54 57 52 52 49 47 45 44 45 45 46 46 47 48 51 50 48 49 50 52 52
61 50 50 43 41 41 39 40 38 38 34 34 33 29 27 25 28 30 27 46 77 70 54 48 50 48 48 47 43 41 41 42 43 45 44 46 46 46 47 48 48 49 49
55 52 48 45 44 43 44 44 42 37 35 29 31 28 25 28 28 29 26 34 48 72 65 55 51 45 42 42 42 40 40 41 42 44 45 45 45 45 45 45 46 46 47
54 52 48 50 47 47 46 44 42 39 37 33 31 27 27 26 28 28 29 29 29 36 59 57 47 38 35 36 38 40 40 40 43 46 47 48 48 48 48 48 48 47 47
55 54 49 50 53 49 48 46 45 47 40 34 29 30 33 28 30 20 27 33 34 25 23 58 50 42 37 36 37 40 40 41 44 47 48 48 48 47 48 49 49 48 48
64 60 51 53 54 51 50 47 51 50 45 35 21 26 36 34 31 31 30 26 26 30 30 30 32 35 52 42 40 39 41 43 46 50 49 48 49 49 48 49 48 48 48
59 70 60 59 61 52 52 54 54 61 50 39 38 38 40 42 43 34 31 30 28 28 32 30 29 26 32 45 44 39 38 47 50 54 53 52 51 51 50 49 49 48 48
58 63 66 62 61 50 56 58 62 61 58 43 44 41 49 42 43 40 34 32 38 32 31 30 32 33 34 31 41 47 46 46 51 53 54 54 53 53 53 52 52 51 51
79 87 82 67 59 55 56 60 57 67 55 45 47 46 57 56 47 34 42 36 40 36 35 33 30 33 36 36 41 46 59 59 57 56 56 56 56 56 55 54 54 54 53
90 91 83 83 61 56 65 66 59 63 51 47 47 43 60 53 50 48 35 36 37 38 43 37 34 36 37 36 46 56 63 61 57 55 55 56 55 56 55 56 55 54 53
80 76 76 76 66 64 68 69 66 59 48 49 65 68 65 53 50 50 50 37 28 26 28 34 38 37 35 35 36 57 59 54 52 55 56 57 56 54 52 53 54 54 54
76 73 66 79 81 74 74 70 62 58 62 71 55 63 64 61 47 46 39 37 35 32 28 30 36 36 35 34 38 58 54 52 52 56 56 56 56 54 54 56 57 57 56
71 77 69 85 86 84 81 64 72 67 62 62 61 57 69 54 44 37 38 39 40 33 32 31 32 32 29 34 36 52 54 59 58 57 54 54 56 56 56 58 58 59 58
78 73 89 88 93 90 82 86 84 61 65 70 73 69 64 44 38 38 40 43 47 40 37 39 29 29 30 32 42 57 42 64 67 58 53 56 55 57 57 58 59 60 60
75 79 92 90 91 93 89 85 81 82 84 74 74 88 74 59 49 41 40 39 47 64 45 36 32 30 29 31 39 37 39 49 62 60 59 53 53 53 59 61 61 62 61
78 86 89 88 94 89 83 78 85 82 87 93 88 78 74 58 47 41 39 40 40 43 47 33 32 33 31 24 36 35 37 54 54 60 64 61 50 51 56 60 62 63 62
82 85 87 92 89 87 85 92 86 86 88 90 75 72 66 53 50 48 46 41 40 40 45 38 30 33 41 40 34 36 38 39 38 57 64 62 55 54 56 59 62 63 64
86 86 86 85 80 89 90 83 81 80 85 77 72 70 60 43 55 52 48 50 46 42 43 48 40 37 41 40 41 41 33 26 33 40 57 60 55 55 55 56 59 63 64
87 85 82 82 81 83 80 76 77 83 82 77 70 60 59 56 56 51 49 46 43 34 42 44 43 39 39 37 38 40 38 42 29 42 52 57 58 55 55 56 58 61 62
81 82 80 78 86 86 77 80 83 87 79 70 70 65 57 52 52 50 46 48 42 45 45 47 46 45 45 39 40 40 44 39 35 22 33 45 52 51 56 60 64 60 64
76 72 77 76 78 81 82 90 84 78 81 76 76 61 50 52 62 61 43 51 52 48 44 49 52 51 46 48 50 45 48 43 38 33 34 32 34 34 38 48 50 62 63
67 71 77 84 91 77 87 89 87 82 68 54 49 44 42 52 55 73 70 74 63 60 64 62 55 58 58 58 52 55 56 46 46 32 38 40 35 36 36 36 56 57 57
65 70 81 75 76 75 87 91 95 62 51 48 46 45 39 30 48 39 53 77 76 80 83 68 72 64 65 61 56 54 52 48 45 34 42 48 47 47 37 28 56 63 63
71 72 70 70 70 53 84 81 82 51 46 43 41 41 44 44 45 49 48 51 51 50 58 60 60 59 60 64 54 54 50 47 44 42 43 60 47 49 47 44 53 60 63
64 54 45 44 43 41 75 81 69 54 54 54 46 45 45 48 57 71 62 62 56 58 51 80 79 80 71 66 58 53 64 62 72 46 45 49 47 49 47 51 50 54 62
39 35 36 39 57 45 79 75 62 54 60 56 50 45 57 56 66 74 76 77 77 64 60 57 69 74 74 66 74 55 54 69 62 61 45 56 42 45 58 52 48 55 54

GFSMA_sfc_rhum_060.txt.gz
RH
77 70 70 64 62 64 64 63 63 58 54 48 45 40 40 40 39 48 67 72 68 64 57 55 54 52 50 48 47 45 44 46 45 46 47 49 49 48 48 49 50 50 50
80 72 74 67 67 65 64 64 62 60 58 50 45 40 38 41 42 46 56 83 74 71 61 55 53 52 51 49 44 41 41 41 43 44 45 47 47 47 47 47 48 48 48
74 70 73 73 69 67 63 65 61 59 55 48 48 43 42 38 41 40 51 62 76 69 65 59 54 50 45 43 42 40 40 40 41 43 46 48 48 49 50 50 50 50 49
72 75 73 74 70 70 70 68 64 63 63 57 53 48 43 41 38 37 43 50 58 59 74 68 55 49 41 37 37 39 39 39 41 44 47 48 48 48 48 49 49 50 49
74 76 74 73 76 73 73 70 66 67 66 59 49 50 51 50 42 30 37 44 49 49 63 70 63 57 47 42 36 34 36 39 41 45 49 49 49 48 49 49 50 50 48
72 76 74 77 76 74 75 72 71 69 67 58 34 40 58 54 51 51 45 37 46 41 42 56 65 60 59 43 40 38 37 39 42 47 51 51 50 50 50 50 49 49 48
78 84 79 81 78 77 74 75 76 72 68 57 55 61 65 64 62 57 55 52 44 46 47 49 49 50 59 51 46 41 39 40 45 48 50 52 52 52 52 52 52 52 52
80 78 85 87 81 89 78 78 75 76 73 67 66 70 74 76 68 62 59 54 55 49 46 45 47 43 48 54 62 48 46 45 46 48 51 54 56 55 54 53 53 52 52
89 83 86 90 91 87 81 81 78 72 70 72 62 73 79 80 72 62 58 57 62 62 56 51 46 46 51 56 59 63 59 57 53 50 52 54 56 56 56 56 55 54 53
86 87 89 91 94 94 95 86 71 74 77 73 72 62 71 67 68 68 61 60 60 57 60 61 54 51 50 58 58 71 70 66 58 52 50 53 55 55 55 54 52 52 53
88 86 90 92 93 96 91 86 89 84 78 79 74 78 71 70 76 75 75 61 55 59 60 70 63 62 50 50 58 72 70 65 57 53 51 51 52 54 54 54 53 53 54
88 88 85 89 90 91 92 94 96 94 96 90 76 70 70 70 72 66 70 64 59 54 50 51 66 60 57 57 50 70 70 65 58 56 53 51 53 56 56 55 55 56 56
91 88 88 87 93 94 96 97 97 94 93 94 89 75 72 70 65 64 64 64 66 59 54 54 54 61 52 63 67 70 66 69 64 59 56 54 54 55 56 55 57 58 58
89 88 90 92 92 95 96 94 94 97 97 95 77 81 81 77 69 66 60 69 75 65 61 59 56 57 59 56 69 70 67 72 70 68 60 56 55 53 51 53 57 60 60
91 92 92 94 96 94 94 96 98 95 87 92 94 92 91 90 79 70 65 60 72 92 75 62 63 50 52 57 69 72 64 66 72 71 68 61 56 51 51 50 54 58 61
93 92 95 96 95 95 96 96 93 92 91 96 94 91 90 84 77 73 65 66 65 66 74 63 56 54 52 37 59 57 55 58 65 73 72 68 64 56 50 50 53 54 59
92 93 93 94 95 96 94 94 93 89 89 90 90 91 85 78 81 74 72 68 68 68 71 65 60 55 58 60 49 58 58 59 61 67 72 72 73 65 56 55 55 56 60
93 91 93 93 93 93 94 90 87 84 86 89 86 80 78 69 70 67 71 72 74 70 71 66 59 62 62 60 61 61 48 36 50 51 65 67 70 67 66 65 61 60 60
94 94 93 92 92 92 90 87 83 86 86 83 81 82 80 74 76 72 68 67 72 54 67 67 64 66 68 65 62 60 56 62 46 53 62 66 65 65 65 66 63 63 62
90 88 87 87 89 88 85 84 83 88 90 86 82 80 76 73 70 68 68 73 65 72 69 69 65 66 71 65 72 68 66 66 63 37 44 49 59 60 66 69 70 70 68
84 83 86 88 87 85 80 86 87 93 87 85 81 76 78 78 75 72 58 68 70 67 64 66 66 64 70 79 81 77 75 70 71 66 56 54 55 59 58 60 59 62 64
78 81 86 87 89 83 96 95 86 85 79 78 78 65 61 64 62 71 77 77 67 64 68 73 71 72 71 74 81 88 81 83 92 66 58 63 60 61 57 60 57 63 63
82 85 89 88 88 85 90 91 92 88 76 69 68 65 54 40 61 55 64 70 75 81 83 75 81 76 81 78 80 90 93 97 95 70 61 69 68 71 64 39 60 62 65
84 85 85 84 82 70 89 86 81 70 68 68 67 63 60 59 58 68 64 64 65 69 66 63 88 82 84 80 88 89 89 83 73 64 58 85 73 76 73 69 58 59 62
79 78 72 66 65 75 75 73 65 74 64 68 55 60 61 61 66 72 73 78 79 76 64 73 76 79 82 81 81 85 87 92 94 76 69 74 73 82 69 73 70 62 65
54 48 49 63 64 69 78 79 65 82 83 84 74 61 68 69 74 75 80 82 84 74 71 73 77 76 87 90 85 76 82 83 95 91 71 87 72 72 89 80 76 74 82

GFSMA_sfc_rhum_063.txt.gz
RH
72 74 73 70 68 68 63 72 62 60 53 51 47 43 42 47 51 67 88 74 75 65 59 58 55 53 53 50 49 45 45 45 45 46 47 48 49 49 49 50 50 50 50
72 76 74 68 70 72 70 69 64 64 61 49 44 41 43 45 56 61 78 79 73 74 65 58 57 55 53 51 47 41 40 41 42 44 46 48 49 49 51 51 51 52 51
77 77 79 78 76 73 69 68 68 69 61 52 46 45 41 44 46 59 69 81 82 79 69 68 57 52 51 47 45 40 38 38 39 42 45 48 48 49 50 49 50 50 51
76 78 81 80 78 76 71 75 69 69 63 60 55 50 49 45 40 40 62 70 76 69 74 71 65 55 51 46 42 39 37 36 38 41 45 49 50 50 49 50 50 50 51
76 79 78 80 76 78 75 73 73 71 72 67 54 56 54 51 43 35 49 60 70 75 76 72 68 65 56 47 42 34 34 36 37 41 47 49 50 50 50 50 50 50 49
80 79 80 83 80 78 81 77 72 74 76 65 38 46 57 60 52 54 43 41 53 66 74 73 77 68 65 49 41 39 38 38 38 41 46 50 51 51 50 50 50 50 51
79 85 84 88 85 79 82 76 77 78 75 68 60 58 64 64 59 60 57 51 47 47 58 70 69 64 65 59 48 45 45 43 41 43 46 49 50 53 51 51 51 51 51
86 84 84 89 90 92 84 83 81 82 75 71 63 66 68 79 76 66 65 57 57 54 51 51 54 57 61 64 63 51 49 46 45 47 48 48 51 52 54 53 53 53 53
86 87 89 90 94 92 90 85 78 75 77 78 73 69 79 78 80 75 72 64 57 62 59 55 54 51 56 61 65 65 64 58 54 52 49 50 50 51 53 53 54 54 53
90 92 95 95 95 90 89 89 85 82 81 88 93 74 72 69 76 78 72 67 66 58 63 68 60 55 53 65 69 72 75 71 61 56 54 52 50 50 51 53 53 54 54
92 92 91 95 95 97 95 94 92 94 97 98 98 95 93 94 89 79 77 68 63 65 70 70 70 68 59 62 81 79 77 76 68 60 58 53 50 50 51 54 55 55 54
90 93 93 96 96 97 97 97 97 97 98 98 97 97 94 92 87 75 79 72 65 60 54 57 78 74 69 65 65 77 79 76 71 63 58 55 52 51 52 54 55 54 55
97 96 96 98 97 97 96 96 97 98 98 97 96 97 94 86 80 84 82 74 69 60 55 58 57 69 60 70 72 79 79 78 75 64 61 58 55 54 53 51 52 53 55
94 95 96 97 97 96 98 98 97 96 95 97 95 92 91 92 86 81 82 82 81 73 68 62 59 59 67 73 80 82 79 79 74 73 68 60 59 56 54 50 51 49 51
96 96 96 98 98 97 96 95 97 99 98 95 94 93 91 90 90 87 80 78 78 84 83 73 68 59 62 66 73 83 80 76 77 77 75 71 62 58 56 51 51 49 48
98 98 98 96 97 96 97 97 98 97 93 95 94 92 90 88 86 85 82 84 76 76 76 76 70 66 57 45 62 80 69 74 78 78 76 73 71 64 59 53 51 50 49
96 96 96 97 98 98 97 97 95 92 92 93 92 88 87 86 86 88 91 83 74 73 73 75 73 65 63 62 58 82 68 67 69 76 75 76 78 76 72 67 58 54 54
97 96 96 97 96 97 95 93 91 87 88 89 88 88 84 69 84 86 84 77 74 73 71 73 76 76 70 66 66 67 55 44 53 62 76 76 74 74 72 71 69 66 62
96 95 94 95 96 94 92 92 91 90 88 87 85 85 84 90 86 83 80 78 74 65 81 80 73 81 77 71 66 64 63 71 54 61 68 75 75 76 76 74 72 70 68
95 95 93 93 94 93 90 88 87 88 87 86 88 87 83 89 91 89 82 88 80 90 89 86 86 89 83 70 77 76 78 86 79 50 54 54 65 66 71 75 75 74 73
89 89 91 94 93 90 85 87 84 89 93 90 86 81 88 90 88 87 80 84 83 79 84 81 79 76 83 89 86 78 90 86 83 80 77 60 56 57 63 59 68 72 74
86 90 93 93 91 84 93 92 93 91 84 83 93 76 71 72 73 78 79 75 80 87 91 94 86 84 80 90 91 92 92 90 98 86 79 76 58 63 61 64 60 65 67
90 94 96 94 93 90 94 95 92 92 93 78 78 77 63 51 68 69 72 74 74 76 87 91 91 88 90 87 86 91 96 91 98 92 83 91 73 69 66 45 63 66 62
93 94 94 94 92 84 94 93 91 80 81 73 72 73 76 75 72 75 75 79 76 74 72 70 83 83 84 86 92 93 88 88 93 95 79 74 76 74 76 76 67 63 62
92 95 91 79 74 73 76 76 72 78 76 81 69 72 67 76 75 73 78 81 76 74 62 68 69 70 72 76 75 82 92 98 98 82 76 75 81 83 79 77 73 61 66
85 67 72 76 76 81 78 77 76 90 82 82 77 71 72 74 76 73 79 85 90 85 85 84 83 82 80 81 84 90 87 98 98 96 86 82 77 81 85 88 74 76 78

GFSMA_sfc_rhum_066.txt.gz
RH
74 76 74 66 66 66 71 73 66 58 57 50 48 48 54 69 81 89 94 80 75 64 59 58 58 56 53 53 50 48 47 47 46 47 50 50 51 51 52 52 53 54 54
73 68 73 73 72 69 75 70 66 62 56 48 47 46 50 53 63 78 86 88 80 74 66 60 57 55 54 53 49 44 43 43 43 44 47 50 50 50 51 50 51 51 52
74 78 78 79 76 76 76 72 69 70 62 52 45 45 48 54 60 63 76 81 84 82 76 68 61 57 56 53 50 43 40 41 39 42 45 48 50 50 51 51 51 50 51
78 84 84 84 82 82 80 77 76 75 68 61 54 52 48 49 55 60 68 76 84 78 76 76 68 60 56 51 46 41 39 36 37 39 44 49 50 50 51 51 51 50 50
83 84 85 83 85 84 82 77 78 74 74 70 58 57 57 52 46 45 65 71 80 80 82 77 73 70 63 53 45 43 36 36 37 39 45 48 51 52 52 52 51 50 50
85 84 84 86 82 83 83 83 75 80 80 75 47 50 60 58 53 55 61 61 75 78 79 77 82 78 70 57 47 43 41 39 39 40 43 47 48 50 51 51 50 50 50
86 88 88 91 86 79 79 80 80 78 83 80 67 59 62 66 60 62 56 58 62 67 82 80 83 77 73 67 51 46 44 44 42 43 44 47 47 48 50 52 52 52 51
86 86 89 92 90 92 87 86 82 87 83 78 72 67 66 73 77 65 68 58 58 59 64 71 73 67 63 75 68 52 48 48 48 48 51 51 49 48 48 49 52 53 53
86 84 88 92 90 92 91 86 83 77 84 83 69 71 86 84 76 71 69 66 62 67 59 59 61 59 62 69 65 70 69 66 52 54 56 55 54 51 48 48 50 52 53
91 90 90 90 94 93 94 91 88 86 81 87 96 90 88 78 86 85 72 71 72 60 61 62 59 62 58 64 65 74 77 74 66 59 58 58 57 52 49 49 50 53 54
90 90 90 94 94 96 95 94 95 93 94 96 96 99 97 97 96 95 94 79 63 65 66 67 68 67 61 65 73 77 80 77 74 64 61 60 58 55 51 50 52 54 55
93 93 92 94 96 97 97 96 96 94 96 97 98 96 96 96 97 97 97 85 72 62 55 58 68 70 74 75 69 74 81 78 76 71 63 62 59 56 54 53 52 52 52
93 95 96 96 97 96 98 98 97 97 98 97 98 97 97 94 87 87 86 84 78 64 58 59 58 59 68 80 77 78 82 82 78 75 70 64 60 58 56 54 52 52 51
83 89 94 96 97 98 99 98 98 98 98 98 97 98 97 91 89 85 84 90 89 77 67 61 66 67 68 71 78 79 88 85 81 78 76 71 66 61 59 55 54 53 51
98 98 97 98 98 99 98 98 98 99 97 98 99 97 93 91 90 89 84 82 87 95 84 80 74 65 66 70 71 90 94 85 84 82 78 75 73 66 62 58 57 54 52
97 98 98 98 99 98 98 97 98 98 98 98 95 91 90 90 90 93 92 89 87 86 91 82 76 74 66 53 63 86 90 82 85 83 80 78 76 73 70 66 61 55 53
98 98 98 98 98 98 98 98 98 97 94 92 92 89 89 86 90 90 90 89 92 89 85 72 74 75 73 68 62 73 82 84 80 83 81 79 78 76 75 73 72 66 58
98 98 98 98 97 98 98 97 96 92 91 92 90 90 90 80 85 89 94 91 87 88 82 81 72 84 78 73 72 70 59 58 65 68 80 82 82 80 79 78 77 72 68
99 98 97 98 98 98 96 94 91 90 91 92 89 88 84 88 94 87 86 93 91 76 83 90 82 87 89 86 82 78 72 77 63 65 72 84 81 76 78 78 73 74 73
98 98 97 97 96 95 93 91 91 91 89 88 88 87 89 88 92 93 92 95 90 95 94 95 93 90 94 89 89 86 78 88 74 60 67 73 76 76 74 77 75 76 76
96 95 96 96 95 93 91 90 87 88 89 92 91 83 84 85 82 82 76 83 84 88 92 93 92 90 84 93 92 90 90 86 84 92 91 85 91 80 82 80 78 79 79
93 95 97 96 96 88 96 93 87 92 88 84 89 75 74 72 76 77 78 76 80 86 91 95 91 88 84 92 93 92 91 94 95 94 89 87 91 84 78 75 65 68 67
94 96 96 93 92 91 92 93 93 88 88 80 79 75 61 56 76 79 77 76 76 69 87 92 93 89 90 88 91 85 82 83 88 88 98 95 93 86 78 55 68 71 70
93 94 94 94 94 87 96 98 91 84 81 82 80 74 74 76 82 76 82 83 79 77 75 71 79 81 83 78 81 79 84 86 81 76 92 92 94 94 78 70 65 68 74
94 95 93 89 88 87 88 82 76 82 77 73 70 71 76 78 70 70 80 88 88 85 71 73 77 81 83 83 82 85 86 86 90 79 80 97 94 82 78 76 75 69 67
92 92 80 74 75 77 83 79 75 82 78 76 76 71 69 71 69 72 89 94 90 81 81 81 73 68 69 72 84 79 84 95 94 92 91 95 95 94 84 87 81 78 75

GFSMA_sfc_rhum_069.txt.gz
RH
74 77 76 68 64 72 69 66 63 60 55 54 61 71 83 90 93 97 97 80 75 65 61 60 60 58 56 54 51 49 48 47 47 49 51 52 52 53 53 53 53 53 54
73 69 73 70 67 74 74 70 62 61 54 52 55 57 67 83 89 93 95 92 80 74 65 59 58 58 56 54 51 47 46 45 44 45 49 50 50 52 52 53 52 52 53
66 69 75 75 74 76 75 73 69 66 60 50 50 56 59 64 74 82 88 92 89 82 75 68 60 58 58 58 53 46 44 44 42 42 46 49 50 51 52 52 53 52 51
73 74 74 75 80 80 79 77 77 75 67 59 56 55 60 60 60 65 77 83 86 86 83 78 73 64 60 54 53 47 44 42 41 41 46 49 50 52 52 52 51 51 51
77 71 73 81 84 86 84 79 82 77 74 70 60 61 59 60 64 56 65 72 82 89 87 80 79 73 69 57 53 46 45 40 40 41 47 47 49 49 48 49 50 50 51
81 80 84 88 87 86 85 83 77 82 77 74 51 53 62 62 57 63 69 64 79 85 85 84 87 82 74 66 54 47 45 43 42 43 47 48 47 46 46 47 49 51 52
86 89 89 92 89 84 79 81 81 80 86 84 70 68 68 64 62 60 62 73 75 80 86 86 88 85 81 74 58 50 47 46 45 46 47 50 50 48 46 46 47 49 51
89 90 92 93 91 92 86 86 83 88 84 85 76 72 70 70 80 68 65 61 64 67 82 81 83 82 76 82 76 56 52 49 48 50 50 54 55 53 50 48 47 48 50
89 90 90 92 94 93 90 87 84 78 82 86 70 70 83 76 76 74 70 66 58 62 63 76 76 69 72 69 71 72 72 68 55 51 52 58 58 57 55 50 49 49 50
90 91 90 91 95 93 90 90 86 90 90 94 95 89 88 83 84 82 74 74 74 65 65 71 64 62 63 66 65 72 76 78 73 57 54 60 60 59 57 54 52 51 52
92 93 94 94 93 95 93 93 94 92 91 96 96 99 96 97 94 94 94 88 77 73 72 68 66 67 60 61 66 70 79 81 78 69 59 60 62 61 60 56 54 54 54
91 94 93 94 94 96 96 95 93 93 93 95 96 97 95 97 98 98 98 90 80 67 60 61 69 71 71 70 62 69 74 82 79 74 69 63 62 62 62 59 56 56 55
92 91 93 93 95 95 96 98 98 96 96 96 96 95 95 94 95 94 91 86 80 72 65 61 61 66 58 71 74 77 79 85 84 77 73 71 68 64 62 60 59 58 56
82 85 95 92 94 96 98 98 98 98 98 97 98 97 97 97 91 86 86 93 93 87 75 65 70 68 64 66 69 76 86 85 88 85 80 76 74 73 71 64 61 59 56
89 93 96 96 97 98 98 98 99 99 99 98 98 98 98 97 92 86 85 82 90 95 90 76 82 70 72 73 72 77 87 85 87 88 84 81 77 77 74 72 67 60 57
95 94 98 99 99 98 99 99 99 99 99 99 99 97 94 90 89 89 89 92 91 88 95 80 85 79 72 62 67 76 82 83 88 89 87 84 82 78 76 75 72 64 60
97 96 98 98 98 98 99 99 99 99 98 98 96 93 89 87 91 90 91 92 92 92 96 92 89 81 80 77 71 74 78 88 89 87 90 88 85 82 79 78 78 72 68
96 98 98 98 99 98 98 98 99 98 96 96 93 91 91 84 92 91 94 95 93 90 93 96 91 91 86 82 83 85 67 60 75 72 82 86 88 85 82 80 77 77 77
93 97 97 98 98 98 98 98 97 96 94 90 91 92 93 91 93 96 88 88 90 85 95 97 97 93 93 91 90 87 84 85 72 68 75 79 83 86 84 84 79 79 83
99 99 98 98 98 98 97 96 94 94 92 92 91 90 88 92 92 89 91 93 84 86 90 92 92 94 95 91 93 94 80 86 86 67 68 72 77 81 85 84 82 80 84
98 98 98 99 98 97 95 94 92 93 93 93 91 89 86 81 81 78 76 82 81 85 88 88 88 92 85 91 89 89 94 86 80 92 89 86 85 82 82 81 85 88 88
98 98 98 98 98 95 99 95 90 89 88 91 90 76 73 74 79 79 74 74 78 85 86 93 92 87 87 93 95 96 94 90 87 77 95 82 94 86 91 97 85 88 87
98 98 98 98 97 96 96 94 93 90 88 82 72 70 58 66 81 80 73 69 68 66 86 90 95 94 94 91 90 93 93 92 87 82 88 89 76 84 90 83 81 89 94
98 98 98 96 94 92 96 96 89 76 76 75 70 73 72 81 78 76 78 82 82 82 81 79 92 92 93 83 82 82 90 91 83 75 81 94 80 78 82 88 88 96 80
98 96 94 93 94 97 94 86 76 75 69 70 71 74 74 77 68 68 80 88 89 83 68 66 71 71 69 72 71 77 91 95 91 81 87 87 77 87 96 93 98 75 76
94 91 87 89 92 89 86 82 75 78 76 77 73 68 69 72 68 73 88 91 92 82 86 87 80 78 77 82 80 81 84 96 93 93 82 94 83 98 98 94 93 78 84

GFSMA_sfc_rhum_072.txt.gz
RH
71 70 73 67 72 73 61 56 56 63 74 80 84 85 91 92 91 92 91 79 74 66 62 63 60 58 56 54 54 52 50 50 51 53 54 54 54 55 55 55 54 54 54
72 66 68 69 75 68 68 54 53 59 65 70 79 85 88 92 91 92 90 86 80 74 67 61 60 59 57 54 52 51 50 48 47 50 52 52 54 54 53 53 52 52 52
66 66 71 74 74 75 68 62 64 62 61 56 65 72 80 88 90 90 90 90 85 81 76 68 62 60 59 58 53 50 48 48 45 47 50 51 52 52 52 51 50 50 50
67 68 69 73 76 79 76 68 70 67 63 61 64 65 68 76 82 86 89 89 89 82 81 77 72 64 62 61 60 53 49 48 45 46 51 51 53 53 50 49 49 49 50
71 66 68 76 80 82 80 72 79 72 68 64 58 62 65 66 68 58 78 84 88 88 87 84 81 78 74 63 55 53 49 46 45 45 52 51 52 50 47 45 45 48 49
70 74 75 80 82 83 82 80 79 81 74 69 49 53 63 63 64 69 69 65 78 86 88 85 90 84 79 71 60 52 49 46 45 46 51 52 52 50 47 44 44 44 47
75 82 81 88 87 84 83 83 81 80 84 77 71 70 70 67 64 62 64 70 73 75 87 86 87 85 80 77 68 55 49 49 48 49 50 52 54 53 50 47 46 45 46
79 85 87 93 93 92 88 88 82 86 83 83 80 75 73 69 75 64 60 58 68 73 78 80 82 85 81 78 81 65 53 51 50 50 51 52 56 57 55 52 50 48 48
90 91 92 94 94 94 92 89 86 81 83 88 75 72 82 80 76 80 72 68 61 70 70 77 80 80 82 75 74 77 76 74 62 51 52 55 57 61 59 56 53 52 51
90 90 92 94 94 96 93 91 87 87 88 93 95 90 87 84 88 90 80 76 69 59 64 66 68 72 71 72 69 73 79 82 79 63 53 52 56 62 62 60 57 54 54
86 90 92 93 96 94 94 94 94 92 90 94 93 96 96 95 93 93 93 91 84 80 75 71 70 67 63 66 69 69 75 80 79 72 64 57 53 61 64 64 61 58 57
91 92 92 95 95 97 96 95 97 95 94 92 96 97 97 95 97 97 98 95 91 84 67 70 74 73 71 70 63 68 73 79 80 76 71 68 62 58 64 66 65 63 60
94 94 95 96 97 95 96 96 96 96 97 97 96 96 95 93 94 94 96 93 92 82 69 66 65 68 61 72 71 73 76 83 85 82 79 75 73 69 64 62 64 64 62
89 87 93 95 96 96 97 98 99 98 98 98 98 95 94 94 94 94 92 94 94 90 80 78 66 68 64 66 68 74 77 85 87 86 86 84 80 77 74 71 64 61 59
91 91 92 94 96 97 98 98 99 99 99 98 98 97 97 98 96 90 84 82 89 97 90 80 73 73 69 72 70 74 75 74 81 86 88 87 84 80 77 76 74 71 65
93 93 93 96 97 98 98 98 97 98 98 99 99 99 98 95 92 88 86 87 85 88 92 86 81 79 75 65 69 75 75 74 82 87 89 89 88 85 82 79 77 75 70
92 91 91 94 95 96 98 99 99 99 99 99 99 97 95 91 93 92 91 90 93 91 97 90 83 79 79 78 76 77 76 78 79 83 86 84 84 85 84 83 82 80 79
92 89 92 93 96 97 99 99 99 98 98 99 98 96 94 85 90 91 92 93 93 92 93 95 86 84 82 82 83 82 66 60 74 71 79 78 79 81 83 85 87 86 82
90 92 95 98 98 98 99 99 98 98 98 98 95 93 92 91 95 95 95 95 90 84 89 92 86 91 86 85 82 77 77 80 64 58 67 69 69 71 75 78 82 85 84
93 94 97 98 99 99 99 99 98 98 98 96 94 92 91 90 92 94 89 92 79 80 77 80 80 83 87 78 83 80 66 75 74 59 61 68 74 74 77 79 81 81 82
92 94 98 99 99 99 98 98 98 98 97 97 96 91 92 91 90 86 79 77 71 73 71 71 69 78 66 72 75 81 84 82 80 78 76 79 81 72 71 71 74 76 80
97 98 99 98 99 99 100 99 96 96 94 94 90 85 82 82 80 80 76 74 66 68 66 70 74 72 76 83 87 91 91 87 82 75 78 78 78 78 74 72 71 80 86
99 99 99 98 98 99 100 98 97 92 95 88 84 74 67 75 82 70 68 66 69 70 84 80 84 84 89 86 89 84 82 85 88 77 80 83 72 78 72 71 74 79 84
99 98 99 98 98 97 99 97 93 87 87 81 76 70 76 73 71 65 70 76 77 75 77 75 83 84 88 88 88 74 78 80 75 73 82 92 73 77 72 71 78 79 81
98 98 98 98 98 98 95 92 82 75 72 69 68 68 66 70 70 70 76 79 78 73 61 63 67 66 67 70 74 84 87 92 89 70 77 84 76 81 75 79 80 85 90
98 97 98 97 97 97 93 86 75 74 73 72 67 65 72 74 75 80 83 81 78 73 72 65 66 67 69 73 73 74 87 94 90 86 73 89 74 83 88 85 87 86 79

GFSMA_sfc_rhum_075.txt.gz
RH
68 64 65 57 51 56 61 61 60 58 59 58 58 58 59 58 58 51 50 79 75 66 62 62 61 59 57 55 54 53 52 53 54 55 54 56 56 56 56 55 55 54 53
64 62 66 61 54 49 52 58 58 56 53 52 59 57 58 56 56 58 50 56 79 73 68 62 60 58 55 55 53 52 50 50 50 52 52 54 55 54 54 53 53 52 50
60 64 64 61 58 51 57 55 59 56 54 51 54 58 57 59 56 59 55 51 59 81 75 70 63 60 58 55 54 52 51 48 47 50 52 52 53 53 52 51 50 48 48
61 66 60 64 61 58 59 56 56 51 49 49 54 53 54 57 60 62 59 58 54 50 72 77 72 65 62 61 57 53 50 50 46 48 52 52 53 53 51 48 48 46 47
63 59 61 64 76 73 66 50 50 46 46 44 42 46 52 57 61 56 62 65 65 60 52 73 79 78 74 67 63 58 52 51 49 48 53 53 54 52 49 47 46 46 45
70 64 71 78 74 68 61 57 55 55 47 45 33 41 46 46 47 52 56 59 62 65 63 60 57 58 83 77 63 56 53 53 50 50 53 55 55 53 51 49 47 46 45
70 76 74 80 74 64 64 71 67 65 63 59 52 51 49 52 53 48 52 49 57 64 68 76 71 61 56 82 71 58 52 50 51 50 52 56 57 56 54 52 49 48 48
74 71 71 76 78 79 75 78 74 75 72 68 60 57 60 54 50 48 46 48 67 51 69 78 80 77 70 56 71 68 59 52 51 52 53 55 57 60 59 57 53 51 51
73 74 73 82 78 78 81 80 73 69 67 72 68 60 71 68 60 68 68 64 61 55 50 65 76 76 72 78 74 74 82 81 65 55 53 58 58 58 62 62 59 56 54
76 65 77 82 83 87 81 84 71 71 70 72 77 88 77 61 72 85 60 59 80 72 70 71 74 72 63 78 77 76 80 82 78 69 63 59 55 55 62 65 64 62 59
73 76 79 78 84 80 84 83 85 83 80 78 91 91 85 81 77 79 81 69 66 62 64 55 68 64 58 74 75 74 78 80 80 70 64 61 59 57 55 63 68 65 64
82 79 75 80 78 81 81 83 84 84 83 87 87 77 74 77 76 79 83 83 90 71 67 63 66 72 71 72 63 69 73 78 80 75 72 69 66 62 60 58 58 67 70
70 73 74 78 79 79 81 82 83 89 88 89 83 83 80 79 85 89 95 96 87 80 62 68 68 65 56 58 61 71 74 83 85 80 76 75 72 70 68 65 62 60 61
66 68 74 72 73 74 77 80 83 84 86 89 86 88 88 92 89 88 93 96 93 84 68 70 51 49 50 54 67 72 51 82 83 82 81 78 77 76 78 74 69 65 60
71 70 71 71 71 72 74 79 84 84 88 90 94 92 95 96 96 96 94 87 89 90 71 65 59 54 50 52 59 55 54 71 78 81 82 84 80 77 76 75 74 75 71
70 68 69 68 66 70 75 80 85 84 93 98 96 96 95 96 96 95 90 82 75 79 79 60 58 60 64 49 56 55 56 70 75 79 80 81 81 78 76 77 76 75 74
71 76 76 76 75 77 83 90 91 90 96 96 96 93 97 95 95 91 85 80 73 75 82 73 68 67 67 60 55 53 50 50 48 69 78 80 82 82 81 81 81 80 78
71 70 69 70 76 90 96 96 96 95 98 98 98 98 98 93 92 88 87 85 76 82 84 89 85 65 73 60 57 56 41 30 34 45 67 71 71 72 71 74 77 77 78
72 72 72 79 78 80 88 92 97 98 98 97 97 98 98 96 95 88 84 83 84 80 88 90 89 64 60 52 49 40 39 42 36 47 58 63 64 64 66 71 72 68 68
74 74 76 75 80 83 92 95 96 98 98 97 97 97 96 94 91 87 90 90 87 87 75 76 72 58 52 46 39 38 39 43 45 38 48 61 66 66 66 66 69 67 66
72 70 78 92 95 96 98 98 96 97 97 97 97 95 95 92 95 91 85 78 76 75 70 72 60 49 40 32 38 43 54 46 45 49 51 48 48 49 54 61 59 63 67
74 75 80 89 97 98 100 100 99 98 97 97 98 97 96 94 91 88 82 74 65 66 63 54 43 35 34 48 51 58 56 54 47 43 51 53 48 48 47 47 62 72 73
84 89 90 95 97 97 100 100 100 97 97 94 93 88 82 82 83 68 73 70 71 69 74 44 44 45 53 53 62 59 56 62 58 49 56 57 51 54 47 46 67 72 75
94 98 98 98 98 99 100 100 99 95 93 91 87 85 86 80 70 61 58 60 60 60 60 53 55 51 57 56 58 54 58 59 54 48 46 63 50 53 51 49 64 71 77
99 98 98 99 98 98 99 97 92 90 88 87 85 79 71 71 80 66 58 61 56 59 59 63 60 60 62 66 66 60 61 60 70 46 46 56 54 54 54 58 54 69 78
99 99 99 98 99 98 95 93 89 88 89 84 75 75 76 71 80 74 67 59 55 52 51 45 46 47 53 53 64 55 58 72 64 60 46 69 50 57 72 52 57 53 57

GFSMA_sfc_rhum_078.txt.gz
RH
69 64 66 60 54 48 46 45 43 43 44 43 42 42 41 40 41 36 44 77 75 67 62 62 60 58 57 57 57 56 55 56 57 56 56 57 56 56 56 55 54 53 53
67 62 58 59 59 56 45 44 44 38 36 37 41 41 41 41 42 42 39 52 77 73 67 62 60 58 57 55 54 53 52 53 54 54 54 56 55 55 54 52 51 50 50
64 61 54 58 60 51 50 49 44 38 38 34 39 41 40 43 42 45 40 42 54 80 75 69 62 59 56 56 54 53 51 50 52 54 53 55 55 54 52 50 48 47 48
61 59 52 58 59 59 55 50 43 42 39 35 38 37 38 40 44 46 42 41 41 41 71 76 71 66 61 58 56 54 54 51 50 52 54 54 55 54 51 49 48 46 46
61 54 51 53 52 47 52 49 44 42 40 36 36 35 37 38 44 39 44 49 49 45 43 76 80 77 73 66 61 57 54 54 51 51 55 55 56 56 52 50 48 48 47
53 46 40 51 43 41 44 39 44 38 35 33 26 32 37 36 38 42 44 44 48 54 49 47 53 58 81 76 68 65 60 55 54 52 54 57 57 57 54 52 50 50 48
48 60 59 56 49 50 50 54 46 49 43 41 36 38 38 41 42 40 43 44 46 49 50 49 48 50 65 81 76 64 57 55 56 55 54 57 59 60 58 56 54 51 49
68 72 63 62 59 66 73 70 55 54 54 52 51 47 54 48 41 40 37 39 54 50 60 54 65 62 65 51 58 75 64 57 54 54 56 57 59 61 61 61 59 56 53
62 71 73 66 75 66 64 70 67 66 60 74 67 55 70 68 67 55 50 62 49 56 58 41 44 65 72 74 72 66 83 83 72 62 58 62 63 61 62 64 65 62 60
68 59 70 66 73 64 60 63 59 65 57 62 63 56 71 71 82 73 51 64 60 58 67 49 61 55 66 74 71 72 82 85 81 72 65 62 60 59 59 61 70 70 67
67 68 68 69 61 62 62 64 68 69 61 61 62 66 68 84 78 70 69 66 55 49 50 66 45 43 59 60 54 64 85 86 81 72 65 62 60 60 60 60 60 63 72
76 69 64 72 66 72 66 68 73 75 72 71 73 70 64 77 64 65 65 64 75 76 64 67 54 50 48 54 60 74 82 82 80 74 71 66 62 59 59 59 60 62 61
70 70 73 73 73 71 66 66 70 75 75 72 71 68 68 69 60 71 76 93 94 86 72 64 50 51 53 69 64 70 76 83 84 75 72 70 68 67 66 65 64 62 60
64 70 75 71 69 62 59 62 67 66 66 68 71 68 66 65 65 71 81 95 97 90 83 66 52 49 49 44 54 74 48 76 75 75 74 73 72 72 72 72 70 69 67
54 66 63 62 60 58 56 60 64 63 63 68 70 71 74 81 83 79 89 92 93 99 86 73 56 52 46 47 56 47 47 76 72 76 77 76 73 69 70 70 71 71 70
57 58 60 59 57 56 56 56 57 57 60 68 79 84 83 80 86 93 90 84 90 89 87 56 59 53 49 43 60 55 51 65 73 73 76 75 72 66 66 65 64 64 65
57 55 55 55 54 53 52 56 58 57 61 72 85 85 92 93 93 92 94 88 87 83 83 77 55 56 66 59 53 55 50 48 45 68 67 69 76 75 70 66 66 63 63
58 54 53 51 51 52 53 56 61 74 86 88 89 96 94 98 97 96 94 87 83 76 79 78 72 63 64 76 71 57 45 32 32 44 62 64 64 70 70 70 72 71 70
55 53 52 54 52 54 52 56 72 84 81 69 84 96 95 98 97 96 96 92 84 77 76 68 81 76 80 73 67 55 42 35 25 47 57 66 70 63 64 68 71 69 70
54 53 55 56 57 54 54 65 70 79 76 80 88 96 95 96 94 95 94 90 86 86 88 80 77 76 64 66 60 42 32 29 30 23 39 50 60 58 66 70 72 69 68
54 53 60 59 60 59 61 73 78 79 84 87 94 95 94 92 94 93 92 94 92 90 86 75 70 64 65 62 49 30 34 34 35 34 36 37 34 34 38 55 57 68 69
58 57 58 61 64 61 91 100 88 84 91 94 97 98 98 98 98 97 96 94 89 82 76 68 65 63 62 45 36 38 38 39 42 31 42 40 36 38 34 35 60 66 71
63 63 64 62 62 62 100 100 100 85 93 95 96 98 97 93 93 86 86 81 78 78 79 58 60 50 44 39 45 44 44 46 46 37 41 47 42 43 36 29 65 70 73
66 68 67 63 63 71 100 100 100 98 99 97 96 94 92 88 79 74 73 74 68 58 54 50 46 48 45 43 46 42 43 45 44 39 38 53 40 41 40 38 60 67 73
72 72 81 86 94 99 100 100 99 97 96 95 92 91 89 90 92 88 83 71 64 66 67 66 65 63 61 62 60 46 53 50 62 36 35 43 45 42 38 42 45 64 67
93 98 99 99 100 99 99 98 94 93 95 95 91 95 94 91 95 88 75 66 67 56 49 46 52 52 55 53 65 50 43 58 54 53 37 57 45 42 56 44 45 48 45

GFSMA_sfc_rhum_081.txt.gz
RH
90 89 81 68 50 44 46 43 39 38 40 39 38 40 37 36 38 40 50 78 75 67 62 61 62 62 61 61 60 59 58 59 58 58 59 58 58 57 56 54 54 54 54
92 86 86 70 48 44 42 40 42 39 39 39 41 40 38 38 37 43 45 56 78 74 68 62 60 59 58 58 58 57 57 56 57 56 58 57 57 55 53 51 50 50 51
90 78 83 72 67 51 51 56 47 40 35 35 40 39 38 41 39 41 43 48 58 80 75 70 63 60 58 56 55 54 53 54 55 55 57 58 56 54 52 50 48 46 47
74 76 80 73 66 60 52 53 50 44 37 35 39 40 39 40 44 42 39 43 47 46 73 75 72 66 61 58 56 55 54 52 55 56 56 58 57 56 54 51 50 46 46
80 76 69 66 67 57 66 63 58 57 42 39 36 37 39 37 43 38 40 42 45 43 48 77 79 77 72 65 60 57 56 55 53 54 56 56 57 57 55 53 51 50 49
76 65 61 67 60 60 59 56 62 55 48 38 28 34 38 37 39 42 41 40 43 48 46 57 62 62 82 75 67 63 60 58 58 55 56 58 58 59 58 55 54 52 51
58 55 51 52 52 53 52 56 54 54 45 41 33 38 39 40 42 39 41 43 45 50 52 48 57 53 60 79 77 69 68 63 60 60 58 58 61 61 62 60 58 56 54
49 45 51 57 51 50 54 56 56 54 46 46 42 42 51 45 42 42 41 46 54 44 46 58 64 56 54 56 67 76 69 63 59 60 62 61 62 63 64 64 62 61 59
58 56 62 61 63 57 57 61 59 56 55 53 56 63 74 74 59 48 54 44 51 49 52 61 59 56 58 52 61 69 81 81 73 61 60 66 67 67 64 65 66 67 67
66 64 65 68 70 66 65 68 57 62 62 68 69 66 62 64 81 92 70 62 64 66 63 55 48 48 51 57 66 75 84 86 84 76 70 66 63 63 63 63 65 68 72
63 62 71 74 75 73 67 72 66 67 64 77 68 65 67 66 74 66 71 79 58 54 50 55 47 49 54 52 55 65 85 86 86 79 72 68 64 60 60 61 62 62 63
71 74 66 78 77 75 75 70 73 76 74 74 80 79 69 66 66 69 72 64 76 75 65 72 68 59 52 50 53 71 87 89 87 82 74 66 64 61 59 58 58 58 58
76 78 75 77 76 72 68 71 77 75 80 81 78 74 72 68 56 65 75 72 75 80 94 84 86 64 52 53 52 71 85 87 86 80 77 70 65 62 62 62 62 61 60
68 69 73 68 71 74 67 67 75 70 77 79 79 74 66 62 61 59 66 78 95 90 83 78 75 72 59 52 59 80 59 84 81 80 78 73 69 69 69 69 68 68 68
60 63 68 66 66 65 68 65 71 69 70 76 81 75 70 63 66 64 68 72 86 95 93 73 88 66 53 50 67 61 58 82 74 75 74 75 70 66 67 67 66 66 65
58 56 61 64 65 63 59 60 60 62 67 72 72 73 70 66 67 74 78 84 87 92 94 78 70 61 59 46 65 56 54 73 76 76 76 71 68 60 61 63 61 58 58
62 57 59 62 60 59 59 60 61 60 63 66 68 69 72 76 85 90 89 91 94 96 98 82 71 62 66 60 59 58 58 55 59 80 76 71 66 67 65 63 64 64 62
62 58 57 58 57 55 58 60 61 58 60 61 61 68 77 85 89 87 94 95 97 94 96 94 76 65 66 63 66 61 52 46 54 76 68 62 63 66 71 72 72 70 70
60 58 55 56 55 56 56 57 57 58 59 59 62 68 82 82 89 94 96 97 97 94 95 94 86 76 75 73 69 67 70 68 40 58 61 65 66 67 71 72 68 70 72
60 58 58 56 56 53 52 52 52 57 59 59 69 74 76 75 84 93 95 95 96 97 96 93 96 85 81 74 72 75 73 50 44 23 34 42 55 66 71 72 74 75 76
58 56 57 57 57 56 52 56 54 57 58 68 74 77 86 85 94 93 95 96 98 98 98 97 96 95 91 81 70 63 60 54 53 41 36 35 39 44 46 67 67 74 77
57 56 57 57 59 53 69 79 71 59 64 70 85 90 94 99 99 100 98 99 95 96 97 97 96 91 84 73 66 60 59 58 54 38 41 44 40 41 39 40 54 58 63
61 61 60 57 58 59 81 86 88 70 82 78 87 89 97 99 99 98 96 92 94 94 94 90 91 85 78 69 58 62 60 59 55 40 42 51 50 51 43 31 60 68 68
65 64 64 62 61 58 85 92 100 88 86 83 93 92 94 97 94 94 91 89 89 90 90 88 92 86 72 64 58 54 51 46 47 39 42 60 53 56 49 42 59 66 70
65 67 64 66 65 64 100 100 99 99 100 99 98 97 96 95 93 88 88 94 96 97 94 93 86 74 67 64 60 44 56 57 72 48 46 52 50 54 56 54 49 56 67
67 71 77 93 99 90 100 100 100 99 99 98 98 98 95 94 100 94 91 90 94 93 76 60 62 52 50 53 61 50 44 58 58 56 47 58 51 50 60 55 57 56 54

GFSMA_sfc_rhum_084.txt.gz
RH
96 94 95 96 73 62 62 62 58 51 57 54 58 54 54 50 58 62 75 80 76 68 63 63 63 64 63 63 62 62 62 61 61 60 61 60 59 58 57 56 56 56 56
92 95 95 91 59 57 54 54 57 58 54 56 60 56 51 51 56 63 70 79 78 74 68 63 63 63 63 62 62 61 61 60 59 60 59 60 58 57 56 54 53 53 54
91 91 93 90 61 56 54 62 58 61 62 53 58 59 58 55 54 60 64 70 79 79 75 70 64 62 61 60 61 59 59 59 59 59 59 58 58 56 54 52 49 48 48
84 86 89 91 86 77 68 58 62 64 63 63 63 62 60 57 56 58 60 64 69 65 77 76 72 67 62 59 58 58 57 58 58 58 58 60 58 57 54 52 50 48 48
85 85 91 92 92 88 78 65 68 66 63 62 58 63 61 62 63 51 55 59 64 64 68 79 79 78 73 66 60 59 57 56 57 59 59 59 60 59 57 55 54 52 50
91 92 95 95 86 86 76 73 66 66 62 60 38 49 62 66 64 67 60 54 57 61 63 67 75 74 80 73 68 62 61 60 58 58 59 60 60 60 60 59 56 55 54
84 91 95 94 86 81 77 71 68 64 60 58 64 65 61 61 66 66 66 65 64 64 68 69 71 69 73 79 75 66 64 63 62 61 59 60 62 62 63 62 61 60 58
80 80 76 76 72 73 73 74 68 71 66 67 66 66 70 66 62 62 66 66 67 69 71 71 70 69 67 72 76 76 70 67 65 63 64 65 65 65 66 66 66 64 64
68 62 66 61 62 63 67 71 72 69 70 70 69 77 86 87 75 66 66 68 66 75 70 66 70 70 74 73 75 78 83 82 76 69 70 72 71 70 68 67 68 68 68
66 57 61 60 72 68 72 69 74 68 78 68 81 80 90 88 91 95 80 70 69 71 74 71 74 73 70 80 77 80 84 87 83 79 73 69 66 68 68 68 68 70 71
70 69 64 68 71 79 79 73 78 82 88 89 76 84 85 91 92 89 96 95 79 65 64 70 70 66 54 57 81 80 86 90 86 82 79 74 70 67 65 63 61 61 62
75 72 74 79 78 84 79 85 84 86 84 86 92 89 84 85 91 94 95 88 90 84 70 64 69 63 61 75 70 73 84 86 89 87 83 80 73 69 65 62 62 61 59
73 72 75 81 79 80 85 83 83 84 88 88 86 84 88 87 84 85 89 89 93 94 94 92 82 70 63 71 63 72 83 88 87 87 85 83 77 70 64 61 60 60 60
66 69 72 73 75 78 82 84 88 80 87 93 89 86 85 82 78 72 81 92 96 97 97 92 93 85 83 76 78 81 83 89 89 87 84 82 78 75 71 68 66 66 65
60 66 77 74 69 73 75 74 85 80 80 84 82 84 82 78 82 78 89 89 91 94 96 90 92 85 79 81 78 80 77 88 86 86 84 81 78 77 74 70 68 67 65
63 67 74 74 74 72 71 72 72 73 78 84 87 86 82 82 87 89 88 88 87 85 92 84 88 87 72 60 83 80 74 86 86 85 82 82 78 73 68 65 65 62 58
68 65 68 69 69 68 67 69 68 66 72 77 81 82 83 86 88 90 90 92 95 94 94 85 90 88 82 73 72 75 77 77 78 84 82 81 75 70 68 65 64 62 62
65 62 60 62 63 65 66 70 67 61 65 73 76 82 83 81 86 86 95 94 96 91 97 97 95 96 87 71 70 72 70 60 71 79 83 80 74 70 67 68 71 69 68
66 62 59 61 61 63 64 64 64 65 67 65 68 75 76 79 86 91 93 96 96 97 96 97 95 96 94 89 79 77 78 77 47 83 82 75 70 69 69 68 72 71 71
73 71 68 66 63 64 64 62 61 67 68 68 70 72 72 76 84 91 95 96 96 98 97 98 97 97 96 93 90 87 86 78 65 42 51 50 63 70 70 70 74 74 76
70 69 70 69 66 65 62 65 62 66 69 70 70 70 72 77 92 90 91 93 96 98 98 98 100 99 98 98 93 93 93 85 73 60 52 51 55 56 67 77 71 76 76
69 69 69 70 71 62 72 79 71 66 65 67 70 70 74 95 92 95 100 100 96 97 98 98 96 97 96 94 97 94 90 86 82 62 59 59 55 65 60 62 63 74 75
74 72 71 69 70 69 80 82 82 65 69 72 74 75 92 98 100 99 100 100 99 98 100 94 96 98 97 94 94 96 95 92 89 67 61 71 71 72 60 40 63 74 76
72 75 74 72 71 66 82 85 86 76 73 75 88 92 93 99 99 99 99 99 97 96 96 94 96 97 96 95 91 91 96 91 80 68 63 89 70 75 71 66 66 68 73
71 72 72 74 73 72 85 88 90 84 81 96 99 99 99 100 99 97 97 98 98 98 99 96 96 98 97 96 96 99 98 95 95 71 65 74 73 77 72 76 69 57 67
70 71 76 92 100 85 100 100 97 99 99 99 98 98 98 97 97 96 96 94 96 98 96 96 95 90 90 82 78 84 88 95 93 85 67 90 74 78 88 84 75 72 70

GFSMA_sfc_rhum_087.txt.gz
RH
95 96 96 96 85 86 81 80 75 64 64 59 63 63 63 69 69 73 78 80 76 70 65 65 65 66 65 65 66 66 64 63 63 62 62 62 60 60 60 60 59 59 59
94 94 97 95 86 72 73 68 73 58 63 58 64 58 64 67 69 77 79 79 80 75 69 65 65 65 65 64 64 64 63 62 62 61 61 60 59 57 56 56 57 57 54
92 92 97 93 74 63 60 63 67 67 63 60 62 62 61 66 70 74 79 81 79 80 78 71 67 65 65 64 64 64 62 61 61 60 60 60 58 56 56 54 53 53 50
89 94 96 93 75 63 55 67 64 62 68 68 69 68 60 66 69 70 74 77 86 72 79 79 73 69 65 63 63 62 62 62 61 62 61 60 59 57 55 54 52 50 50
88 93 94 92 83 75 68 68 72 65 66 68 64 70 69 64 69 63 71 74 80 82 81 81 80 78 74 67 63 61 60 61 61 60 61 62 61 59 58 55 54 52 51
89 90 90 94 92 83 75 62 68 70 65 62 49 64 71 66 64 70 71 67 71 73 76 77 80 77 81 74 68 62 60 60 60 61 61 61 62 63 62 60 58 57 55
93 92 95 94 92 78 71 66 66 62 67 66 68 70 71 68 66 70 64 68 71 70 73 75 78 77 76 81 76 66 64 63 62 60 61 63 63 64 65 64 63 61 60
91 90 94 95 94 84 75 71 70 73 68 67 64 70 74 66 68 69 72 69 70 69 71 74 77 77 76 75 75 75 68 66 64 65 64 66 69 70 66 66 67 66 65
92 93 94 94 92 82 78 74 69 66 61 75 68 79 88 85 76 70 72 77 75 80 75 77 77 75 75 76 77 79 82 81 76 72 72 73 72 72 71 69 69 69 70
84 82 80 78 78 78 74 77 71 72 75 67 87 85 88 87 87 89 81 72 75 78 83 82 75 75 72 77 79 81 85 87 84 81 79 78 76 74 74 72 72 70 70
74 71 72 71 69 74 76 71 79 82 87 86 80 87 88 95 94 95 94 88 81 76 78 73 70 78 74 75 80 80 87 88 86 82 80 80 76 76 74 73 74 72 71
78 76 65 62 76 74 84 81 83 84 92 91 88 89 86 90 96 95 95 93 89 88 71 71 78 70 67 67 67 80 89 88 88 86 84 81 80 76 76 71 68 66 64
76 76 73 69 77 81 85 83 88 87 90 95 94 88 90 86 90 90 93 94 94 94 95 92 73 66 64 70 68 77 85 88 89 90 89 86 84 82 79 74 68 66 63
69 83 86 83 80 87 89 85 87 92 93 95 92 94 90 87 90 89 90 92 97 97 98 90 96 82 74 72 72 79 71 84 88 89 90 90 88 84 81 77 72 66 64
65 77 80 83 86 82 85 89 92 86 88 89 88 89 88 85 83 83 88 90 88 93 97 96 96 93 82 83 79 80 76 84 88 91 92 89 86 83 81 79 77 72 68
66 67 82 75 78 78 76 81 84 85 83 84 87 86 85 87 89 88 89 91 94 88 89 91 85 90 91 84 86 85 79 88 91 91 90 88 86 84 82 81 80 76 70
69 65 74 77 74 72 73 75 73 75 80 77 81 85 82 80 88 92 91 89 90 92 92 77 93 94 90 86 78 83 80 82 83 89 89 88 86 85 83 81 78 75 69
70 68 72 72 73 71 71 74 74 67 76 80 78 85 84 88 88 85 88 86 87 85 89 89 89 96 94 90 84 82 78 73 73 86 86 84 82 82 80 78 74 71 70
72 70 68 72 69 69 70 71 71 74 72 73 75 86 83 87 89 88 91 90 90 91 94 92 91 97 95 96 92 81 83 73 70 76 84 82 82 80 77 74 72 72 73
73 71 68 68 67 65 64 67 69 74 74 71 72 74 77 84 85 87 90 91 91 95 97 97 97 96 98 95 91 86 86 86 74 67 73 74 81 81 78 75 74 73 74
77 73 70 68 64 61 57 63 65 69 72 73 71 71 74 75 83 84 86 91 94 96 97 98 97 98 98 99 97 92 89 89 93 85 79 80 80 73 73 78 67 75 78
83 77 75 73 70 61 70 80 70 67 66 68 74 75 76 86 87 90 94 92 94 94 96 97 96 97 95 94 91 95 96 98 99 93 95 94 87 82 63 67 69 77 78
79 85 83 78 78 75 84 85 87 70 73 73 75 76 79 81 91 86 99 100 100 99 100 94 96 95 95 97 96 98 99 98 99 97 94 97 94 90 75 50 68 75 80
80 80 82 82 81 77 89 87 89 79 75 75 79 81 82 85 94 94 99 99 98 98 98 97 98 99 99 98 96 96 97 100 99 99 95 98 93 90 74 75 72 73 76
80 81 80 80 81 79 91 92 92 82 80 79 93 98 95 96 100 100 98 98 98 98 98 97 98 97 98 98 96 92 98 97 99 99 100 99 94 89 85 79 72 74 72
74 74 80 84 89 83 100 98 93 85 89 100 99 99 99 99 99 99 98 96 97 98 97 96 95 95 96 97 99 99 99 98 98 97 89 93 87 84 88 88 79 71 74

GFSMA_sfc_rhum_090.txt.gz
RH
95 95 98 96 91 92 89 91 83 74 71 72 68 66 70 74 78 76 76 75 76 70 66 66 67 67 68 68 68 68 67 66 65 65 65 64 63 63 62 62 62 62 58
93 94 96 96 92 82 81 78 80 76 72 72 71 66 70 75 79 82 79 77 80 75 71 66 66 67 67 67 68 66 65 65 63 62 63 62 61 60 60 60 59 58 54
94 93 96 96 84 77 75 71 80 75 71 68 67 70 71 75 79 79 83 81 81 82 78 72 69 67 66 66 66 66 64 64 63 62 61 60 60 58 57 58 58 55 51
92 94 95 94 80 73 67 66 75 70 73 76 74 72 71 74 78 80 82 86 88 80 81 78 74 71 68 66 66 65 64 64 64 62 62 60 59 58 56 55 54 54 52
90 94 96 92 84 72 64 68 80 62 68 76 72 70 73 76 76 73 81 85 86 85 87 84 81 80 75 69 66 65 65 64 64 64 64 62 61 59 58 57 55 53 52
93 91 94 92 82 75 65 71 71 74 72 70 62 71 72 76 76 77 77 72 77 80 84 82 83 81 82 76 68 66 64 64 64 64 64 65 64 63 62 60 59 57 56
96 96 96 93 82 63 66 69 66 64 73 75 75 82 81 75 75 77 76 75 75 76 80 78 81 80 78 81 75 66 65 64 64 64 64 65 66 67 66 65 63 62 61
93 94 92 91 90 66 73 66 65 74 72 69 69 77 85 78 82 76 77 76 78 76 78 78 80 80 78 79 78 75 68 67 65 64 64 69 71 70 68 68 67 67 66
94 94 90 91 89 76 74 63 61 60 63 77 67 82 89 92 83 83 85 77 80 79 76 75 78 78 80 80 80 80 82 80 75 72 72 72 73 74 74 69 69 69 70
94 92 92 90 89 90 78 64 59 59 64 66 84 87 86 86 87 90 81 81 80 79 80 80 78 78 77 79 80 80 84 87 84 80 77 76 76 75 75 76 75 72 72
96 97 91 95 96 95 83 71 76 78 74 84 81 93 92 96 92 89 86 88 82 77 80 81 82 83 77 77 80 82 88 89 87 82 81 80 80 80 79 77 77 77 77
91 90 86 89 90 94 92 87 80 82 86 87 88 89 86 91 94 94 93 91 82 80 76 80 83 80 82 81 79 84 88 90 89 86 82 81 81 81 82 82 81 78 76
84 86 81 81 84 84 87 83 85 85 89 90 86 91 89 88 91 92 89 93 92 92 94 92 76 74 72 78 78 83 88 91 90 88 87 85 83 82 81 79 80 76 74
76 75 81 78 82 78 77 81 84 88 91 93 90 88 91 90 91 88 87 91 96 96 96 90 94 80 72 70 74 80 71 87 90 89 88 88 87 87 86 85 82 80 77
71 81 88 80 85 88 88 86 90 92 94 94 95 94 88 88 92 92 92 92 92 95 95 94 95 91 82 79 76 75 74 76 87 90 92 90 89 90 90 87 86 82 79
71 75 87 84 83 85 86 92 85 90 93 92 90 94 91 89 89 91 89 88 90 87 89 87 85 87 91 83 83 85 79 83 86 89 89 90 92 93 92 87 85 83 80
77 76 76 82 83 81 83 85 86 88 88 83 86 89 84 80 85 87 91 90 91 92 90 76 75 74 92 86 87 95 93 91 86 93 92 93 96 96 90 88 86 84 82
74 72 73 78 78 80 78 81 80 76 88 87 86 88 83 82 88 84 89 88 88 88 89 88 83 89 94 91 87 92 87 82 83 89 94 94 94 90 89 87 86 86 84
74 71 69 74 74 77 76 76 75 76 76 77 77 80 79 81 86 84 88 88 89 90 90 88 82 79 90 97 97 93 94 89 84 84 94 92 90 88 87 87 86 82 78
78 75 70 71 72 70 72 72 73 75 76 74 76 74 76 78 81 82 87 89 86 86 86 91 90 89 94 95 96 97 97 90 88 75 82 85 87 89 88 86 84 80 78
79 77 76 73 73 72 68 72 71 73 75 77 77 77 79 78 84 82 83 86 87 91 91 92 90 90 96 100 98 95 97 94 95 86 89 89 93 93 93 92 87 84 85
84 80 77 78 77 71 77 81 73 70 69 72 75 75 76 85 84 89 89 85 78 90 91 90 87 92 88 92 92 95 96 99 99 96 95 98 94 96 93 95 92 86 87
86 88 86 82 81 77 85 84 82 66 68 70 72 72 73 74 85 78 92 96 99 99 100 86 88 90 91 90 92 100 100 99 100 99 96 99 98 98 94 86 91 91 92
87 87 87 84 83 77 88 88 86 72 68 68 71 73 76 77 82 88 88 98 100 99 99 99 99 99 99 99 98 96 96 99 99 99 98 98 100 100 99 98 94 91 85
87 88 86 88 85 82 94 95 93 82 78 76 74 79 82 86 88 98 98 100 100 99 98 97 98 98 98 98 94 94 99 96 99 99 99 99 100 99 100 100 97 89 80
86 89 88 86 89 88 100 98 98 88 90 89 83 99 100 95 98 100 92 98 98 98 98 98 97 96 95 96 97 99 97 96 96 97 96 96 96 96 96 95 96 94 89

GFSMA_sfc_rhum_093.txt.gz
RH
97 99 97 97 98 92 84 85 76 69 72 72 76 77 80 79 76 75 74 81 79 75 64 66 66 67 68 67 69 67 68 67 67 66 66 66 66 65 65 64 64 61 60
97 98 98 97 98 88 81 76 75 72 77 74 78 78 79 81 78 84 74 74 80 76 69 65 65 66 67 68 69 69 67 67 66 66 65 65 65 64 63 63 62 58 57
95 94 97 97 95 83 80 80 79 73 76 75 77 79 80 82 84 82 88 89 78 81 78 73 69 66 66 68 68 68 68 66 66 65 64 63 62 62 62 61 60 55 54
90 93 96 96 91 86 81 79 75 74 80 79 84 81 82 81 82 85 88 91 92 82 78 78 74 71 68 67 68 67 66 66 65 64 63 62 62 60 60 60 59 56 52
93 94 96 95 89 84 77 74 81 70 82 82 82 85 88 84 83 77 85 89 89 89 90 81 80 78 76 70 68 67 66 66 66 65 64 63 62 61 59 58 57 56 56
94 94 96 94 87 83 78 74 69 76 84 79 70 80 85 92 82 82 81 78 82 85 86 85 82 81 83 77 70 68 67 67 66 66 65 65 63 62 61 60 59 57 56
93 96 96 95 92 72 69 73 67 70 81 82 81 92 91 92 90 84 82 80 81 79 83 83 83 89 82 83 77 69 68 67 67 67 67 67 66 66 65 64 62 62 60
96 93 96 94 89 70 70 74 62 76 82 77 80 85 95 89 84 86 90 86 86 79 79 79 82 87 85 82 81 78 71 68 66 66 67 70 71 70 70 68 67 66 65
97 97 96 93 93 83 80 73 62 62 73 84 70 86 96 96 93 92 94 92 91 91 83 80 81 80 81 81 82 81 84 83 76 71 71 73 74 75 75 71 71 70 70
96 98 93 94 94 85 80 78 66 60 70 73 81 83 86 87 95 95 90 93 91 88 85 84 80 80 78 82 82 83 86 88 86 81 77 76 75 76 77 77 76 74 72
97 95 95 94 91 82 90 88 80 78 75 78 71 91 94 95 89 89 92 94 94 83 80 81 80 81 78 79 82 83 88 89 89 83 81 80 79 79 78 78 78 79 77
99 97 95 96 94 90 96 96 87 83 87 83 82 91 89 88 93 90 90 86 87 88 79 86 89 86 84 82 80 84 89 90 88 86 82 80 80 80 81 82 81 80 80
97 98 95 93 92 86 94 94 92 87 84 81 82 81 88 87 89 86 85 91 89 88 94 91 83 84 81 86 84 87 89 91 90 88 86 85 83 81 80 81 83 82 83
88 92 91 87 84 86 89 89 91 89 91 91 86 84 83 86 89 87 86 90 95 96 96 88 91 76 73 73 79 87 82 92 92 91 89 88 88 86 84 83 82 83 83
80 84 84 84 85 86 88 90 91 88 91 91 91 90 90 93 92 90 92 92 89 94 92 89 93 91 83 79 78 77 74 76 88 91 93 92 90 89 88 87 88 84 85
85 86 88 83 80 84 88 91 90 85 84 90 90 92 92 91 91 94 94 95 94 93 93 81 82 89 91 87 86 84 78 85 87 87 88 89 89 88 89 90 90 91 93
86 84 83 84 83 82 88 90 80 81 83 80 91 93 85 84 90 92 93 91 92 94 94 78 75 78 93 87 84 88 86 85 82 90 89 88 90 92 92 94 95 96 95
85 81 83 82 82 83 84 86 88 86 89 86 90 92 89 90 92 91 92 92 91 90 90 90 79 85 93 86 82 83 90 91 87 91 95 94 93 92 92 94 98 98 93
82 80 81 83 83 82 87 88 85 84 89 88 87 90 85 89 90 89 91 89 88 87 91 90 83 78 83 96 93 92 87 91 92 87 92 93 95 94 95 97 97 94 92
80 79 78 79 80 81 81 85 85 86 85 85 85 85 84 85 86 84 88 88 87 89 90 93 91 87 87 89 97 95 98 98 94 88 90 92 93 95 95 95 93 90 88
82 80 78 77 78 77 75 78 77 79 82 82 82 81 82 81 85 82 80 83 88 91 90 90 91 89 88 89 97 86 95 92 94 94 94 94 95 97 96 93 91 91 88
86 84 84 81 79 73 79 84 78 76 74 78 80 81 80 87 87 90 91 86 80 90 90 88 86 87 83 82 84 92 89 94 98 95 95 98 97 99 97 96 95 96 94
90 90 88 85 84 80 86 87 87 72 75 77 78 76 77 78 88 82 92 94 95 91 87 73 80 80 82 80 81 88 92 93 96 99 96 100 99 99 96 94 96 94 93
93 92 91 89 88 83 91 90 90 80 76 75 76 77 79 78 78 84 85 85 90 87 93 96 90 83 80 93 98 94 94 100 99 99 98 99 99 100 99 99 95 93 96
90 91 90 92 93 89 100 95 94 84 82 80 75 75 77 80 80 88 87 88 94 100 98 98 98 98 98 98 97 98 100 99 100 99 98 99 99 99 100 100 100 98 98
95 89 89 90 98 96 98 99 99 91 92 89 84 82 86 80 84 92 88 87 94 100 98 98 97 95 94 95 95 97 99 100 97 97 96 97 96 97 98 98 98 98 97

GFSMA_sfc_rhum_096.txt.gz
RH
98 97 96 98 96 96 98 92 87 82 81 79 80 78 79 80 81 80 84 80 79 75 67 71 70 73 73 72 71 69 67 67 67 68 68 68 67 67 67 66 65 64 61
98 98 98 98 97 98 98 91 82 78 78 77 80 79 82 78 82 84 82 73 81 79 74 70 70 73 71 71 66 67 68 67 67 67 67 68 68 67 67 66 63 62 58
97 97 99 98 98 98 97 89 82 80 83 79 82 80 81 87 88 84 82 83 80 81 80 76 73 70 69 67 65 66 68 68 67 67 67 67 67 66 66 66 61 59 57
96 97 97 98 98 97 95 84 77 79 82 83 88 89 86 86 88 87 84 83 85 76 78 79 75 72 69 68 68 68 68 68 67 67 66 65 65 65 64 64 61 57 56
95 96 97 98 97 95 88 83 83 77 83 87 87 94 92 92 87 81 85 86 85 85 84 79 79 79 76 72 68 66 67 67 66 65 64 64 63 62 62 63 62 59 56
94 95 97 97 92 91 83 78 77 79 81 84 76 89 95 94 92 92 88 80 85 85 84 83 79 80 83 77 70 67 66 67 67 66 65 64 64 63 62 61 61 60 59
96 95 97 96 94 88 85 77 76 82 87 80 87 91 95 94 91 91 90 88 85 84 86 85 81 82 79 83 78 69 67 66 67 67 66 66 65 65 64 64 62 61 60
96 95 97 96 95 92 86 75 70 80 86 80 84 88 96 91 89 87 90 86 89 84 84 84 84 84 83 81 82 78 71 68 66 66 68 71 72 69 68 67 66 65 64
96 95 95 94 95 92 91 79 68 68 80 87 78 90 98 97 95 92 92 90 91 90 85 85 86 84 84 82 84 83 87 85 79 73 73 75 76 76 76 72 71 69 68
97 97 98 94 95 95 94 83 65 65 74 82 80 82 86 89 96 97 91 91 91 90 90 89 83 82 82 83 84 85 87 89 86 82 79 77 77 77 78 78 77 76 74
96 98 97 94 93 91 88 84 73 70 72 79 79 92 91 93 90 91 96 97 95 87 83 86 83 83 82 80 82 83 89 88 88 83 81 80 80 79 78 79 79 79 79
98 98 97 96 95 93 93 89 78 70 80 82 88 86 88 86 90 87 88 91 91 88 83 82 84 83 83 82 81 85 90 92 90 86 83 81 80 81 82 82 81 80 81
99 99 97 98 97 90 90 89 89 89 92 85 85 88 87 84 87 80 83 86 91 91 92 88 85 83 81 85 83 88 91 95 92 88 86 84 83 82 80 80 81 83 84
95 97 96 94 93 92 93 93 89 88 96 95 89 82 86 82 87 81 81 89 92 90 92 85 86 84 83 81 84 90 83 93 92 90 89 87 87 86 85 83 81 81 82
90 92 92 91 87 86 90 91 89 87 90 91 89 87 77 69 76 82 88 87 83 90 90 85 88 88 80 80 82 83 84 87 93 94 93 92 90 89 88 88 87 86 84
86 90 90 92 92 87 89 91 91 87 88 86 85 86 86 81 85 93 90 90 90 84 79 83 86 87 93 90 82 81 78 84 86 87 90 92 92 91 91 91 90 90 89
93 90 88 86 88 90 89 91 89 91 90 89 87 87 86 82 86 91 96 95 93 91 87 72 76 82 91 90 84 87 83 85 80 90 89 90 89 89 91 91 91 91 92
93 92 92 91 85 84 89 90 91 88 90 88 88 88 82 86 88 90 92 89 90 88 86 86 79 90 90 86 79 80 83 82 79 84 89 91 91 90 90 90 92 92 93
94 92 92 90 89 85 85 90 92 90 89 86 83 85 82 87 87 90 94 92 91 89 92 88 83 80 83 88 89 87 84 84 90 89 93 94 96 95 93 93 94 94 95
91 93 91 90 88 87 84 87 86 88 89 89 87 84 81 83 86 88 92 92 90 93 93 94 91 87 85 87 94 88 90 97 89 87 92 90 90 95 95 95 96 96 97
86 85 86 88 88 87 85 87 89 89 89 89 88 88 87 86 89 85 82 86 90 91 90 90 90 88 88 91 96 85 93 86 85 87 87 92 94 94 93 97 96 97 97
92 89 87 86 87 81 87 91 88 87 88 91 91 90 87 91 90 92 92 87 79 88 86 86 84 86 84 84 84 87 90 94 95 96 95 93 94 94 92 94 95 96 94
94 94 92 89 87 84 88 89 90 80 81 82 82 81 80 80 89 83 92 94 94 90 86 74 83 82 83 80 80 84 88 89 89 86 97 98 99 99 97 94 97 96 96
94 93 92 90 89 84 93 91 92 82 78 78 79 80 80 78 79 84 86 87 90 89 93 92 84 80 79 82 91 90 91 94 98 97 97 100 99 100 98 98 96 95 95
96 96 95 95 95 94 98 99 98 90 89 89 82 80 80 83 85 89 88 88 89 95 98 97 97 95 95 95 97 99 99 99 100 98 97 99 99 98 98 98 99 100 100
94 92 94 94 95 95 96 96 96 98 96 95 91 91 100 99 100 99 94 90 91 94 99 98 96 94 94 95 94 97 99 99 97 96 95 96 95 97 97 98 97 97 96

GFSMA_sfc_rhum_099.txt.gz
RH
91 89 92 96 97 98 98 97 94 90 76 66 63 63 63 61 60 54 54 84 81 76 67 68 72 72 71 74 74 73 71 68 64 66 67 68 67 68 68 67 67 64 62
92 92 94 97 97 97 96 96 95 87 68 62 64 62 61 58 59 59 52 60 83 78 76 70 68 68 69 73 72 70 71 66 64 66 68 68 68 68 68 67 66 63 60
88 90 96 96 98 98 96 96 96 93 64 61 63 62 58 60 58 59 54 62 68 84 82 77 74 70 70 71 71 69 65 66 67 67 68 68 68 69 68 66 64 61 59
84 92 98 97 98 98 97 96 96 94 80 66 65 60 58 59 62 65 55 52 60 58 80 84 79 77 75 68 67 66 67 68 67 67 68 68 68 67 68 66 62 61 58
85 90 90 96 98 97 94 96 96 92 82 68 63 61 60 58 61 55 57 58 61 59 58 81 82 80 78 74 69 66 66 68 68 68 68 67 67 67 66 66 63 60 59
88 91 96 96 96 98 96 96 95 95 85 68 57 63 63 61 58 60 58 54 57 61 60 59 62 63 81 78 72 67 66 67 67 67 66 65 65 65 66 66 65 63 59
91 92 97 96 92 93 95 94 95 94 88 74 71 77 75 72 70 64 61 57 58 59 61 58 54 53 60 81 78 70 66 66 66 66 67 66 66 67 66 65 64 64 63
95 92 95 96 92 91 88 90 87 85 78 77 70 74 94 88 76 69 64 64 66 60 65 67 65 62 58 60 65 77 71 67 66 67 68 71 72 72 69 67 66 65 64
97 95 95 94 94 92 90 80 76 75 80 74 73 65 92 91 82 73 75 66 69 66 61 62 65 64 65 63 70 75 86 85 78 72 73 75 77 76 75 71 69 68 67
79 95 94 94 94 93 93 84 71 72 76 77 78 71 66 68 74 86 73 76 68 70 69 63 64 66 65 68 75 77 87 89 87 84 80 78 78 79 79 79 78 77 73
77 76 95 94 95 95 93 92 86 73 72 73 81 80 81 80 74 71 77 87 77 66 63 67 66 66 67 70 71 78 89 90 89 85 83 82 82 82 80 80 80 81 80
83 76 90 91 95 94 94 92 88 82 78 77 80 84 81 78 78 80 81 78 76 67 68 68 74 72 66 65 69 80 88 90 89 87 84 83 81 81 82 83 82 81 82
95 84 97 93 94 87 89 92 93 93 90 83 86 86 86 77 70 64 60 60 72 76 77 69 70 67 64 68 67 84 88 92 90 88 86 85 83 82 80 80 81 83 84
87 93 87 96 93 89 89 93 94 91 88 89 88 91 87 85 71 57 49 58 70 71 73 63 71 75 70 67 70 87 70 93 92 92 91 89 88 87 86 84 82 81 81
88 95 94 95 94 90 91 92 92 88 88 92 91 91 86 83 84 72 61 62 65 73 61 61 65 73 70 65 71 71 80 84 93 94 93 92 90 89 89 88 88 87 85
88 91 90 91 92 93 92 93 92 86 88 91 94 92 85 78 75 76 69 78 86 79 68 62 63 67 84 69 66 71 69 84 92 94 94 93 92 91 91 90 90 89 88
88 89 90 87 86 87 89 89 86 82 79 76 78 79 80 78 84 77 71 70 71 71 71 53 50 56 84 86 81 79 83 83 79 91 91 90 90 91 91 92 92 91 92
85 82 86 87 88 84 83 83 90 82 78 78 79 85 85 85 85 82 81 83 77 76 73 67 58 63 70 76 72 79 78 72 72 78 90 90 89 89 90 91 91 91 92
76 76 79 87 89 89 87 87 87 88 89 86 86 89 84 84 88 90 91 88 84 80 84 73 64 58 68 78 77 82 78 80 78 82 87 90 91 90 92 92 92 92 92
76 75 75 76 79 79 82 87 88 87 86 82 80 81 83 87 86 88 85 86 85 85 81 77 74 69 67 64 68 69 68 69 68 63 78 85 83 89 96 94 94 94 94
75 72 75 74 74 72 71 77 80 86 86 83 76 71 73 75 84 82 80 82 84 85 79 77 77 75 73 74 78 69 77 71 69 70 74 70 71 76 81 96 92 95 96
75 74 75 76 77 69 87 93 82 76 76 73 72 70 70 87 89 91 90 87 75 79 78 77 74 79 76 71 68 75 79 83 88 68 75 76 71 77 76 80 96 96 97
82 81 78 74 75 73 91 94 95 70 71 74 75 74 71 67 85 71 93 96 96 90 85 68 74 75 75 70 68 75 79 82 84 74 82 88 94 97 96 93 97 97 97
94 92 90 87 83 86 98 96 95 87 83 83 82 79 78 74 72 78 79 78 82 86 93 90 86 80 84 94 96 91 89 86 94 95 93 100 98 99 97 97 97 97 97
93 97 94 95 94 93 96 96 97 91 89 88 86 87 92 95 99 99 95 92 90 94 98 97 98 98 97 94 95 98 98 99 100 100 97 100 99 97 96 97 97 93 92
90 88 89 92 95 92 95 96 95 95 99 99 97 93 97 95 97 99 98 99 99 99 99 97 97 94 93 94 94 97 98 100 100 98 97 96 96 97 96 95 95 96 96

GFSMA_sfc_rhum_102.txt.gz
RH
82 86 82 82 69 87 93 97 96 90 74 70 61 54 49 44 42 43 56 86 82 75 68 69 71 72 73 74 73 70 67 68 64 66 67 66 68 68 68 68 68 65 64
86 90 87 80 87 82 92 95 95 96 78 68 58 51 49 46 45 45 54 60 85 80 77 70 70 70 70 71 74 71 69 66 66 67 68 69 69 69 68 69 66 64 63
83 87 86 87 84 90 97 97 96 95 93 67 56 50 48 48 43 42 46 58 63 85 81 77 74 70 71 72 72 71 68 67 65 68 68 68 69 70 69 68 66 63 62
75 77 81 88 87 95 96 98 98 96 94 73 60 51 46 45 46 44 38 49 52 47 78 81 79 76 74 71 69 67 69 69 67 66 67 69 69 70 69 67 66 62 61
71 76 83 92 94 98 97 96 97 95 93 73 58 53 48 44 47 42 44 44 54 49 54 80 83 82 80 76 70 68 69 68 67 67 68 69 69 69 70 69 65 64 61
72 74 79 97 97 97 98 98 97 95 93 68 54 53 52 46 46 47 51 39 49 58 54 56 64 65 85 79 74 68 67 66 67 67 68 68 69 69 68 69 66 64 63
78 81 85 93 94 94 96 96 97 96 97 84 71 71 70 58 57 58 57 44 43 55 53 53 54 48 58 81 78 68 66 65 66 67 68 68 68 69 69 68 68 68 64
85 84 90 92 94 93 94 95 96 98 96 87 80 69 90 85 70 63 57 54 48 41 46 47 50 44 43 48 58 77 70 67 67 67 68 72 73 73 71 68 68 68 68
88 91 89 92 96 93 91 93 93 90 93 90 79 64 87 85 79 67 65 58 55 45 43 46 48 50 50 44 56 68 85 85 76 72 73 75 76 76 75 71 70 69 68
84 93 94 92 93 95 94 86 82 88 77 78 71 58 54 55 69 79 65 63 64 58 53 44 46 48 48 47 59 69 82 87 87 84 78 77 78 79 79 78 77 77 75
71 80 97 93 94 94 92 90 85 82 78 72 68 66 62 62 56 52 63 72 67 58 48 53 49 48 49 50 52 62 85 89 87 86 84 84 82 80 81 81 81 80 80
63 67 72 94 94 92 93 92 87 83 81 73 63 64 63 71 66 63 51 61 65 56 53 52 55 51 50 53 58 74 86 89 90 87 85 84 84 84 84 84 84 83 83
70 67 72 87 94 93 92 94 93 91 90 84 78 72 74 74 77 78 66 70 62 56 62 53 55 57 59 61 57 76 84 90 91 89 87 86 85 83 82 82 82 84 86
64 69 76 82 86 88 92 95 95 95 90 92 87 85 81 70 75 77 82 74 62 57 54 65 62 61 57 53 60 82 62 90 92 92 91 91 86 84 84 83 82 81 80
70 82 84 96 92 88 86 92 90 91 91 93 93 90 86 90 92 88 76 71 69 61 42 41 61 58 53 52 60 63 66 76 92 93 93 92 89 89 89 88 88 87 86
75 83 92 86 92 91 92 92 94 93 95 95 93 92 89 92 92 92 86 82 79 67 57 42 44 45 53 46 58 63 60 80 91 94 95 94 93 92 91 91 91 90 89
77 80 81 80 91 94 94 96 94 92 93 93 94 95 93 89 89 83 83 81 79 79 77 50 47 52 49 60 56 56 56 69 60 90 94 94 94 93 92 92 92 91 91
73 77 80 74 78 80 85 87 89 83 87 87 87 86 78 62 73 72 78 79 74 65 70 69 57 57 53 50 57 56 55 56 69 79 91 92 92 92 92 92 91 91 91
67 71 71 78 78 74 78 80 79 76 78 76 74 71 66 77 83 81 83 84 78 62 72 81 57 55 60 57 58 56 58 59 66 77 88 91 90 89 88 88 88 89 90
68 69 69 71 75 75 73 73 74 79 70 66 68 68 76 80 82 81 79 79 82 86 86 85 82 71 60 52 50 53 61 56 54 46 60 70 72 80 93 91 91 92 92
67 65 68 69 72 72 70 76 75 78 77 79 79 74 71 67 78 72 63 76 85 90 87 83 80 79 74 67 60 52 59 57 54 52 53 55 53 56 64 91 85 95 96
66 66 67 69 70 64 85 92 81 74 75 74 75 76 76 85 86 92 91 88 76 80 81 79 81 80 72 62 56 58 61 67 74 53 57 59 54 59 78 85 95 96 96
73 70 68 66 69 76 96 96 94 66 70 71 71 71 71 61 78 62 90 96 94 91 90 66 73 72 72 69 72 68 68 70 75 68 90 84 92 98 96 90 96 97 97
96 93 93 90 92 86 96 96 99 90 86 80 78 86 92 89 90 91 81 78 83 85 88 86 87 87 94 94 96 95 97 98 98 96 96 100 98 98 95 96 96 91 89
92 93 91 91 91 91 95 96 93 93 92 92 93 92 90 90 98 98 98 98 98 100 98 98 100 98 94 94 95 96 98 99 100 100 98 100 99 96 95 97 96 93 94
88 86 89 91 94 91 94 95 93 93 99 96 94 93 96 94 96 96 97 99 100 100 98 96 95 94 93 94 91 95 95 100 100 99 96 96 95 96 95 94 94 95 94

GFSMA_sfc_rhum_105.txt.gz
RH
76 74 73 70 63 74 73 83 88 94 94 91 86 66 60 53 59 56 64 86 83 78 69 68 70 73 75 74 75 75 72 66 65 65 67 69 66 69 70 70 68 68 66
76 71 75 71 77 84 90 85 90 94 94 93 83 65 60 44 53 56 54 63 86 81 75 71 71 71 71 73 73 70 67 66 65 67 67 69 70 70 70 70 67 66 64
74 75 80 83 85 84 83 90 92 96 96 97 76 70 54 42 43 56 56 55 68 86 82 78 76 72 70 71 72 70 70 71 70 70 69 70 71 70 70 70 67 65 64
72 76 81 81 76 89 92 95 96 96 97 97 86 66 49 46 44 49 49 53 58 53 80 82 81 78 77 72 72 70 69 68 71 71 68 70 71 72 70 70 68 65 64
72 74 78 74 77 79 96 96 98 94 96 98 91 53 56 49 44 34 53 53 55 59 54 82 85 84 82 78 71 67 67 67 66 66 69 68 71 71 71 70 69 66 64
74 72 78 74 77 92 96 97 97 96 94 95 87 63 56 55 41 45 39 45 59 64 50 58 64 67 85 81 76 67 68 67 66 67 68 69 70 70 72 72 69 67 66
66 75 76 90 91 96 97 97 97 98 99 96 92 86 75 72 62 59 51 38 45 51 48 64 57 54 62 83 79 70 68 68 66 66 67 68 70 74 75 71 71 69 66
66 70 79 88 92 94 97 98 97 98 99 97 90 76 89 82 72 64 56 50 52 45 52 61 63 54 52 55 64 78 70 67 65 66 69 74 75 76 77 71 71 70 70
72 74 77 86 92 92 95 96 96 96 96 98 78 68 89 89 73 68 67 54 54 47 46 51 54 46 46 45 60 71 82 82 77 72 73 75 77 77 76 71 71 71 71
71 74 82 90 89 94 95 93 87 96 95 95 92 91 77 81 80 78 69 72 62 51 51 46 45 46 43 47 57 65 83 84 86 84 77 76 78 78 78 77 76 76 73
66 78 86 81 92 92 93 92 88 92 94 91 87 90 83 74 67 60 67 77 70 65 47 48 43 45 47 48 50 60 85 85 85 85 84 84 80 80 81 81 81 80 80
71 66 84 91 89 90 92 94 90 89 85 84 84 76 68 71 69 64 57 67 74 66 59 49 52 48 47 48 51 68 84 88 87 85 84 84 84 85 84 84 83 83 83
65 66 74 84 95 92 88 93 92 94 89 83 78 69 65 65 63 62 56 76 83 76 69 56 48 49 45 50 53 72 84 88 88 88 88 86 85 85 85 85 85 86 86
63 64 73 78 82 87 93 92 94 95 93 93 85 89 78 72 78 76 80 85 90 83 78 70 51 52 53 58 64 81 61 86 89 90 89 87 87 86 85 84 83 82 81
61 67 65 67 89 87 90 94 94 95 96 96 94 90 92 91 89 83 81 80 79 90 74 68 62 60 60 60 64 64 66 78 89 90 91 92 90 88 88 89 88 86 84
64 68 71 74 78 86 90 92 94 92 94 95 96 95 93 93 93 94 94 92 89 79 76 58 59 58 63 53 58 62 62 78 87 91 91 91 91 90 89 90 90 89 89
65 67 71 88 94 95 94 92 89 91 93 92 93 94 95 94 96 96 96 93 92 86 82 64 57 60 76 72 55 57 62 62 63 90 92 92 93 93 92 92 92 92 91
65 65 68 80 80 84 89 93 96 94 95 96 94 94 94 95 96 96 96 94 89 83 86 78 65 60 58 57 74 71 62 47 51 69 91 93 93 94 93 94 93 92 91
69 64 64 73 73 76 83 89 88 88 87 84 85 89 88 90 92 87 85 80 77 74 77 84 81 69 59 54 58 65 67 70 65 69 85 91 92 93 92 92 91 90 90
68 69 67 72 77 72 72 71 72 76 76 72 75 76 78 75 77 75 72 74 72 73 80 80 73 66 61 57 64 70 69 60 61 49 56 64 73 87 89 88 90 91 91
72 69 72 74 75 77 68 72 70 78 74 71 76 68 70 68 77 74 65 70 70 75 79 77 76 78 75 71 66 63 65 58 56 57 60 60 60 62 87 96 91 94 96
70 73 73 74 74 64 93 95 86 69 68 70 69 66 62 84 85 87 87 86 79 70 74 80 79 78 75 70 67 69 67 70 75 62 90 82 89 94 91 90 94 94 94
76 74 75 75 85 81 96 97 97 73 80 75 75 78 76 64 90 77 93 94 92 90 98 83 87 85 86 86 94 92 92 93 94 91 91 97 93 97 95 92 95 90 90
94 92 93 89 87 84 96 97 98 80 82 90 92 90 92 93 95 94 94 97 95 96 97 96 97 97 96 94 94 94 97 98 98 98 97 100 99 98 97 98 94 90 89
93 93 91 91 91 92 96 97 94 92 95 93 90 92 90 92 96 96 96 99 99 99 95 93 94 94 94 94 95 96 99 100 100 100 97 100 99 97 97 97 97 92 92
96 90 91 92 94 92 94 94 93 95 96 94 93 93 95 93 94 96 96 99 100 99 97 95 95 94 93 93 92 95 97 100 100 99 96 98 96 96 96 94 95 96 92

GFSMA_sfc_rhum_108.txt.gz
RH
92 90 90 90 87 92 92 92 90 96 94 94 93 89 82 83 76 74 75 87 84 78 72 70 71 72 75 76 78 78 74 66 64 69 71 73 66 72 75 72 71 69 68
92 92 92 92 87 92 93 94 94 96 96 95 94 91 88 80 72 70 78 84 87 83 76 71 71 72 73 76 79 77 70 66 66 68 70 74 68 76 77 73 70 69 66
88 88 91 90 90 95 93 95 96 96 97 96 94 92 92 84 72 64 72 80 85 86 84 78 76 76 72 74 74 72 69 72 69 69 65 69 70 73 75 73 70 68 66
84 88 91 91 91 96 96 97 97 98 98 98 97 95 94 82 67 67 66 73 76 72 87 85 82 79 78 74 71 68 66 69 70 68 68 68 74 73 73 74 70 68 67
83 86 88 90 91 95 97 97 97 95 98 98 97 95 97 72 70 60 67 70 74 73 77 88 86 86 82 79 73 65 63 67 70 67 65 70 73 74 73 73 72 69 67
83 86 89 89 88 95 98 97 95 96 94 95 95 97 99 68 56 63 63 66 70 69 70 79 86 84 86 83 78 69 66 63 65 66 65 68 71 74 74 73 72 71 68
81 86 90 89 91 96 95 97 97 98 99 94 99 100 96 86 69 63 72 67 73 69 73 74 80 78 85 87 82 72 65 71 67 66 67 69 74 77 78 76 73 71 69
81 84 90 94 94 96 99 99 98 98 99 98 97 97 98 87 82 68 71 69 65 64 66 73 72 71 75 81 85 79 69 70 69 64 70 74 76 78 78 74 73 73 72
78 84 90 93 95 94 97 98 97 97 99 99 94 93 97 96 89 84 80 76 72 64 67 70 73 68 69 73 79 84 85 81 77 72 74 75 77 78 78 74 74 73 73
78 85 88 91 92 94 96 95 92 97 98 98 98 95 87 79 92 97 87 85 79 71 72 69 69 66 64 65 72 80 86 85 85 83 77 77 78 79 79 78 77 76 74
81 81 88 90 94 94 94 94 93 98 97 96 97 99 96 95 88 89 94 92 84 77 75 66 62 66 58 67 69 73 85 86 84 84 82 83 79 81 81 81 80 80 79
82 85 86 91 93 91 95 94 92 94 94 98 97 97 93 93 90 82 79 85 83 79 75 77 72 68 65 70 64 70 83 86 85 84 83 83 84 85 83 83 83 83 83
79 84 87 91 91 90 94 92 93 93 93 96 96 92 91 86 80 74 77 87 91 88 86 76 76 70 64 73 66 75 85 88 87 86 85 85 85 85 85 86 86 86 85
80 81 86 91 91 91 95 94 95 96 94 94 91 90 86 78 81 80 76 88 96 96 93 83 74 74 69 69 76 80 76 88 88 89 88 87 87 86 86 86 86 86 86
71 79 81 87 91 91 91 93 94 95 96 95 95 92 91 96 91 89 84 82 85 98 94 89 88 74 70 70 75 80 80 84 88 90 90 90 89 88 90 90 88 87 85
73 81 81 81 89 91 94 94 96 95 97 98 97 98 97 95 97 97 95 92 84 80 81 68 74 72 80 63 71 75 76 82 87 88 88 89 90 90 89 89 88 90 88
79 82 81 82 94 93 94 96 96 95 96 96 97 97 98 96 96 96 97 95 94 91 84 77 72 66 72 84 75 83 74 76 79 90 90 91 92 90 90 91 90 89 88
79 78 82 90 89 94 94 97 97 94 95 96 94 95 94 95 96 95 96 96 95 94 91 86 72 72 72 69 78 82 71 68 79 79 90 92 91 92 92 92 93 92 92
78 78 80 84 88 91 94 95 94 95 94 94 93 95 94 96 98 97 96 96 94 89 92 88 80 76 76 78 75 78 85 89 79 84 90 88 89 91 92 93 93 94 95
80 79 78 80 84 83 85 88 91 93 93 92 91 90 90 93 94 94 95 93 90 94 92 91 86 79 87 82 82 78 85 83 78 60 68 72 84 93 94 95 95 96 95
80 80 83 84 85 83 80 86 85 90 88 88 87 83 86 86 92 90 82 86 88 88 87 88 90 90 85 81 82 73 73 71 73 75 78 87 95 88 92 93 92 95 95
83 83 82 86 89 73 96 97 95 85 83 84 88 86 80 93 90 91 93 92 87 86 89 90 91 90 86 79 82 83 80 84 95 95 95 97 86 96 94 94 93 91 91
88 90 90 87 85 84 96 96 98 84 95 94 93 91 88 84 92 86 96 94 94 98 100 92 95 94 94 97 93 93 96 98 98 97 98 99 97 98 98 95 92 91 92
95 94 92 88 88 88 96 97 97 90 92 91 92 92 94 93 93 94 95 97 95 95 97 92 98 98 98 96 96 97 98 99 100 98 97 100 100 99 99 99 90 86 85
94 93 92 92 92 94 96 97 96 93 92 93 90 92 90 93 97 95 98 98 98 98 94 93 94 92 92 92 94 99 99 100 100 100 97 100 99 98 98 98 98 90 85
95 92 94 94 92 94 96 95 92 92 95 94 93 93 95 94 96 96 98 97 98 98 97 96 95 95 93 92 91 96 97 100 99 98 96 98 98 97 98 98 98 98 99

GFSMA_sfc_rhum_111.txt.gz
RH
97 97 98 98 97 98 97 98 97 97 98 96 94 90 89 87 93 96 97 90 86 81 74 71 72 72 73 77 81 77 73 70 69 69 71 76 77 77 76 74 73 71 70
97 97 97 97 98 97 97 96 97 98 98 97 97 94 91 89 90 91 91 86 89 84 79 74 71 71 72 77 81 80 75 72 69 70 72 76 77 80 79 76 73 71 69
96 96 98 98 97 98 97 98 98 99 99 98 95 96 93 92 91 85 83 86 86 88 85 79 76 76 74 75 79 78 75 75 69 70 72 71 75 77 76 76 73 71 69
94 96 97 97 98 98 98 98 98 98 98 97 97 98 96 96 95 82 82 83 86 78 86 86 83 79 79 76 74 71 69 71 71 70 70 73 72 75 76 75 72 70 69
93 94 96 97 94 98 98 98 99 95 96 98 98 98 98 98 97 78 81 86 90 88 90 89 87 87 84 80 73 68 66 67 68 69 67 65 72 74 75 76 72 70 69
93 96 96 96 97 97 98 99 98 99 96 97 96 96 96 98 98 79 81 78 82 86 90 91 88 88 88 83 78 68 66 65 66 67 66 66 74 76 75 75 74 72 69
93 96 97 96 96 97 97 97 98 98 99 98 98 98 98 99 99 84 76 82 80 81 86 91 92 89 87 87 82 72 64 67 65 69 65 68 74 79 80 76 74 73 72
92 94 95 96 95 98 99 98 97 99 97 97 98 96 100 100 96 84 81 84 82 80 82 86 87 87 87 89 89 78 70 67 66 64 71 76 72 79 81 77 76 74 73
92 93 95 96 96 95 97 98 96 94 97 98 94 97 99 99 91 89 84 81 85 83 82 80 81 80 84 87 89 86 85 81 78 75 72 76 79 81 80 76 75 75 74
90 93 95 96 97 96 95 96 94 95 96 98 99 98 93 73 83 96 91 84 77 75 80 86 81 76 77 81 84 87 89 86 84 82 78 77 80 80 80 79 79 77 75
92 94 96 97 96 97 94 93 95 96 94 98 97 97 97 95 95 92 90 94 87 82 74 81 82 77 72 75 80 84 89 89 87 85 83 81 80 81 81 81 81 80 80
92 95 95 95 92 95 96 94 93 96 95 96 97 94 91 89 95 95 96 97 90 88 82 82 81 76 72 74 72 80 88 89 88 86 86 84 85 83 83 83 83 82 82
91 96 96 97 95 92 93 93 95 96 97 96 96 95 94 92 96 93 91 94 91 90 90 86 79 73 65 72 72 80 87 89 89 86 84 84 84 85 86 85 85 84 84
91 94 95 95 94 92 94 95 96 96 96 96 96 95 94 93 91 83 80 91 97 96 95 86 82 85 77 72 70 82 77 88 88 88 86 87 88 88 88 88 88 88 88
88 95 95 96 94 90 92 94 94 96 96 96 96 95 94 93 90 87 84 87 91 98 95 91 88 80 74 75 76 75 74 87 89 89 89 88 88 88 89 89 90 89 88
84 93 95 96 96 94 94 94 94 93 96 97 96 94 92 97 94 95 93 92 88 82 88 82 81 81 82 70 75 78 77 88 90 90 90 90 90 90 90 91 91 89 87
87 87 92 96 96 94 94 96 96 94 96 96 96 95 92 90 96 99 98 96 95 90 86 81 77 81 76 86 79 85 83 86 84 90 90 90 91 90 91 92 92 91 91
91 91 91 94 95 94 96 96 98 97 98 98 98 98 98 97 96 95 95 95 95 95 93 91 90 91 87 77 79 87 84 76 82 87 91 91 90 91 92 93 94 94 95
93 92 92 91 97 96 97 96 95 96 95 94 95 96 95 98 98 98 96 95 96 95 96 95 94 89 80 79 78 79 83 86 84 88 91 92 96 97 98 98 98 98 98
93 90 90 91 93 94 95 95 95 96 94 93 93 93 93 95 95 97 97 96 96 98 98 96 92 85 83 85 87 84 91 87 85 69 79 94 92 94 94 94 94 95 95
90 88 92 92 92 91 89 94 94 96 96 96 96 94 93 92 98 97 93 96 96 98 98 98 96 92 89 91 93 92 87 84 86 89 93 92 92 89 91 92 92 94 94
89 91 94 92 87 78 96 98 97 95 94 94 96 94 90 97 97 100 99 98 95 95 96 94 93 94 91 86 82 82 84 93 95 96 96 97 88 97 95 95 93 92 92
93 96 92 87 88 87 97 96 98 92 93 94 93 94 88 84 94 89 98 99 98 98 100 95 95 96 96 97 95 96 97 97 99 97 98 100 98 98 98 95 92 92 92
95 94 94 92 92 90 97 97 100 92 92 93 94 94 94 94 95 96 94 95 96 96 96 91 97 98 98 96 97 97 98 99 99 97 97 99 100 99 99 99 90 86 84
95 95 93 93 94 96 97 100 94 92 93 94 93 94 92 94 97 96 96 97 97 98 94 92 93 94 94 93 95 98 100 100 100 99 97 99 99 99 98 99 99 90 80
100 95 97 96 96 97 97 95 92 92 95 95 95 95 96 96 97 99 96 95 97 98 97 96 95 94 93 92 92 97 98 100 100 98 96 97 98 96 98 99 98 99 98

GFSMA_sfc_rhum_114.txt.gz
RH
98 98 98 98 98 98 99 99 99 98 98 97 97 95 93 94 93 97 99 95 91 83 76 71 70 71 72 75 80 79 74 72 70 67 71 76 78 76 77 78 77 74 73
98 98 98 98 98 97 98 98 98 98 98 98 97 95 92 93 94 95 98 96 96 89 80 75 71 71 71 73 82 79 76 73 69 71 73 76 79 79 80 76 74 73 71
96 96 98 98 97 98 98 99 99 99 99 98 97 97 98 95 96 93 95 98 96 94 87 81 78 76 73 74 77 78 77 75 71 72 73 73 77 78 78 77 74 72 70
95 97 97 98 98 98 98 98 98 98 98 97 99 99 99 95 95 92 93 96 94 86 89 87 83 79 78 78 74 74 73 73 71 72 74 73 76 78 77 76 74 72 71
95 96 97 98 97 99 98 98 98 94 98 98 97 98 99 97 97 93 93 89 90 90 88 90 88 87 84 82 77 74 71 67 69 70 74 72 74 78 78 76 74 72 70
95 96 98 97 97 97 98 99 97 96 97 97 94 97 98 98 98 99 94 85 89 95 95 91 90 89 89 85 80 73 70 68 68 70 69 70 65 77 78 78 75 72 71
94 96 97 97 98 96 96 97 97 98 99 96 99 99 99 98 98 98 98 92 90 91 95 96 94 93 89 86 82 76 68 66 64 66 68 69 74 82 82 78 77 75 73
95 96 96 96 97 98 98 97 97 99 99 99 98 98 100 100 99 98 98 88 90 86 89 92 93 93 90 87 88 80 73 63 64 67 73 71 78 81 83 79 78 76 75
93 95 95 96 97 97 94 95 96 95 98 99 95 96 100 98 98 99 98 90 89 90 87 90 92 86 89 90 91 87 85 81 76 73 73 75 77 77 82 79 78 78 76
94 95 96 96 97 97 97 97 95 95 95 98 98 95 96 93 93 100 99 95 87 88 92 91 91 87 87 89 90 91 91 88 84 79 75 77 79 80 81 81 80 77 76
94 95 96 97 97 98 97 97 96 96 95 94 94 99 98 96 95 92 98 98 93 83 84 88 88 86 84 86 88 89 92 91 89 87 85 80 80 82 82 83 82 81 80
96 97 97 97 97 97 97 97 93 95 95 95 96 94 94 92 94 90 93 96 95 94 85 84 88 84 82 82 81 86 92 92 90 88 88 87 84 83 84 84 83 80 81
95 97 96 97 98 96 96 95 94 95 96 95 96 95 95 95 93 94 92 98 96 98 95 89 80 82 77 81 80 87 90 93 91 89 88 88 87 88 87 86 85 84 83
90 96 96 95 96 95 94 94 94 95 97 97 96 95 95 94 92 89 96 92 100 98 97 89 84 79 76 75 78 87 78 93 92 90 89 88 89 90 90 91 90 89 87
91 96 95 96 97 95 93 95 95 95 97 97 96 95 94 95 95 95 94 90 88 97 90 89 93 81 76 74 77 77 77 88 92 91 90 90 89 88 90 90 91 91 91
90 97 96 96 96 94 94 94 93 93 97 98 96 96 95 95 95 96 94 91 86 81 87 81 88 86 77 72 80 80 74 84 90 91 91 91 90 90 90 91 91 91 91
91 95 96 96 96 91 95 96 94 93 97 96 96 95 95 95 96 96 94 93 90 92 85 84 85 84 87 88 88 87 87 87 85 91 91 92 92 91 91 92 92 93 93
89 92 95 94 94 94 96 95 97 96 96 98 97 96 94 95 95 93 94 95 94 94 92 84 91 96 93 91 90 93 87 81 84 90 92 94 92 94 95 96 96 96 96
91 91 96 96 91 95 94 95 96 97 96 95 94 97 95 96 97 96 97 96 97 97 97 97 96 96 95 98 95 93 87 91 91 94 97 100 99 98 98 97 97 96 96
91 90 94 96 96 96 96 96 96 97 96 96 96 96 96 98 98 98 98 96 97 97 97 96 96 99 96 95 94 92 93 89 88 78 92 93 93 94 94 95 95 95 94
91 89 93 96 97 97 96 98 96 97 97 97 96 95 94 94 99 98 96 98 99 99 99 98 99 99 97 98 94 91 89 88 95 96 93 94 93 92 93 94 92 92 91
92 94 95 96 93 85 98 99 100 98 98 98 98 98 95 100 100 100 100 100 97 99 98 98 97 98 95 91 93 94 92 96 99 97 97 98 89 97 96 95 92 91 91
96 95 93 90 91 90 97 97 99 97 98 98 98 98 98 93 100 97 99 99 98 98 100 97 96 94 94 96 96 95 95 95 98 97 98 99 97 98 98 97 94 92 92
96 96 95 93 94 92 98 98 100 93 94 94 95 95 96 95 96 98 98 97 97 97 97 93 98 99 99 96 96 97 97 98 98 97 98 99 100 99 99 100 91 85 82
96 97 94 94 96 97 98 100 95 94 95 97 94 95 94 96 98 98 97 98 98 98 94 93 94 94 93 94 96 99 100 100 100 99 98 99 99 99 99 99 99 90 79
99 97 96 96 97 97 98 96 94 93 97 97 97 97 98 98 99 100 96 97 98 98 98 96 95 93 93 93 94 98 100 100 98 98 98 98 97 97 99 99 99 98 94

GFSMA_sfc_rhum_117.txt.gz
RH
98 99 99 99 99 99 96 96 97 99 98 97 97 96 96 95 96 99 98 96 94 86 81 74 73 70 70 74 78 79 76 73 69 70 72 78 77 76 76 77 78 75 73
99 99 99 99 99 98 99 97 99 99 98 98 98 96 95 96 95 96 98 98 98 94 86 78 73 69 70 71 80 81 76 76 72 67 70 78 78 78 80 77 75 74 72
98 98 98 98 98 98 98 99 99 99 99 99 98 97 96 95 96 96 98 98 96 99 97 84 78 75 72 72 78 79 78 75 74 70 73 76 79 79 79 78 75 74 72
97 98 98 98 98 99 98 99 99 99 99 99 99 99 99 98 97 98 98 98 96 95 98 93 84 80 78 76 75 72 72 74 76 75 74 76 77 78 79 77 76 74 72
96 98 98 98 98 98 98 98 98 95 98 98 97 99 99 99 98 96 97 97 97 98 95 93 88 86 83 81 78 72 72 71 72 75 74 74 75 78 79 77 76 74 72
96 97 98 98 98 99 98 99 98 97 96 96 94 97 98 98 98 98 96 95 97 97 95 95 91 90 88 84 80 75 72 67 66 72 74 73 76 76 80 79 77 75 73
96 98 98 98 98 97 97 98 98 98 99 98 99 99 99 98 97 97 98 97 98 95 95 97 96 98 92 88 83 77 71 70 68 69 71 74 75 71 82 80 78 75 73
96 97 97 98 98 96 98 98 98 99 99 98 99 98 100 100 98 98 98 98 97 95 95 96 97 97 96 90 86 82 75 72 69 69 75 78 72 76 80 80 79 78 76
96 95 96 97 98 97 97 97 97 97 99 99 96 96 100 99 96 97 99 98 98 98 93 94 97 96 95 95 89 88 87 84 76 72 76 78 76 76 79 79 79 78 77
94 95 95 96 97 97 97 96 95 96 96 98 99 98 94 92 99 100 98 98 97 95 94 96 97 96 90 93 92 93 92 89 85 78 78 78 76 76 77 80 80 79 79
93 95 96 97 97 97 95 95 92 97 96 95 96 99 97 97 97 97 99 100 98 96 92 92 94 95 91 91 92 91 92 92 89 88 82 78 77 77 79 81 82 81 81
97 96 96 97 96 98 98 98 97 96 96 96 96 97 95 96 96 96 99 96 95 98 95 91 93 91 90 90 88 91 94 93 91 89 88 87 83 82 81 83 83 81 81
97 96 96 98 97 97 97 97 96 97 97 97 96 96 94 92 90 89 96 95 96 100 100 98 94 89 84 87 87 91 94 95 93 91 89 89 90 89 86 85 85 84 83
93 92 93 94 96 97 95 94 96 96 97 98 96 97 95 93 94 89 92 93 99 100 100 98 96 91 85 84 84 91 84 94 94 93 92 90 90 92 92 92 89 88 86
91 96 93 96 97 97 94 95 96 97 98 96 96 96 96 96 97 98 93 88 87 99 98 99 98 86 82 83 84 87 86 93 94 94 93 92 90 90 91 92 93 94 92
92 96 94 95 98 96 94 94 96 95 96 96 97 97 95 96 95 98 98 96 94 93 95 88 91 88 82 77 83 86 84 88 95 95 95 94 93 91 91 91 92 92 92
96 96 93 93 96 97 96 96 95 95 96 96 98 97 96 95 97 96 98 96 95 94 89 87 80 85 93 89 86 87 90 92 90 96 94 95 94 93 93 93 92 93 94
95 95 95 97 96 94 95 96 96 94 95 95 96 98 96 97 96 96 97 97 95 96 93 89 93 97 92 92 90 92 92 84 85 92 95 94 94 96 97 96 96 96 96
96 96 96 96 94 95 94 93 94 94 93 93 95 97 95 96 96 95 95 96 96 94 94 93 93 97 97 97 98 96 96 96 96 97 100 99 98 98 98 98 98 98 97
96 97 96 97 94 94 92 93 94 96 95 94 95 94 93 95 96 96 97 95 95 97 96 96 97 99 98 98 97 95 98 96 96 84 95 94 94 96 96 96 96 96 95
96 95 97 98 96 94 96 96 97 98 98 98 97 96 95 96 99 98 97 98 98 98 98 98 98 99 99 100 98 96 96 96 99 95 96 96 94 94 94 94 93 93 93
95 97 97 98 99 94 99 100 99 98 97 98 98 98 96 100 100 100 100 100 99 98 98 99 98 98 96 94 96 96 96 100 100 98 96 98 92 98 97 95 92 90 90
93 94 96 95 96 93 98 98 100 98 98 98 98 98 99 99 100 98 99 99 99 99 100 96 96 96 96 96 96 97 98 97 99 99 95 100 98 98 98 93 90 90 89
96 98 97 96 96 92 98 99 100 99 98 97 98 97 99 99 99 98 98 98 98 98 98 96 99 100 99 97 97 96 97 99 98 98 97 99 99 99 99 99 93 88 85
97 99 97 97 96 97 97 97 96 96 97 98 96 97 96 98 98 99 98 98 98 99 95 94 94 94 94 96 97 99 100 100 100 100 100 97 99 99 99 99 100 95 87
100 99 100 99 100 99 97 96 93 93 96 96 97 96 98 98 99 99 98 98 98 100 98 97 96 95 94 95 95 98 100 100 98 99 99 98 97 97 98 99 99 98 93

GFSMA_sfc_rhum_120.txt.gz
RH
96 99 99 99 99 99 99 99 98 99 98 98 97 95 94 95 95 98 98 97 96 84 84 79 75 74 73 76 79 77 75 71 70 69 72 77 78 76 77 76 76 78 77
96 98 99 99 99 99 97 96 95 99 99 97 97 96 94 94 93 95 97 97 99 92 87 88 77 73 71 70 79 78 77 75 72 67 73 77 75 76 74 72 79 76 73
94 97 98 99 99 99 99 98 99 99 99 98 97 98 96 92 94 95 96 97 98 99 92 88 90 78 73 70 76 79 78 76 72 72 74 76 74 78 72 81 78 76 74
95 99 98 99 99 99 99 99 98 98 99 99 99 98 98 96 95 95 95 97 97 96 98 97 93 87 78 76 74 73 71 75 75 74 75 75 75 75 77 80 77 76 74
97 98 98 99 99 99 98 98 97 96 98 98 99 98 98 98 97 96 97 97 97 97 96 98 98 93 83 80 78 72 70 67 68 74 73 74 75 77 80 79 77 76 74
97 98 99 99 98 98 99 99 97 98 97 95 95 96 99 99 98 99 98 96 96 96 96 97 97 95 89 84 82 76 70 64 64 74 73 70 73 76 78 79 77 76 74
97 98 98 98 98 97 97 94 98 98 99 97 99 99 99 97 98 97 98 97 97 97 98 98 97 93 87 87 85 79 71 63 68 69 74 74 76 79 81 81 78 76 75
97 97 97 98 97 97 98 97 98 99 99 98 99 98 100 99 99 97 96 97 97 96 98 98 95 93 91 88 86 81 76 71 68 67 75 81 77 76 80 80 80 78 76
96 96 97 97 98 95 97 98 97 97 98 98 96 95 99 98 99 99 94 98 98 98 97 98 96 93 92 91 88 84 86 84 78 76 78 81 80 78 76 79 78 79 78
96 95 96 96 96 94 97 96 95 96 95 97 98 97 92 92 98 99 99 98 98 97 97 98 97 94 92 92 89 86 90 90 87 80 80 82 81 76 74 76 79 79 79
96 96 96 97 97 95 94 96 97 96 95 95 95 99 98 98 96 98 99 99 98 97 95 96 97 96 94 91 93 91 93 91 90 87 81 78 78 78 75 76 78 80 81
98 97 96 97 97 96 96 94 94 95 96 95 96 96 96 98 97 98 98 98 97 98 97 96 97 94 93 92 91 92 94 93 92 90 89 84 80 79 78 75 76 79 82
98 98 97 97 96 95 95 94 94 94 94 94 95 96 94 93 93 93 92 93 99 99 99 98 96 94 90 92 91 94 95 95 93 92 90 90 89 87 84 82 81 82 82
95 94 94 93 92 95 97 97 98 96 97 97 97 97 96 94 95 93 89 96 99 100 100 99 97 96 90 89 88 95 89 97 95 93 92 91 90 91 92 90 88 87 86
83 82 92 92 92 95 96 98 97 98 97 97 97 97 96 95 97 95 92 91 94 99 97 100 99 98 97 94 91 88 87 95 96 95 94 93 92 91 92 93 94 93 92
95 95 94 92 93 94 96 97 97 96 96 97 97 97 96 94 96 96 96 96 94 93 96 98 98 98 96 91 88 88 87 90 95 95 96 95 94 93 93 92 93 94 95
96 96 93 92 96 96 98 98 96 96 96 97 97 96 96 94 96 97 97 98 96 93 95 98 95 95 97 90 78 90 88 89 89 96 95 96 96 96 95 95 94 94 94
96 96 96 94 95 98 97 97 97 95 95 97 96 97 96 96 96 96 96 96 98 97 97 97 97 96 94 92 89 92 90 83 87 98 98 97 97 97 96 96 96 96 96
97 97 96 95 94 96 97 95 93 94 95 95 95 96 95 96 96 98 97 97 96 96 97 98 97 96 95 97 98 95 95 96 98 98 100 100 99 98 98 99 98 97 97
97 98 96 94 95 96 94 95 95 95 96 94 92 92 94 96 96 96 97 96 96 98 97 98 96 99 98 98 96 96 99 99 98 89 96 96 96 97 97 97 97 97 97
91 90 96 96 96 97 97 96 94 95 94 95 94 94 94 94 98 96 94 95 96 97 97 98 97 97 97 99 98 96 96 96 99 97 97 97 96 96 96 95 95 95 95
89 91 93 96 96 94 99 100 97 95 96 97 98 97 96 99 100 100 100 100 97 97 98 97 95 98 94 94 97 97 96 100 100 98 97 98 94 98 98 96 94 93 91
91 92 92 92 94 95 98 100 100 98 98 97 98 98 98 98 100 99 99 99 99 99 100 94 96 97 98 97 96 99 98 98 99 99 94 99 99 99 98 94 92 90 89
94 96 95 94 93 92 97 99 100 99 99 98 98 99 99 99 100 99 98 99 98 98 99 99 99 100 99 98 97 96 96 99 99 99 95 98 99 99 100 99 90 88 86
95 96 95 96 97 97 97 97 95 96 97 97 95 96 97 99 99 100 98 98 98 99 96 96 96 96 96 97 98 99 100 100 100 100 100 98 99 99 99 99 99 88 84
95 91 92 94 92 98 98 98 95 94 97 96 94 95 98 99 99 100 99 98 98 98 98 98 97 96 95 96 96 99 100 100 99 99 100 97 98 97 99 99 98 98 97

GFSMA_sfc_rhum_123.txt.gz
RH
89 88 86 89 84 84 79 80 81 79 78 77 75 73 70 70 69 64 64 96 96 86 82 87 88 80 79 80 82 82 79 73 71 70 73 76 76 78 74 75 79 78 76
88 93 90 88 90 83 83 78 79 81 77 77 79 80 73 68 66 68 65 69 98 98 83 86 92 87 75 73 81 78 77 77 75 71 75 77 77 75 77 76 77 78 76
86 92 92 89 84 90 88 88 89 89 80 80 80 84 70 69 67 66 66 68 71 100 97 82 91 89 81 72 78 77 76 75 75 73 76 78 75 75 74 77 77 79 76
86 91 93 89 87 92 96 95 95 94 84 80 78 76 75 74 70 68 65 66 66 65 92 95 84 88 92 80 73 72 73 78 76 76 75 76 75 76 77 79 80 80 78
88 91 90 88 91 89 92 93 95 89 90 90 81 78 79 79 74 67 68 67 68 69 68 90 92 93 94 88 78 71 70 70 73 72 74 75 76 76 79 78 79 78 76
90 90 88 90 90 91 93 92 89 93 87 85 84 83 84 84 79 77 73 67 68 70 72 72 82 95 96 89 81 77 70 69 69 71 70 72 76 76 79 79 78 77 76
87 89 88 90 89 91 94 94 94 96 97 94 96 98 97 91 91 88 76 76 76 74 77 79 82 97 97 92 84 80 71 68 67 67 73 76 78 78 79 79 78 77 75
86 83 87 88 91 92 93 95 95 98 96 96 95 92 95 94 96 86 92 88 82 76 81 83 91 95 96 88 79 82 77 74 68 70 78 78 78 78 79 78 79 77 76
80 82 84 84 90 90 91 90 94 89 93 96 85 76 92 83 86 86 91 88 83 91 86 82 86 96 94 85 78 79 87 84 76 76 77 81 79 76 77 78 78 79 78
78 81 88 87 88 91 93 90 88 90 85 90 92 89 77 66 73 79 83 91 90 80 92 88 87 94 94 82 76 77 90 88 85 78 78 81 81 77 76 74 77 78 78
89 86 91 92 93 90 88 92 88 90 89 82 82 90 94 90 80 79 78 86 85 82 84 93 90 95 93 75 67 74 90 90 90 86 81 82 82 79 78 75 76 78 78
95 96 94 94 95 95 93 92 87 85 84 85 82 84 85 87 91 86 91 84 90 85 83 95 96 96 97 91 81 84 90 90 90 90 88 85 82 81 79 77 75 77 78
97 96 96 96 95 94 93 92 92 88 86 82 83 84 82 80 71 79 83 91 93 83 97 97 96 95 95 94 83 92 94 92 92 91 90 89 86 83 80 80 78 75 76
90 86 93 93 89 92 92 93 94 92 92 92 86 87 84 82 81 85 87 89 95 93 99 98 96 96 95 93 82 97 80 96 94 93 92 91 90 90 89 86 84 82 81
87 87 91 89 89 88 92 94 95 94 94 93 94 94 92 90 93 92 90 88 84 97 97 99 99 95 95 95 92 80 76 96 96 94 94 93 91 91 92 92 92 91 90
91 85 86 84 82 84 93 94 94 93 96 96 97 95 93 92 93 94 91 82 88 93 96 95 97 97 96 95 96 87 81 92 97 97 95 94 93 93 92 92 94 94 95
92 90 82 81 80 89 92 95 94 94 96 97 96 95 93 89 91 93 92 87 93 92 97 95 96 96 98 97 97 95 92 89 80 98 97 96 95 95 95 95 94 94 94
93 92 92 87 82 86 91 96 97 95 96 97 96 94 89 82 90 89 92 92 90 89 96 95 98 98 93 95 92 94 86 78 73 91 97 96 96 96 96 96 97 97 96
92 94 95 95 94 92 92 94 95 95 95 93 92 92 87 83 92 92 92 91 89 90 95 96 98 97 96 97 96 92 81 76 76 92 98 98 97 97 98 98 98 97 97
90 90 92 94 94 92 92 92 95 95 94 92 89 88 84 81 84 88 92 90 88 96 96 97 98 98 96 96 92 95 97 90 94 84 96 95 99 99 99 99 99 98 98
87 87 88 88 93 93 87 94 95 96 95 95 92 88 81 82 92 87 90 93 93 97 97 97 97 97 96 99 97 91 93 96 98 95 97 97 97 97 97 97 97 97 97
87 89 91 90 90 86 96 97 98 97 95 95 95 89 78 97 97 100 100 100 93 94 97 97 94 96 94 93 94 96 95 98 99 97 97 98 96 98 98 97 97 97 95
87 88 88 89 92 93 96 96 98 96 98 96 95 93 93 95 98 93 100 100 100 100 99 86 94 91 92 90 92 97 96 95 96 98 94 99 98 99 98 96 95 94 93
88 90 88 88 88 87 94 96 95 94 96 97 97 96 98 99 99 98 98 99 99 98 99 99 97 92 92 89 91 91 95 99 99 99 96 98 100 99 100 99 92 90 90
93 94 92 91 92 92 92 95 93 92 94 99 96 95 96 97 99 100 98 99 99 100 98 97 97 97 97 98 97 97 100 99 100 100 100 98 99 99 99 99 99 90 90
97 89 98 97 91 94 92 91 92 97 97 98 98 97 99 98 98 99 99 98 99 99 99 100 100 97 97 97 96 100 100 100 100 100 100 98 98 96 100 97 98 97 95